GFSMA_925_spd_000.txt.gz
Wind_Speed
5 5 3 2 1 4 3 5 7 8 10 12 13 13 12 13 9 6 6 6 7 8 11 12 11 12 12 10 12 12 11 10 9 8 7 5 4 5 8 11 15 18 19
5 5 6 5 5 5 6 8 9 10 12 13 13 11 10 11 6 7 6 6 7 8 12 14 14 14 12 13 13 11 11 10 10 8 7 5 5 7 8 6 7 9 11
10 5 6 6 7 7 8 9 10 11 13 14 14 12 12 6 10 7 7 6 7 8 9 12 15 15 14 15 13 13 13 13 11 9 8 7 9 10 8 7 8 8 10
8 7 7 8 9 9 11 12 14 15 15 18 18 14 15 1 3 11 9 8 10 10 10 13 14 15 15 15 14 15 13 12 11 9 8 9 9 9 10 10 11 12 13
9 9 9 9 9 9 12 13 13 15 15 21 21 18 15 3 4 7 11 11 10 12 11 15 16 17 16 15 15 15 14 14 14 13 12 12 13 13 13 14 14 15 15
13 10 10 9 9 10 12 12 13 16 15 22 16 21 9 1 5 5 10 13 11 13 15 18 20 21 19 17 15 17 16 17 15 12 13 14 14 14 15 16 16 17 18
13 10 9 9 10 12 13 13 14 16 17 23 14 17 6 4 9 7 20 13 12 17 21 22 26 25 24 20 19 19 19 19 15 13 16 16 16 16 17 19 19 20 21
13 10 9 10 10 11 12 14 15 14 12 18 13 4 4 6 5 23 16 14 23 17 26 27 28 30 23 21 25 23 21 19 14 16 17 17 17 19 21 22 24 25 26
12 9 9 10 10 11 12 12 13 14 12 14 12 8 4 3 7 5 13 12 15 19 24 27 30 22 24 27 30 26 24 17 16 18 19 20 22 24 26 28 29 29 30
11 9 9 9 9 10 10 10 11 12 11 12 7 12 7 7 3 5 4 23 6 29 25 28 22 30 31 26 26 26 24 16 19 21 24 26 27 30 32 33 32 32 31
10 9 8 8 9 9 9 9 10 11 10 10 10 8 6 9 4 3 7 9 25 24 26 19 35 21 26 25 25 21 17 21 24 26 27 31 34 34 34 34 35 34 34
11 8 7 7 8 7 7 8 9 10 10 11 9 8 7 3 6 4 4 13 15 17 27 28 21 24 22 24 23 28 20 23 28 29 34 35 34 35 36 36 37 38 37
10 7 6 6 6 6 7 7 9 11 10 11 11 12 9 7 8 12 13 14 10 23 10 19 11 21 24 24 26 26 28 30 34 34 35 36 37 36 36 37 38 39 41
9 7 6 5 5 5 6 8 10 11 11 11 11 11 10 8 11 12 11 16 12 5 21 9 20 18 16 24 25 29 32 32 35 37 37 37 38 37 37 40 41 42 43
9 6 4 4 4 5 7 9 11 12 12 12 13 13 13 12 12 14 16 17 11 8 13 11 7 27 24 27 27 29 31 31 32 36 38 37 36 39 44 45 46 47 47
7 4 3 4 4 6 8 10 11 11 13 15 15 16 16 15 15 16 17 18 18 19 10 26 27 26 26 29 30 30 32 32 34 35 32 34 42 45 47 48 47 44 43
5 4 3 3 6 8 9 11 11 13 16 17 17 18 19 18 19 18 19 20 22 23 14 33 30 30 32 32 30 29 29 30 32 29 37 41 42 42 43 45 43 42 40
4 3 3 5 7 9 11 12 13 15 17 19 20 19 21 20 21 23 24 25 26 27 23 21 32 33 32 32 32 31 30 28 29 32 35 38 41 42 40 38 37 38 38
4 3 4 7 10 11 12 13 14 16 17 18 18 19 20 20 21 22 24 27 27 25 22 25 30 34 35 29 30 29 30 31 30 30 34 35 36 37 36 38 42 41 40
3 4 6 8 10 12 14 14 15 15 16 17 20 20 21 21 22 23 23 24 22 25 27 26 27 29 24 23 28 27 29 29 32 30 33 35 35 36 37 38 38 39 40
4 6 7 9 12 15 16 13 14 16 17 19 20 19 19 19 19 21 24 27 29 27 26 25 19 16 26 27 24 29 29 32 32 31 33 32 30 31 35 36 37 36 35
5 7 9 13 16 16 15 13 15 18 16 21 21 22 22 22 22 24 28 29 30 28 21 25 25 23 23 27 31 29 28 26 16 26 23 34 31 33 33 33 34 34 36
6 9 12 14 16 16 14 15 16 19 19 20 22 25 27 26 27 30 33 31 16 25 26 29 28 26 28 30 29 29 29 27 28 35 30 31 31 33 34 35 35 37 37
9 12 15 16 17 17 15 17 18 19 19 21 24 26 26 27 27 29 31 24 29 25 27 28 27 30 29 33 33 30 31 32 32 32 26 14 32 33 35 35 37 38 36
10 13 15 17 17 16 17 18 19 20 21 24 25 22 22 25 27 31 30 28 25 26 32 27 22 30 33 30 28 29 24 23 15 27 29 25 27 31 35 37 34 28 31
12 14 16 16 15 17 20 19 19 20 22 24 20 20 18 24 30 29 32 27 22 30 28 22 30 31 29 30 26 25 26 21 20 13 23 21 28 23 9 27 25 33 30

GFSMA_925_spd_003.txt.gz
Wind_Speed
5 7 5 4 4 3 2 4 6 8 9 10 11 10 9 9 6 3 3 3 5 9 11 12 12 12 10 12 11 10 10 9 9 7 6 4 3 5 6 7 9 12 15
9 8 8 6 4 4 5 6 7 9 10 11 11 8 9 7 3 3 2 3 4 4 9 12 13 11 12 13 11 11 11 11 10 8 7 5 7 8 9 9 9 9 9
12 10 7 6 5 5 6 7 9 9 10 12 13 10 9 2 4 5 5 5 5 5 7 9 12 13 14 13 13 13 12 11 10 9 7 8 9 9 7 8 10 11 11
12 10 9 8 7 7 8 9 12 12 14 16 16 12 11 2 3 6 8 7 8 8 8 10 12 14 14 14 14 14 14 13 14 14 13 13 11 11 11 12 13 14 15
14 13 10 9 7 8 9 11 13 13 15 18 15 15 10 3 6 6 9 11 9 10 11 12 15 17 17 16 15 15 16 15 17 16 15 12 14 15 15 15 15 16 17
16 14 11 10 8 9 11 11 11 12 15 19 16 14 7 2 7 3 8 16 8 10 12 15 19 21 22 19 15 16 17 18 18 17 14 15 16 16 16 16 17 18 19
18 13 11 9 9 11 11 11 10 12 15 21 12 11 6 3 2 2 18 11 9 12 16 16 21 20 20 21 21 20 20 21 20 19 17 19 18 18 18 18 20 20 21
17 14 11 10 10 10 9 11 13 11 11 17 9 3 4 4 4 20 6 11 11 17 15 28 23 21 21 22 24 24 22 22 21 20 20 21 21 20 21 23 24 25 26
17 13 11 10 9 9 10 11 12 12 9 11 13 6 2 2 9 8 16 4 17 10 22 19 19 21 23 22 23 22 22 22 21 19 20 22 23 25 27 29 30 32 33
16 13 10 9 8 8 9 9 9 10 9 8 5 8 3 2 3 5 5 12 5 21 18 17 22 20 23 19 21 23 22 18 18 21 23 25 27 29 31 34 37 38 38
15 13 10 9 8 7 8 8 8 8 9 6 5 4 4 5 3 4 8 12 21 16 18 20 19 21 19 19 19 19 22 25 25 24 26 30 32 35 38 39 40 40 40
16 12 10 7 7 6 6 7 7 7 7 6 4 4 2 3 5 5 6 16 17 14 26 15 19 15 20 17 18 24 26 24 26 29 32 35 36 38 39 39 40 40 39
17 13 9 7 6 5 6 5 6 7 6 6 5 5 5 5 6 9 13 16 11 23 8 17 11 18 14 15 29 24 28 29 30 32 33 36 38 39 39 40 41 39 38
17 13 9 6 5 4 5 5 6 6 6 5 6 8 8 8 8 8 10 16 13 11 20 19 16 12 19 27 26 27 26 25 28 31 34 36 40 42 42 39 39 41 43
16 12 7 5 4 4 5 6 6 6 6 8 9 10 10 11 12 11 10 11 12 11 15 20 10 28 26 26 26 28 26 27 30 32 35 38 40 40 38 40 44 46 47
14 10 7 4 3 3 5 6 6 6 9 10 9 11 11 12 12 13 13 14 15 20 12 28 30 29 28 27 27 27 28 30 32 34 36 37 40 42 46 48 48 47 46
12 9 6 4 3 4 5 6 7 8 9 11 11 11 13 13 12 13 14 16 19 21 17 35 32 32 32 30 30 28 27 28 31 34 38 42 42 42 41 44 45 44 43
11 8 5 3 3 4 5 6 8 9 11 11 13 14 14 13 14 14 15 17 20 23 26 27 33 32 32 33 32 31 28 31 33 33 35 35 39 41 40 41 41 40 41
10 7 4 3 4 5 6 7 9 10 10 12 14 14 14 14 15 15 16 19 22 24 25 26 32 33 31 29 27 31 32 33 31 31 33 34 35 36 38 39 40 41 41
9 6 4 4 5 7 9 9 9 11 13 14 16 16 14 14 15 17 20 22 23 26 28 28 28 24 26 30 29 30 29 29 30 31 33 33 34 36 38 39 41 40 40
8 5 3 4 7 9 10 9 10 12 15 16 17 16 15 17 19 20 24 25 28 26 26 17 22 24 26 27 25 28 29 32 32 31 31 30 32 35 37 38 37 37 36
6 3 4 7 10 11 11 9 11 12 15 14 16 16 20 21 22 21 25 26 27 29 23 22 24 23 28 26 29 27 28 27 16 26 23 36 33 35 35 35 36 36 38
4 4 6 9 11 12 10 12 13 14 14 16 17 20 20 18 22 22 26 28 22 24 27 28 29 27 28 30 27 30 29 27 28 35 32 31 33 33 33 36 37 37 38
3 6 8 10 12 12 11 13 14 14 15 16 20 21 20 21 21 25 29 21 25 25 24 26 27 29 27 30 31 29 30 31 31 32 28 15 34 32 35 36 39 37 34
5 7 9 11 13 13 13 14 15 15 15 17 20 19 19 20 23 28 26 27 27 26 27 25 22 26 32 27 24 25 23 22 16 27 30 24 26 32 35 38 31 23 30
6 9 10 11 11 13 15 15 15 15 16 19 19 17 17 22 27 25 28 26 23 28 26 20 28 25 23 23 23 21 23 20 20 13 18 21 27 24 10 17 21 33 29

GFSMA_925_spd_006.txt.gz
Wind_Speed
8 7 6 3 4 3 3 4 5 7 8 8 9 8 8 8 6 3 2 1 3 6 10 10 11 11 12 12 10 11 12 11 12 10 9 9 8 8 8 8 9 10 10
9 9 9 7 4 3 4 5 6 7 8 9 9 8 7 5 3 2 0 2 2 3 9 11 11 11 12 12 12 13 13 12 12 11 11 9 11 12 12 12 10 11 11
12 11 10 7 5 4 4 5 6 7 8 9 8 7 6 4 2 1 1 2 3 6 6 7 11 12 13 13 13 13 14 14 14 15 15 14 14 14 13 14 14 14 14
14 14 11 8 6 5 5 6 7 7 9 10 10 8 7 4 2 2 3 4 4 5 7 10 11 14 15 16 15 14 15 16 15 16 17 16 17 15 16 17 18 18 18
17 14 10 9 7 6 6 6 7 8 11 13 11 10 7 3 5 3 2 5 5 6 6 10 15 16 18 16 14 14 15 16 17 18 18 19 17 17 18 18 18 18 18
18 14 12 10 8 7 8 6 7 8 10 14 11 8 2 2 5 2 4 6 4 6 6 10 15 14 15 14 15 15 16 18 20 20 20 20 19 20 21 20 20 21 20
20 16 13 11 9 9 8 7 6 8 10 14 10 5 2 0 4 3 7 3 5 6 11 11 14 15 15 17 16 16 20 20 18 22 22 22 21 22 23 23 23 23 24
19 16 14 11 10 9 8 8 9 7 7 11 8 5 3 1 1 8 4 9 3 11 12 17 16 16 17 16 18 20 18 19 21 23 23 22 22 24 24 25 26 28 29
17 16 14 12 10 8 7 7 8 8 7 6 8 5 3 2 11 3 8 4 13 13 19 17 16 19 16 18 16 17 17 20 20 22 22 23 24 25 27 29 31 33 35
16 15 14 11 10 8 7 6 6 6 5 6 3 4 2 3 3 5 5 11 10 19 19 18 19 20 18 16 18 18 19 22 26 27 28 27 27 29 31 33 35 37 39
15 15 13 11 9 8 7 6 5 3 3 3 4 5 4 6 5 5 9 10 19 18 19 19 20 16 15 17 17 16 24 27 26 26 28 29 31 34 36 38 41 41 41
14 13 12 10 9 8 6 5 3 2 1 1 2 3 5 5 7 8 9 14 18 20 22 20 14 16 17 18 17 24 24 26 28 29 29 31 33 35 37 38 40 40 41
15 14 12 9 8 7 5 4 3 0 1 3 3 5 6 8 10 13 15 17 13 23 17 14 14 19 17 17 25 25 28 28 28 28 29 31 33 35 36 37 40 42 44
15 14 12 9 8 6 5 3 2 1 2 3 5 6 8 10 11 13 15 17 14 12 21 19 20 16 16 24 26 26 27 27 28 29 31 33 35 35 37 38 39 40 41
16 14 12 9 7 5 4 2 1 2 2 4 6 8 9 11 12 13 15 16 17 13 13 15 9 22 24 26 27 28 28 28 29 32 33 34 35 37 39 40 42 43 44
16 14 11 9 7 4 3 2 2 2 3 5 7 9 11 12 14 15 16 17 19 21 13 22 26 27 27 28 28 27 29 30 31 32 34 35 38 39 39 41 40 41 41
15 13 11 8 5 3 2 2 2 3 5 7 8 10 12 13 15 15 16 18 19 21 17 28 29 29 31 29 30 27 28 29 33 37 37 37 36 37 38 39 39 40 40
13 12 9 7 4 3 2 2 4 5 6 8 10 11 13 13 15 15 15 17 19 22 26 27 31 31 31 30 29 29 31 34 33 33 34 35 36 36 36 37 38 40 41
12 10 8 5 3 2 2 4 5 7 8 10 11 13 14 14 15 15 17 20 22 24 27 28 31 32 31 26 31 33 31 30 28 30 32 33 36 37 36 36 38 41 42
11 8 6 4 1 2 3 4 7 8 10 12 13 14 15 14 15 18 20 23 25 26 28 29 29 29 25 31 32 29 28 29 29 31 34 34 34 34 33 37 41 41 39
9 7 5 2 1 3 4 6 8 11 12 14 15 15 15 15 18 19 22 24 26 27 26 27 21 25 28 27 26 28 27 30 33 30 32 30 31 36 37 36 36 36 35
7 5 2 0 3 4 7 6 9 12 14 15 16 17 17 18 18 21 23 23 26 28 29 24 25 25 30 28 29 28 28 26 14 28 26 37 32 36 34 34 35 37 38
5 3 0 2 4 5 7 8 11 13 14 15 16 17 19 18 20 21 22 26 29 21 28 31 29 29 28 29 31 29 29 28 27 35 33 34 32 34 34 36 37 37 38
3 1 2 4 5 6 8 10 12 13 13 14 16 18 19 20 20 22 27 25 24 28 25 25 27 30 30 29 32 32 30 32 31 31 28 15 32 31 33 37 38 34 32
1 1 3 5 7 7 8 11 13 14 14 15 16 18 18 19 20 26 25 25 28 27 24 24 28 27 32 31 26 26 24 22 16 27 29 26 26 32 35 37 25 20 27
1 3 5 5 7 8 10 12 13 13 15 17 19 19 17 18 24 24 27 28 27 26 27 29 28 26 23 23 22 20 22 20 20 14 17 20 27 23 8 21 21 37 31

GFSMA_925_spd_009.txt.gz
Wind_Speed
9 8 7 6 5 4 4 4 5 6 8 9 9 8 8 7 6 3 3 4 2 6 9 11 11 12 12 12 13 14 14 14 14 14 13 12 11 12 12 12 12 10 10
11 10 8 7 6 5 4 4 6 7 7 9 9 8 7 6 4 2 0 4 3 2 5 9 10 11 12 12 12 13 13 13 13 14 14 14 14 13 13 12 12 12 13
10 10 10 8 7 5 4 4 5 6 7 8 8 7 6 5 3 1 0 1 5 7 8 7 9 10 11 13 13 13 13 13 14 14 15 16 16 16 16 15 15 15 15
14 13 12 9 7 5 4 4 6 6 7 8 9 7 6 5 3 1 2 2 2 3 8 11 12 14 13 14 13 13 14 14 15 16 17 18 17 17 15 15 17 17 17
17 15 12 10 7 6 5 5 5 7 8 10 9 8 5 2 4 3 0 3 4 4 5 9 14 14 17 13 14 14 14 16 17 18 19 20 20 19 18 18 19 19 19
17 15 12 11 8 7 6 5 5 6 8 11 9 6 2 1 3 3 3 5 3 5 6 10 14 11 12 13 14 13 15 18 18 18 18 20 20 21 21 21 22 21 22
21 16 14 12 10 8 7 6 5 6 8 13 7 6 2 1 3 4 2 3 6 4 8 11 13 13 14 15 13 15 16 16 16 19 20 21 21 21 21 22 23 24 25
21 17 15 13 10 9 7 7 8 5 6 10 7 6 2 3 3 5 8 5 3 8 10 15 14 13 17 15 16 15 16 16 19 19 22 22 22 22 22 23 25 25 26
21 18 15 14 11 8 7 6 6 7 5 5 7 4 2 2 8 3 3 6 8 11 14 17 16 16 19 15 15 16 15 17 20 25 26 26 26 26 27 27 28 29 29
20 17 15 13 11 9 8 6 5 5 4 4 1 4 2 2 2 4 3 13 11 13 18 16 17 22 16 17 16 17 16 20 26 25 26 27 27 28 29 30 32 33 35
20 16 14 13 11 9 8 6 5 4 3 2 2 2 3 4 7 6 8 8 17 16 17 14 19 18 15 15 16 16 18 25 24 27 28 28 28 29 31 33 34 36 37
19 15 14 12 10 9 7 5 4 3 1 1 2 2 3 3 6 7 6 13 16 18 18 23 16 16 15 16 16 18 24 25 28 27 28 28 29 30 31 32 34 35 35
20 17 15 12 10 8 7 5 3 2 1 2 3 4 5 7 9 12 14 14 11 19 18 17 20 15 19 15 18 23 27 27 28 28 29 30 31 33 34 34 35 35 36
20 18 15 12 10 8 6 4 2 1 2 3 5 6 7 9 10 12 14 14 10 11 18 18 21 15 12 21 24 26 28 28 29 30 31 33 35 35 35 36 37 38 39
20 17 15 12 10 7 5 3 1 2 3 5 6 8 9 10 12 13 14 15 14 10 10 14 19 18 24 24 24 28 29 30 30 32 34 35 35 36 37 38 40 39 39
20 18 14 11 9 6 4 2 2 3 5 7 7 8 10 11 13 14 15 16 17 18 11 20 22 24 25 25 28 28 29 30 29 33 35 36 37 38 37 38 38 39 39
19 17 14 11 8 5 3 2 3 5 7 8 8 10 11 13 15 15 16 16 18 18 14 24 24 24 27 28 29 27 26 30 34 35 36 34 35 36 36 37 37 38 39
17 16 13 10 6 4 2 3 6 7 8 9 10 11 13 14 15 15 16 16 18 20 23 22 25 26 26 29 27 28 26 31 33 30 31 35 36 36 37 37 38 38 38
17 14 11 9 6 3 1 4 7 9 10 11 12 13 14 14 16 15 17 19 20 22 23 25 27 27 28 27 23 29 32 25 25 30 33 35 37 38 36 35 36 38 38
15 12 10 7 5 2 2 5 7 10 12 13 14 14 15 15 16 16 19 20 21 24 24 24 27 29 26 24 28 26 23 25 27 29 35 35 33 35 33 35 39 39 38
13 11 9 6 2 0 2 5 8 11 13 15 15 15 15 15 16 18 20 20 23 23 24 25 26 21 25 27 22 24 25 28 32 26 36 31 26 36 37 36 36 35 34
12 9 6 4 1 1 7 7 8 11 14 15 16 16 16 17 17 18 20 21 23 26 27 25 23 24 26 25 25 26 29 22 15 27 21 37 32 36 35 34 34 36 36
10 7 4 1 1 3 8 7 10 12 14 15 15 16 17 17 18 18 19 22 25 26 24 33 27 23 26 28 30 29 26 27 27 35 32 34 32 33 34 36 33 36 39
7 4 2 1 3 5 11 8 11 13 14 15 15 16 17 18 18 19 22 24 22 27 26 25 24 27 29 32 28 28 30 30 32 31 25 19 33 33 33 34 40 34 29
5 2 1 3 4 5 8 10 12 13 15 16 16 16 18 18 18 21 24 24 26 26 26 25 27 31 32 31 28 26 24 22 17 27 27 26 26 31 36 38 27 22 24
3 2 2 4 5 6 7 10 12 13 15 15 16 18 18 18 20 23 24 26 26 26 26 30 29 28 25 25 24 23 22 20 21 19 23 19 26 22 7 23 20 35 30

GFSMA_925_spd_012.txt.gz
Wind_Speed
14 12 12 8 9 7 6 4 1 3 5 7 6 7 6 5 2 5 5 5 3 7 9 10 10 11 11 11 12 12 12 12 12 12 12 12 12 12 12 11 10 8 8
14 15 14 10 9 5 4 3 5 5 6 7 6 6 5 4 2 2 4 4 5 5 5 8 10 10 11 12 11 12 11 12 13 13 14 14 14 13 13 13 12 11 11
17 13 14 11 8 7 3 3 3 3 5 5 5 5 5 4 1 1 3 5 6 7 8 9 10 11 11 12 12 12 12 12 13 14 15 15 15 16 16 14 13 13 14
16 15 14 11 8 6 4 4 5 4 5 7 7 5 5 3 2 3 3 3 2 5 7 10 11 12 12 13 13 14 13 13 15 15 17 16 16 17 17 16 16 16 16
18 19 18 13 9 7 7 5 6 7 8 10 6 6 4 1 5 4 2 2 4 6 5 9 11 10 12 12 14 14 13 15 16 15 16 17 18 18 18 18 17 18 19
19 20 18 14 11 9 7 6 6 7 10 11 6 4 1 2 4 5 1 4 1 5 5 5 12 13 12 13 14 12 15 14 15 16 17 17 18 19 20 19 18 19 20
24 21 19 17 13 10 9 6 5 7 11 12 5 4 4 4 4 4 2 3 3 1 4 11 15 16 13 16 14 14 13 14 15 16 18 20 21 21 21 20 20 21 21
28 24 22 19 16 13 10 8 8 5 7 12 6 2 3 1 3 3 7 2 3 5 7 12 18 15 14 19 15 13 14 15 16 19 22 22 23 23 23 23 24 24 25
27 24 23 20 17 13 11 9 8 7 5 6 9 4 2 1 5 1 3 3 6 8 12 16 17 18 19 17 15 14 14 15 17 22 23 25 26 26 26 26 26 27 28
27 25 23 21 17 14 12 9 7 7 5 5 3 4 3 1 1 4 2 11 8 16 17 20 22 20 23 18 17 18 18 16 21 25 26 28 27 27 27 27 28 29 30
27 24 23 20 18 14 12 9 7 6 5 4 2 2 1 2 6 5 4 4 21 22 21 18 20 25 21 19 21 22 16 19 24 28 28 28 28 29 29 30 30 30 31
28 24 22 20 17 15 12 9 7 5 4 2 1 1 1 0 2 2 2 6 13 16 19 23 16 17 20 16 14 11 16 22 27 27 28 30 30 30 30 31 32 33 33
30 25 24 20 17 15 12 9 6 4 2 2 2 2 3 5 7 9 11 11 5 16 15 17 15 18 24 11 16 21 23 25 27 30 31 30 31 31 33 33 33 33 33
32 28 23 20 17 15 12 8 6 4 2 1 3 4 6 7 9 10 11 12 7 5 18 10 26 18 12 24 24 25 27 27 31 30 32 32 32 34 35 35 34 34 35
31 27 25 21 17 13 10 8 5 3 1 2 4 5 6 8 10 12 12 13 10 6 9 7 16 18 29 29 27 30 33 31 32 31 32 35 37 36 37 36 36 35 36
30 29 24 20 17 13 9 7 4 3 2 3 5 7 9 10 11 14 14 14 15 17 8 19 22 26 27 27 30 30 31 33 29 33 36 36 35 34 34 35 35 35 36
31 27 23 19 16 12 9 6 4 3 4 5 7 9 9 12 14 13 15 17 18 19 14 24 26 27 27 29 31 32 30 33 31 34 34 32 33 34 37 36 36 38 38
28 25 21 17 14 11 7 5 3 3 5 7 8 9 11 11 13 15 16 16 16 19 23 21 22 25 26 30 30 32 28 32 33 31 28 34 35 36 37 38 36 36 36
26 22 19 16 12 9 6 3 3 4 6 8 9 10 12 15 15 16 16 14 19 21 21 23 25 26 28 29 26 29 30 29 28 29 30 36 35 35 35 34 35 35 36
25 21 17 14 9 6 3 2 2 5 7 9 11 12 12 14 16 14 16 20 19 21 22 21 23 26 25 20 27 27 25 26 29 30 33 34 33 32 31 34 37 35 34
23 19 15 11 7 4 3 4 5 7 8 10 12 13 12 12 13 16 18 18 20 20 23 20 23 24 19 25 21 23 27 30 33 29 29 35 25 35 36 34 33 33 31
20 17 13 9 6 3 3 5 5 9 10 11 13 13 15 16 15 14 17 18 20 22 24 23 17 25 24 23 22 26 29 28 10 28 17 39 28 35 33 32 33 35 35
18 14 10 7 5 3 5 6 6 10 11 11 14 16 15 14 16 17 18 19 20 22 24 28 27 24 26 27 30 29 27 20 27 32 26 36 30 32 33 34 34 34 38
15 12 7 4 2 3 5 6 8 11 11 13 14 16 16 16 17 18 21 22 21 26 24 26 28 29 29 32 30 28 28 29 32 30 25 20 35 35 34 32 37 35 30
12 9 5 2 1 1 5 7 9 12 12 13 14 14 15 18 15 19 21 25 25 23 23 26 26 28 30 30 27 29 25 23 20 28 26 25 28 31 35 37 28 24 24
10 6 3 1 2 4 2 6 8 12 13 14 15 16 16 17 20 21 24 24 21 24 30 27 28 33 26 27 26 24 26 22 25 20 20 14 27 21 10 24 21 32 30

GFSMA_925_spd_015.txt.gz
Wind_Speed
17 17 14 14 13 12 8 6 3 1 2 3 3 3 3 3 3 4 6 6 6 9 10 10 10 11 11 10 10 10 11 11 11 11 11 12 12 12 11 11 10 10 10
19 19 21 19 15 11 8 5 1 0 1 2 2 4 2 3 2 5 6 7 6 7 9 10 10 10 11 11 11 11 11 11 12 12 12 12 12 12 12 12 11 10 10
21 23 20 17 13 11 8 5 3 1 1 1 1 3 3 2 4 5 7 7 5 5 7 10 10 10 11 11 11 12 11 11 13 14 13 14 13 13 14 14 13 13 12
25 23 20 17 14 11 7 5 3 1 2 4 3 3 2 2 6 7 5 4 2 4 5 7 9 9 11 11 12 11 11 12 12 12 13 14 14 15 15 15 15 14 14
29 23 21 18 15 12 8 5 5 4 6 6 4 4 4 6 8 7 4 2 1 4 3 5 9 12 11 11 12 11 12 12 12 12 13 14 15 16 16 16 16 15 16
25 23 23 21 17 15 10 7 5 6 8 6 3 5 5 7 8 6 4 4 3 2 4 6 11 15 12 11 12 13 13 11 11 13 14 16 16 17 18 18 18 17 17
27 27 25 21 19 15 12 8 7 6 9 6 3 6 5 5 5 5 4 3 2 1 5 9 14 17 15 17 19 11 10 12 13 13 17 18 18 19 20 20 20 20 21
28 28 26 24 22 18 14 11 8 6 7 10 4 3 2 1 3 4 4 3 2 2 5 9 15 15 19 18 19 10 10 13 14 15 19 20 22 23 23 23 22 23 23
31 30 27 25 23 18 17 13 10 7 7 7 10 4 2 1 3 1 5 5 3 4 9 14 17 17 15 20 20 15 15 15 13 16 20 24 25 24 24 24 25 25 25
33 30 28 26 23 20 17 14 11 9 8 7 5 6 5 3 2 3 3 4 4 10 20 19 16 20 20 17 18 18 16 15 15 19 25 26 26 26 27 27 27 27 27
32 30 28 26 23 20 18 15 13 10 8 8 5 3 2 2 2 2 3 5 16 21 16 15 21 14 15 15 15 14 13 15 21 24 28 29 29 30 30 30 29 29 29
33 30 29 27 23 20 17 16 13 10 9 7 5 4 3 2 1 1 2 4 9 13 18 14 17 12 18 11 10 14 16 19 22 25 29 30 30 30 30 30 30 31 31
36 34 32 30 25 20 17 15 13 11 8 7 5 4 3 3 3 4 5 6 4 10 8 13 8 14 13 14 25 23 22 23 27 30 30 28 29 29 29 31 32 33 33
36 37 33 28 24 21 16 14 12 9 7 6 4 3 3 3 5 6 6 5 3 4 10 5 17 16 14 29 31 27 28 28 27 27 29 28 29 30 33 33 32 33 33
36 37 32 28 23 18 16 14 11 9 6 5 3 2 3 4 4 6 6 7 4 3 5 3 5 20 27 27 25 25 28 31 28 29 28 30 31 33 31 30 31 32 32
34 36 32 27 22 20 15 12 10 8 5 4 3 5 5 7 8 10 10 9 11 12 4 11 21 25 25 25 28 29 33 28 29 29 29 33 30 29 29 31 33 33 33
36 35 30 26 24 19 15 11 8 6 4 2 4 6 6 7 10 9 9 12 13 13 9 17 20 22 27 30 31 32 31 29 29 30 28 30 29 31 33 33 34 35 35
34 31 30 26 21 17 14 11 8 6 4 4 5 7 8 8 9 12 12 12 11 13 19 19 19 23 26 31 31 31 27 28 28 28 28 32 32 32 34 33 33 33 33
34 30 27 24 20 17 13 9 7 5 3 4 5 7 9 11 12 12 12 12 14 19 19 23 22 24 28 30 29 27 27 28 26 29 30 32 32 31 31 31 31 32 34
34 31 27 23 18 15 11 7 5 4 3 4 6 6 8 10 10 10 11 15 17 18 18 21 22 23 24 24 24 25 27 27 32 30 31 31 29 30 30 30 32 31 31
32 29 26 21 16 12 8 6 3 1 4 6 7 8 8 9 11 13 14 14 16 17 20 18 18 21 18 23 22 25 27 30 31 32 29 28 28 32 33 31 31 31 29
28 25 20 19 14 10 6 2 1 3 5 7 9 9 11 12 14 10 13 16 16 19 20 20 19 19 22 24 24 24 28 27 11 23 24 31 30 32 31 31 30 33 35
23 21 16 14 12 8 4 2 3 5 7 8 9 11 12 13 12 15 15 16 18 17 19 24 23 23 24 27 31 28 23 22 26 30 29 29 33 32 31 32 34 35 35
17 17 13 11 9 8 4 2 4 7 8 8 9 11 10 12 14 15 17 18 16 18 22 21 24 28 28 27 26 27 28 27 28 29 26 22 30 34 33 31 35 33 29
14 13 10 9 8 6 3 4 7 9 10 9 9 11 13 14 15 16 20 22 23 21 24 23 22 23 25 27 24 26 24 21 21 26 31 24 21 27 33 35 26 24 24
13 11 9 7 6 5 3 3 4 8 11 10 11 14 14 14 17 18 19 22 20 25 26 25 23 29 28 27 22 21 25 21 22 17 18 10 24 22 9 22 19 30 33

GFSMA_925_spd_018.txt.gz
Wind_Speed
23 19 16 17 15 13 11 10 7 5 3 2 1 2 2 3 7 8 9 8 10 10 9 9 8 8 8 8 9 10 8 9 10 11 11 11 12 12 13 13 12 11 9
23 22 20 19 15 15 12 9 7 5 2 1 1 3 4 4 6 10 10 9 8 9 9 9 8 8 9 9 9 9 9 10 11 11 11 12 11 12 13 12 12 11 11
23 24 22 22 19 16 12 9 6 4 2 1 2 3 4 4 7 9 9 8 7 7 7 8 9 9 9 10 10 10 9 11 11 11 11 12 12 13 13 13 13 13 12
24 24 25 24 20 15 12 9 7 4 1 1 4 4 5 4 8 9 8 5 4 4 4 5 6 8 9 10 11 9 10 10 10 10 11 12 13 13 14 14 14 14 14
26 27 28 25 20 16 13 10 7 4 2 3 6 5 5 7 11 10 8 6 5 3 3 4 7 10 10 9 10 10 10 8 8 9 10 13 14 14 15 15 15 15 15
31 31 28 25 21 18 15 11 7 5 3 6 7 8 7 10 10 8 7 7 5 3 3 5 8 12 13 12 12 11 8 8 9 9 11 12 13 14 16 17 17 17 18
34 34 30 25 22 20 17 13 11 7 6 7 8 8 7 8 7 7 9 8 8 5 3 5 10 12 13 13 14 9 7 9 10 10 12 13 15 17 18 18 19 19 19
36 33 31 26 24 21 19 16 12 9 5 5 3 5 1 1 4 5 8 9 8 5 2 7 10 10 9 12 15 12 9 9 12 11 13 15 19 20 20 21 21 21 21
36 33 31 29 26 23 21 17 14 10 8 5 4 4 2 3 0 4 8 7 8 2 6 11 10 13 13 11 9 10 11 11 13 13 15 19 21 22 23 23 24 24 24
36 34 34 31 28 24 21 17 14 11 10 9 6 5 4 4 3 1 6 8 6 4 14 10 16 9 10 11 11 9 9 12 14 17 19 21 24 25 26 26 26 26 26
37 36 34 31 29 26 21 17 15 13 11 10 7 5 3 3 3 2 2 3 6 13 15 14 8 10 10 10 7 7 12 14 17 20 23 26 28 29 28 27 27 27 27
38 36 33 32 30 27 24 19 15 12 11 9 8 6 5 3 3 3 1 3 6 9 11 10 13 6 12 9 13 18 18 19 20 24 27 29 29 27 28 28 27 28 29
38 40 36 35 32 28 24 20 16 13 11 9 8 6 4 3 3 3 3 3 3 4 6 10 4 14 9 13 22 25 22 21 23 25 27 26 27 27 26 28 29 30 32
36 39 37 36 33 28 24 20 15 13 10 8 7 5 4 4 4 4 4 3 2 3 5 6 11 9 10 27 24 21 22 24 26 28 25 26 26 27 28 30 31 31 30
36 37 38 36 32 29 25 20 16 11 8 9 7 5 4 5 4 4 5 5 4 2 3 3 4 8 24 25 25 25 25 27 24 24 25 26 27 29 29 27 28 28 29
36 39 37 35 31 28 25 21 16 14 12 9 7 6 5 5 6 6 8 8 8 9 3 4 13 24 26 25 28 25 27 23 22 26 25 25 25 26 27 28 30 31 31
36 38 38 35 32 27 23 18 14 14 12 8 6 7 7 6 8 9 8 9 11 12 8 11 18 24 25 28 30 29 26 27 28 24 24 26 26 28 28 28 30 31 32
36 39 38 35 29 26 19 19 18 16 10 8 6 7 6 8 10 10 11 12 12 13 15 15 19 24 26 29 30 27 28 26 27 25 26 27 29 29 28 28 28 29 30
36 37 37 34 28 21 22 20 17 11 9 7 6 7 7 9 12 12 12 13 13 15 17 20 19 24 27 29 28 27 25 26 26 27 28 28 28 26 26 28 28 29 30
35 34 31 28 24 20 15 14 12 10 7 6 6 6 8 10 11 10 10 13 15 15 16 19 22 22 24 26 22 23 25 26 29 29 31 25 27 26 30 29 29 30 30
27 28 26 22 21 18 15 11 9 7 6 6 5 7 7 7 8 10 13 12 12 16 18 21 20 18 20 21 21 23 25 28 29 31 26 24 28 29 36 30 30 30 29
28 28 24 21 15 11 10 7 6 5 4 3 4 5 7 9 10 10 11 13 14 18 19 16 19 16 21 22 24 22 26 24 9 23 21 33 28 30 34 32 31 30 32
26 21 16 17 14 11 8 5 4 2 1 2 4 6 7 6 8 10 12 14 15 18 19 22 22 23 24 27 30 28 23 21 26 30 31 33 26 30 33 31 31 32 34
26 23 17 12 10 9 8 5 2 1 2 3 4 4 7 9 11 12 15 17 18 18 18 19 23 27 26 25 23 24 27 28 28 28 26 21 25 29 31 32 34 33 31
18 17 15 13 12 9 6 3 2 3 6 5 4 6 9 12 12 13 17 19 19 21 19 22 21 21 22 25 26 25 24 21 22 25 25 23 18 27 29 33 27 24 24
14 14 13 10 8 7 5 2 4 5 8 8 9 11 12 12 14 16 17 18 17 20 23 19 21 27 29 26 21 19 23 21 20 16 9 8 20 20 9 19 20 26 34

GFSMA_925_spd_021.txt.gz
Wind_Speed
21 19 18 16 15 14 11 9 7 4 3 1 1 1 2 5 7 8 9 8 10 10 9 8 8 8 8 8 8 9 9 9 10 10 10 11 11 11 12 12 11 11 10
23 21 19 18 16 15 12 10 8 5 4 2 2 4 4 6 8 10 8 8 8 9 8 8 8 8 8 7 7 7 8 9 9 9 10 10 11 11 12 12 12 12 11
26 24 22 20 18 16 14 11 8 6 4 3 4 6 6 6 9 9 9 8 7 7 7 9 8 8 7 7 7 6 8 7 7 8 9 9 10 11 11 11 11 12 12
25 24 24 23 19 18 14 11 8 6 4 3 5 6 6 7 10 11 8 8 6 4 4 4 5 6 7 7 8 7 7 6 6 7 8 10 10 11 11 12 12 12 12
26 27 26 24 23 19 15 12 9 6 4 4 7 7 6 7 12 11 9 7 6 4 3 3 4 6 6 8 9 8 6 5 5 6 8 9 10 11 13 14 14 13 13
29 28 27 27 25 21 17 13 10 7 5 8 8 7 6 10 11 10 9 9 7 6 3 0 4 5 7 9 9 8 5 6 6 8 8 10 11 12 14 15 15 16 15
33 31 29 30 27 24 20 16 13 10 7 11 12 7 7 7 9 9 11 10 9 7 3 1 5 7 8 8 9 8 7 7 8 10 9 10 12 14 16 16 17 17 17
37 36 34 33 30 26 21 20 17 13 6 13 6 6 2 2 5 8 10 11 11 7 3 3 5 8 10 11 11 6 6 8 10 11 11 13 15 16 17 19 19 20 20
38 40 38 33 32 29 26 23 20 15 11 9 10 5 2 4 2 5 9 12 11 8 2 5 8 9 7 7 7 7 7 10 11 12 15 17 18 20 21 22 23 24 23
39 41 39 36 34 31 27 25 21 18 15 13 9 7 5 5 3 1 7 11 11 9 6 7 10 7 7 7 6 5 8 10 13 16 17 19 22 24 25 26 26 24 25
38 41 40 38 36 33 28 26 23 20 17 16 11 9 6 4 4 2 2 4 12 13 10 8 7 6 5 7 9 10 13 15 17 18 22 24 25 26 26 25 26 25 26
39 40 40 41 38 34 29 26 23 21 17 13 11 9 7 4 4 4 1 3 5 6 6 14 6 5 9 9 11 16 19 18 19 22 23 24 27 26 25 26 26 25 27
39 41 41 40 39 35 31 27 24 21 17 15 12 8 7 6 5 5 4 3 3 3 5 7 8 7 8 11 18 24 21 21 22 23 24 25 24 24 25 25 26 28 29
45 44 41 40 39 35 31 27 23 20 18 15 12 9 7 6 6 7 6 6 1 2 4 8 7 12 11 16 23 20 23 21 22 23 23 23 24 25 26 26 27 28 28
42 43 43 40 36 35 33 27 25 21 18 15 13 10 9 7 7 8 9 8 6 2 3 4 5 7 15 24 22 22 23 26 22 21 23 26 24 24 25 25 26 27 28
35 38 40 37 35 34 31 30 24 20 18 15 13 11 8 8 8 10 9 8 10 9 3 8 8 21 23 23 24 23 27 24 22 24 23 23 24 25 26 26 28 28 29
37 35 37 36 38 36 32 27 23 19 14 11 10 8 9 9 10 12 11 9 10 11 8 11 16 20 21 24 26 26 28 27 27 25 23 24 25 26 27 28 28 28 29
35 37 37 36 35 33 29 25 20 17 11 10 8 9 12 10 13 13 12 11 12 13 14 14 18 20 22 23 26 27 27 28 28 25 26 25 27 27 26 25 25 26 28
32 33 33 32 32 30 25 19 14 11 15 11 10 9 12 12 14 14 13 12 13 14 16 17 17 20 23 25 28 29 28 29 27 28 26 26 25 24 23 25 27 28 28
26 28 28 30 30 26 20 16 13 10 10 8 8 9 11 12 13 14 12 11 13 15 16 17 21 23 23 25 24 24 25 26 28 29 29 22 22 23 28 29 29 29 29
29 30 32 29 25 21 17 14 10 10 7 4 7 9 10 11 10 9 11 13 13 14 16 20 21 21 19 18 20 25 25 26 25 28 24 25 28 31 36 34 33 30 28
32 31 33 29 24 19 16 12 9 4 4 6 8 8 10 9 10 11 12 12 14 17 19 16 20 15 17 21 25 23 23 20 8 15 26 32 28 33 35 34 32 29 31
31 30 27 24 19 15 11 8 6 4 5 7 8 7 8 7 8 9 12 13 15 16 18 21 20 22 24 27 31 27 24 20 24 27 29 35 25 30 33 33 31 32 33
32 28 24 19 17 16 11 6 4 4 2 3 6 6 7 9 10 11 14 15 16 17 17 19 22 25 27 26 25 23 24 28 26 24 22 21 24 27 32 31 33 31 29
28 25 21 18 10 8 9 8 3 1 5 5 3 6 8 11 12 13 15 18 17 20 19 22 22 21 21 23 25 25 25 19 19 22 24 23 20 27 29 33 20 24 24
22 16 14 10 9 9 5 3 3 5 5 6 7 9 12 12 13 14 16 18 17 21 24 21 20 25 27 25 20 18 20 21 18 15 6 7 21 17 10 20 21 27 35

GFSMA_925_spd_024.txt.gz
Wind_Speed
19 20 18 16 14 12 11 10 8 5 3 1 1 2 4 7 8 9 10 9 11 11 9 9 9 9 8 7 7 7 8 9 9 9 9 10 11 11 11 11 11 11 10
22 21 20 18 16 14 12 10 9 6 4 3 2 3 5 7 8 8 8 8 8 9 9 9 9 9 8 7 6 6 8 8 7 8 9 9 10 10 10 10 10 11 11
24 23 22 20 18 17 15 13 10 7 5 4 4 6 7 8 9 9 9 8 8 8 10 9 9 8 7 7 6 6 7 6 6 7 7 9 9 10 10 10 11 11 11
28 26 25 22 20 19 18 15 11 9 7 5 6 7 8 9 11 11 9 8 7 7 7 6 6 7 7 6 6 6 5 4 4 6 7 8 8 9 10 11 12 12 12
30 29 27 26 24 22 20 17 14 10 8 7 8 8 8 9 11 11 10 8 7 7 5 3 3 3 3 6 7 6 4 3 4 6 7 8 8 10 11 12 12 13 13
31 30 27 28 27 25 23 19 16 12 9 10 11 8 7 10 13 12 10 9 9 8 5 2 1 2 4 5 6 6 5 5 5 7 8 8 9 10 13 13 14 15 15
33 31 30 30 30 30 27 22 17 13 12 14 13 8 7 8 10 11 11 10 10 9 7 5 3 4 6 8 9 7 5 5 6 8 9 9 11 12 14 15 16 17 17
36 35 33 32 33 32 28 24 22 17 8 19 7 7 2 2 7 9 12 13 13 11 8 6 5 7 8 8 7 5 3 5 7 9 10 11 13 15 16 18 19 20 20
39 38 38 36 38 36 32 29 26 22 15 21 13 6 2 4 3 7 12 14 15 13 9 7 7 7 8 7 5 4 4 6 8 11 13 14 16 17 19 21 22 23 22
40 40 41 40 40 38 37 33 30 25 20 18 17 14 5 5 3 1 8 14 16 15 11 8 7 7 6 5 4 4 7 9 12 14 16 17 20 21 22 23 23 23 22
42 42 42 43 44 42 40 36 32 29 25 21 16 12 9 6 5 3 3 6 17 16 15 11 8 7 6 6 7 8 9 12 15 17 19 21 22 23 24 24 24 23 24
43 41 42 45 46 44 42 39 34 30 28 23 22 19 16 8 7 4 2 3 6 7 14 13 11 9 9 7 7 10 16 15 18 19 20 21 23 23 22 22 23 24 24
42 43 43 45 46 45 41 38 34 31 27 23 25 20 17 14 11 13 5 2 3 3 5 10 11 10 10 10 10 16 21 19 18 20 21 21 22 21 22 22 23 24 25
46 46 45 44 44 43 39 34 32 29 26 22 21 16 14 12 11 9 7 8 1 2 3 9 9 11 12 13 15 20 20 19 20 20 21 21 22 23 23 22 23 23 24
36 41 43 42 41 39 37 35 32 28 25 22 13 14 9 8 8 8 7 8 6 3 2 4 5 6 10 15 21 19 18 21 20 19 21 23 23 22 23 23 24 25 25
34 36 38 41 39 36 36 35 31 27 25 22 20 12 13 9 8 8 7 8 9 8 3 7 6 11 18 21 20 20 21 22 22 22 21 23 22 22 23 24 25 26 27
30 31 34 35 36 36 34 33 32 27 23 21 19 13 11 10 10 10 8 7 10 11 8 10 13 17 20 21 22 22 23 25 26 24 22 22 22 22 23 25 25 26 28
26 28 29 30 32 33 34 32 29 26 21 17 14 13 9 10 9 9 8 10 10 12 12 11 18 19 19 21 22 24 25 26 26 26 23 23 23 24 23 23 24 25 27
22 24 26 28 31 33 34 31 28 22 17 12 8 7 6 10 10 10 11 11 12 12 14 15 16 18 20 21 24 24 25 28 27 26 25 24 20 21 21 22 25 27 29
23 23 24 25 24 25 32 30 24 17 13 9 6 4 5 11 8 9 11 13 12 12 14 17 19 21 21 21 22 23 23 24 27 28 28 18 19 22 25 28 29 29 28
24 26 27 25 25 27 15 22 19 16 11 7 2 4 6 9 11 8 10 10 12 14 14 17 20 19 19 19 19 23 25 24 25 26 25 23 26 32 34 31 29 26 25
26 25 25 29 29 26 18 16 14 13 10 5 2 7 10 8 9 8 9 10 11 12 16 17 19 16 17 21 23 23 22 18 9 20 18 29 27 32 33 31 28 27 29
27 29 30 29 27 25 19 15 11 9 4 3 4 6 4 4 6 8 10 11 12 13 15 18 19 20 22 25 28 29 23 19 20 28 30 29 23 31 33 32 31 32 31
28 30 29 27 27 23 18 11 7 11 6 2 4 3 3 6 8 10 11 13 13 15 15 17 20 23 25 24 22 21 22 25 25 27 26 16 24 27 32 33 34 28 25
26 26 25 22 23 16 11 11 11 9 8 2 2 4 6 10 11 11 14 15 15 16 17 21 20 18 17 21 23 24 25 20 18 18 21 20 23 26 27 33 19 23 24
25 23 20 17 15 14 9 6 8 5 2 2 5 7 9 9 11 11 14 15 15 20 21 17 17 22 24 23 19 17 19 21 16 12 8 7 24 18 10 23 24 28 34

GFSMA_925_spd_027.txt.gz
Wind_Speed
20 20 21 19 16 14 13 12 10 8 5 3 3 3 5 7 9 10 8 9 10 10 9 9 9 9 9 8 8 8 8 8 9 9 10 10 11 11 11 11 11 12 12
21 22 22 21 18 16 15 13 12 10 7 5 4 5 7 9 10 11 11 8 8 9 9 8 8 8 8 7 6 6 6 7 7 7 8 9 9 10 10 10 11 12 11
24 23 23 23 20 18 16 16 14 11 9 7 7 7 9 10 11 11 11 11 10 10 10 8 8 7 7 6 5 4 4 4 4 5 6 7 7 7 8 10 11 11 11
28 26 25 24 22 20 20 18 16 13 11 9 9 9 10 11 12 12 12 12 11 12 9 8 7 7 6 5 4 3 2 2 2 3 5 6 6 7 8 9 10 10 11
31 30 28 26 24 23 22 20 18 14 12 11 11 11 12 13 13 13 12 12 11 11 9 7 6 5 3 3 5 4 2 2 3 3 4 5 6 7 8 9 10 10 11
31 32 31 30 28 27 25 24 20 15 13 12 11 10 10 13 15 14 13 12 12 11 10 8 6 4 3 3 3 4 3 3 3 4 6 6 7 8 9 10 11 12 13
34 33 35 33 32 32 30 27 22 17 14 16 13 6 6 10 14 15 15 14 14 13 11 9 7 6 5 6 7 6 3 3 4 6 7 7 9 10 12 13 13 14 15
39 36 37 37 36 35 33 30 26 20 13 22 8 6 3 4 11 15 16 16 16 15 13 11 9 8 7 6 6 5 3 2 5 7 8 9 11 13 14 15 17 18 18
41 39 40 41 39 37 37 35 33 29 20 26 17 6 3 4 4 10 16 18 19 18 16 13 11 9 8 6 5 4 3 4 6 8 11 12 14 16 17 19 19 20 20
42 41 41 43 43 41 42 41 38 35 29 24 23 19 7 5 3 3 8 15 18 18 17 15 12 10 8 6 5 5 6 7 8 10 13 16 18 19 20 20 21 21 21
41 43 44 45 46 45 45 45 44 42 35 31 30 16 15 10 8 3 3 7 14 17 18 16 13 11 10 8 7 6 7 8 10 14 17 18 19 20 21 21 21 21 21
38 42 44 46 47 47 47 47 45 43 40 32 32 26 21 8 9 5 2 3 8 11 19 19 16 14 13 10 7 7 9 13 15 15 17 19 19 19 20 21 21 21 22
35 43 45 45 47 50 48 48 46 42 40 34 30 26 19 13 6 13 5 3 2 3 5 13 16 16 14 12 8 8 13 18 16 17 19 19 19 19 19 20 22 22 22
35 33 42 44 44 44 46 47 44 39 37 33 25 24 21 15 10 10 5 6 1 3 4 5 12 15 15 13 9 13 20 19 18 17 19 18 20 21 21 21 21 23 22
31 31 34 38 39 42 43 43 40 39 36 31 26 24 21 20 15 15 8 10 5 3 4 5 6 11 14 14 13 15 16 17 16 17 19 21 20 22 23 22 22 23 24
26 27 27 31 33 32 35 36 34 36 33 29 27 25 19 16 14 9 12 8 6 5 2 6 7 8 9 14 16 14 16 19 19 19 21 21 20 21 22 23 23 24 26
21 23 23 25 27 25 27 31 32 31 31 28 25 22 16 12 11 8 6 4 4 8 5 6 9 12 15 17 18 17 18 20 19 22 22 21 20 20 22 24 25 26 26
17 19 21 21 21 23 26 28 30 30 31 28 22 15 13 13 7 6 4 5 7 10 6 10 10 13 17 17 18 19 20 20 19 23 23 21 21 22 23 22 23 25 25
15 16 18 19 20 21 22 21 23 24 23 21 18 12 8 7 6 4 3 2 4 12 15 10 10 11 13 18 16 17 19 19 20 23 21 20 19 17 19 22 25 26 27
14 15 17 19 21 24 25 26 27 25 20 17 13 13 11 6 4 4 6 7 9 14 11 10 11 13 12 14 14 16 17 19 23 21 21 17 17 19 24 26 26 27 27
16 19 22 23 24 25 25 29 30 26 21 18 13 8 8 6 5 4 6 6 7 10 11 11 12 12 14 14 16 18 20 22 21 22 17 15 17 21 25 25 25 23 24
19 20 22 25 26 29 29 26 24 22 18 16 12 6 4 2 4 5 7 7 7 11 13 10 10 14 18 17 17 18 19 21 14 12 12 24 21 27 25 23 25 26 27
21 22 23 25 26 24 22 21 20 19 14 10 7 3 4 3 2 1 2 5 6 10 13 14 15 17 18 17 19 19 19 18 20 25 24 28 24 28 24 26 26 28 29
24 25 27 27 26 24 19 19 19 17 14 10 7 6 2 1 2 3 5 7 9 12 13 14 14 18 18 18 16 15 19 23 25 23 19 17 22 24 23 26 28 28 25
27 27 28 26 25 21 17 17 17 16 13 10 7 5 2 5 5 4 6 8 10 13 15 16 15 15 14 17 19 19 17 17 18 18 19 18 19 23 26 30 22 21 23
27 26 25 21 20 19 13 15 14 12 9 7 5 1 2 4 5 5 6 6 8 12 13 13 14 19 20 18 15 11 12 15 15 13 5 7 19 19 9 18 17 23 26

GFSMA_925_spd_030.txt.gz
Wind_Speed
17 16 15 15 14 12 11 10 8 8 6 5 5 5 5 6 7 7 7 12 9 8 8 8 8 8 8 8 7 7 7 7 8 8 8 8 9 9 10 10 10 10 10
17 17 16 17 16 14 12 11 10 9 7 5 5 5 6 7 7 8 7 7 9 9 9 8 8 7 7 5 4 4 4 5 6 6 7 7 7 8 8 9 9 9 9
18 18 17 18 22 15 14 12 11 9 7 6 6 6 7 7 8 8 9 8 8 10 9 9 7 6 6 5 2 2 2 2 3 4 5 5 6 6 7 8 9 9 9
22 20 19 18 19 17 16 15 13 11 10 8 8 7 8 8 9 9 9 9 9 9 9 9 8 7 5 4 2 1 1 1 1 2 4 4 5 6 6 8 8 8 9
24 24 22 20 20 19 18 16 15 14 12 10 8 8 8 10 11 11 11 11 11 10 9 11 11 8 6 3 3 2 0 2 2 2 4 4 5 6 6 8 8 9 10
26 26 24 22 22 21 19 18 16 14 12 11 9 8 8 10 11 11 12 11 11 11 10 9 9 7 8 6 5 4 2 3 4 4 5 6 7 8 8 10 10 11 12
26 27 27 24 25 25 22 21 19 17 13 13 10 7 7 9 12 13 13 13 13 12 11 10 9 7 6 8 7 7 4 3 4 5 6 7 8 10 11 12 13 14 15
29 30 30 28 28 25 25 24 22 18 14 18 11 9 4 7 13 16 15 15 14 13 12 11 10 8 7 5 7 8 7 5 4 5 7 8 10 12 13 14 16 17 18
30 31 31 31 30 29 30 30 28 24 18 19 18 7 4 6 11 13 17 16 15 15 13 12 11 9 8 6 6 5 9 9 6 7 9 11 12 14 16 18 18 19 19
32 29 29 30 30 32 30 34 35 35 25 20 18 19 9 3 4 4 12 17 17 17 16 14 12 10 8 7 8 9 9 9 7 9 11 14 16 17 18 20 20 21 20
35 33 33 31 32 32 33 31 34 32 35 25 25 13 15 9 7 4 3 9 16 17 16 16 13 12 11 9 7 8 10 9 7 11 14 16 18 19 19 20 20 21 21
26 29 31 31 33 32 34 37 37 37 35 26 31 29 20 11 11 7 3 7 11 15 18 16 14 13 11 10 10 12 10 11 12 14 16 18 19 19 20 20 21 21 22
25 28 31 30 32 32 32 31 37 40 38 31 30 31 26 20 13 16 10 4 4 6 10 14 14 12 11 10 9 10 10 13 15 16 18 19 19 19 20 21 22 23 23
20 20 23 29 32 29 28 27 29 33 40 42 40 38 35 26 20 19 15 11 2 7 7 4 11 12 9 9 9 11 9 14 18 18 18 20 20 21 22 22 23 23 24
24 21 19 21 25 26 25 26 26 27 27 29 31 36 31 27 20 16 13 12 5 4 4 7 5 8 8 7 8 9 14 16 17 20 20 21 22 23 23 23 24 24 24
16 16 17 18 20 23 23 23 21 21 23 22 20 24 25 21 16 13 11 5 3 5 2 3 2 3 4 6 10 14 14 18 20 19 21 21 23 24 24 24 24 25 25
12 12 13 14 16 18 22 24 21 18 20 22 21 20 11 12 17 12 11 9 7 4 5 3 4 5 8 11 17 16 16 18 20 19 21 22 23 25 24 24 25 25 26
8 10 10 12 13 15 17 20 23 23 20 18 14 18 22 17 11 14 12 7 7 4 5 4 10 13 13 15 13 14 16 17 21 21 23 24 24 24 24 26 24 23 24
6 7 7 7 9 11 14 15 16 20 23 23 23 21 18 16 14 6 8 9 9 7 7 6 7 8 9 13 15 14 16 18 20 20 23 24 23 23 22 23 23 25 26
3 4 4 6 7 9 13 18 20 21 23 25 22 19 16 13 11 11 10 8 7 6 7 8 11 11 12 11 11 14 16 16 21 21 24 23 21 20 23 24 25 26 27
7 8 9 10 11 11 14 18 22 26 27 24 20 17 14 11 10 9 7 6 5 5 8 9 12 12 13 12 12 15 18 19 20 21 22 18 18 21 22 23 24 25 24
11 11 12 13 13 13 14 17 24 26 24 23 21 16 13 9 7 4 3 5 9 10 10 10 12 13 14 14 14 16 18 20 16 18 17 24 23 26 25 24 26 26 27
15 17 18 20 22 21 18 18 20 20 19 16 14 11 8 5 4 7 5 5 6 9 10 11 15 15 16 15 14 16 18 17 20 23 24 26 25 28 24 26 27 28 29
19 22 25 24 23 19 18 18 18 17 15 13 9 8 7 5 4 2 2 4 6 8 9 9 13 15 15 15 15 16 18 21 23 23 20 22 24 25 25 28 28 30 30
23 26 25 24 23 19 17 15 15 13 13 10 7 6 4 2 0 3 6 4 6 9 8 10 13 15 15 15 17 18 18 17 18 22 20 20 20 21 26 31 30 23 24
25 25 23 21 16 17 13 15 12 10 8 6 5 2 1 0 1 3 4 4 8 10 12 12 12 13 14 14 13 13 14 15 15 13 4 7 16 18 8 17 14 21 24

GFSMA_925_spd_033.txt.gz
Wind_Speed
17 17 17 16 16 14 12 11 10 9 8 6 5 4 4 4 5 5 6 10 10 7 7 7 7 7 8 8 7 8 8 8 8 8 9 9 10 10 10 11 11 10 10
18 16 18 17 16 16 14 13 12 11 10 8 7 6 6 6 6 6 6 9 9 8 8 8 7 7 6 6 6 6 6 6 6 7 8 8 8 9 9 10 10 10 10
20 19 18 21 19 15 15 14 13 11 11 10 9 8 7 8 8 8 8 8 9 11 9 9 9 7 7 6 4 3 3 3 4 4 5 5 6 6 7 8 8 9 9
22 21 21 21 24 18 19 15 14 13 12 11 10 10 10 9 10 10 10 9 10 9 12 11 8 8 6 4 3 3 3 1 1 2 3 3 3 4 5 6 7 7 8
22 23 22 20 22 22 22 18 18 17 15 13 12 10 10 10 11 11 11 12 12 11 10 13 12 11 8 5 4 3 3 3 2 1 3 4 4 5 5 6 7 8 9
25 26 24 22 22 25 24 21 20 19 17 15 12 10 10 10 12 13 13 13 13 14 12 11 15 11 11 10 7 6 4 4 4 3 3 5 6 7 7 8 9 10 10
25 27 26 25 25 25 26 24 23 22 19 16 12 9 8 11 13 15 15 16 16 16 15 14 11 11 10 11 10 9 6 4 4 3 4 6 7 9 11 11 12 12 13
28 29 30 29 29 28 28 27 27 21 20 23 13 12 4 8 15 18 18 18 18 18 17 16 15 14 12 7 9 8 8 6 4 3 4 6 8 10 12 14 15 16 17
30 29 29 30 29 28 29 30 29 27 23 23 22 9 4 5 9 16 20 19 19 20 19 18 17 15 14 11 12 9 10 10 8 4 5 8 10 12 14 16 18 18 19
28 31 30 33 33 31 30 31 32 32 25 22 22 25 10 4 3 3 14 20 20 21 20 19 18 16 15 13 11 12 10 9 7 5 6 9 12 14 16 18 19 20 19
25 28 30 30 33 32 31 30 30 34 32 26 27 16 17 13 10 3 3 9 20 23 22 21 18 16 14 12 11 12 12 10 7 6 8 11 14 15 17 19 20 20 21
20 25 28 32 31 33 31 32 32 32 34 30 29 26 25 13 11 8 3 7 11 18 22 20 18 17 14 12 11 13 11 10 10 8 9 12 14 16 17 18 19 20 21
23 25 26 28 33 30 31 29 30 33 35 34 31 31 30 23 12 19 12 3 3 5 10 17 17 15 13 14 12 14 12 10 12 11 12 15 15 15 16 17 19 21 22
20 20 24 25 28 32 32 29 29 28 27 30 30 25 25 25 22 15 9 5 2 2 2 7 16 13 13 13 12 12 10 8 11 13 15 16 16 17 17 19 20 21 23
15 18 21 22 23 26 29 31 31 27 25 24 24 22 20 22 21 18 16 10 5 4 5 9 5 12 11 8 9 8 8 12 14 17 18 19 19 18 18 20 21 22 23
11 12 16 19 19 19 22 25 26 25 23 21 22 22 21 18 19 17 15 12 7 4 1 3 4 12 15 13 9 12 15 15 16 17 18 20 21 21 20 21 22 23 23
9 9 10 12 12 13 14 17 18 19 19 21 20 23 21 19 16 13 14 19 15 9 4 2 8 11 10 12 16 17 19 20 17 18 19 22 24 24 25 24 23 23 24
7 6 7 8 7 8 13 12 13 14 19 17 18 18 18 19 16 16 14 11 11 11 7 9 10 9 8 12 15 15 16 16 18 18 19 22 24 25 26 24 23 23 24
5 3 3 2 6 5 7 8 10 11 13 15 16 18 18 18 19 16 15 13 9 9 8 5 3 4 7 9 10 13 15 16 15 16 18 21 22 24 25 23 21 23 24
5 3 5 4 2 3 6 8 8 9 8 11 13 16 18 18 18 19 12 11 9 7 6 4 4 6 8 9 12 11 13 13 14 17 19 22 23 22 21 21 22 24 25
9 8 8 6 4 5 6 8 9 11 14 16 16 15 14 13 11 10 12 10 9 6 4 5 7 9 8 9 9 9 13 15 16 19 21 18 21 19 22 23 24 24 23
16 14 11 9 9 10 7 8 10 15 18 18 17 14 14 12 12 9 7 6 6 8 8 7 6 8 8 9 11 10 10 12 11 14 12 23 22 23 25 25 25 24 25
18 19 19 18 18 16 14 15 15 18 18 16 14 10 8 6 5 6 4 5 6 6 8 7 10 10 11 10 9 14 14 15 17 20 20 27 23 24 25 25 24 25 26
20 22 23 25 24 19 17 16 15 16 16 13 10 8 6 4 3 3 3 2 3 5 6 6 9 11 11 11 11 13 15 17 20 20 17 22 22 24 27 26 25 27 27
20 21 19 18 18 18 16 14 14 15 12 10 7 7 6 4 0 0 2 3 5 5 5 7 10 13 14 13 13 14 16 14 16 17 18 18 15 20 24 30 22 18 19
21 18 18 16 14 14 13 13 13 12 8 6 4 2 2 2 2 2 4 5 5 5 7 10 10 10 11 12 11 13 15 14 13 11 2 6 12 14 8 17 16 24 32

GFSMA_925_spd_036.txt.gz
Wind_Speed
22 19 19 15 14 16 11 14 10 11 11 8 8 8 7 7 7 9 9 13 13 9 8 8 7 8 9 8 9 9 9 9 8 9 10 10 10 10 10 10 11 11 11
24 21 21 22 20 20 17 16 14 14 11 12 11 9 9 9 9 8 9 12 14 10 9 10 9 9 8 8 8 8 8 8 7 8 8 8 8 8 9 9 10 10 10
18 18 21 24 23 20 19 17 16 16 16 16 13 13 12 12 13 11 11 10 15 13 11 11 11 10 9 8 7 6 6 6 6 6 6 6 6 7 8 8 9 9 9
25 22 23 22 24 23 20 22 20 19 18 18 17 16 16 15 15 16 11 12 11 16 15 14 13 11 10 8 6 6 6 5 3 2 3 4 4 5 5 6 7 8 9
26 27 24 24 25 28 27 25 22 23 21 20 18 17 17 16 17 16 18 13 11 14 17 19 17 16 12 9 8 7 7 5 3 3 1 1 2 2 4 5 6 7 8
29 29 30 26 26 29 31 28 27 24 24 23 19 16 17 16 16 19 19 20 17 17 16 19 21 19 15 13 11 9 7 6 5 4 3 0 1 2 3 4 6 7 8
28 31 31 32 26 31 33 31 30 25 26 23 19 13 13 18 18 20 21 20 23 22 17 19 18 21 18 17 14 12 10 8 7 6 4 2 2 3 4 6 7 8 9
25 29 31 31 33 30 32 32 32 28 29 27 16 11 2 8 22 23 22 23 25 25 26 20 20 18 17 17 17 16 13 10 9 7 5 4 3 4 6 7 9 10 11
32 24 29 32 33 31 28 34 34 34 28 30 29 11 3 5 5 19 29 27 26 27 27 27 24 22 20 18 16 15 14 14 12 8 6 5 4 6 8 9 10 12 12
26 29 36 25 33 35 34 34 36 39 30 29 32 31 12 8 4 2 16 28 27 26 28 28 27 25 23 22 19 18 15 14 12 9 6 5 6 7 9 11 12 12 13
23 25 24 28 25 32 34 32 34 36 42 32 33 28 32 18 11 3 3 9 26 29 27 29 28 28 25 23 20 18 17 15 13 10 6 6 7 9 11 12 13 14 15
21 22 23 23 27 29 31 31 32 34 37 34 34 30 27 17 14 8 2 3 10 18 28 25 25 26 24 22 20 19 18 15 14 10 7 7 9 10 11 13 13 15 16
17 20 21 24 24 26 30 30 31 32 31 39 35 35 34 28 19 24 8 3 3 4 12 19 18 19 20 19 19 17 15 15 14 11 9 9 12 13 13 13 14 16 17
16 15 17 19 23 23 25 29 33 32 30 35 35 29 30 32 29 23 23 14 1 2 4 8 17 17 16 14 13 14 14 14 11 9 10 12 13 15 15 14 15 16 18
6 8 11 11 16 19 20 21 26 30 31 33 34 31 26 25 28 25 23 21 10 3 2 8 9 20 15 14 15 12 12 15 10 13 14 16 16 15 16 16 17 17 18
8 6 10 11 14 14 13 16 19 21 24 24 24 25 27 25 24 24 24 21 18 6 3 4 8 15 23 22 19 20 19 24 22 19 17 18 16 17 17 18 20 20 20
5 7 8 6 7 9 10 12 13 13 11 14 17 20 23 22 20 17 16 16 15 14 6 6 14 19 22 21 20 21 22 24 22 19 17 18 17 18 19 20 21 22 21
8 6 6 6 6 7 7 7 10 9 9 11 12 13 14 14 15 15 16 16 17 16 7 6 13 18 18 15 17 18 18 16 17 19 17 15 16 18 20 20 21 21 21
7 5 3 4 4 4 5 5 5 5 5 8 10 11 12 13 14 12 13 15 16 16 11 9 7 10 9 10 12 12 15 14 11 10 12 13 16 20 21 20 19 20 20
8 6 6 5 5 3 1 2 3 1 1 4 6 8 10 12 13 15 13 14 12 11 12 10 6 7 8 7 8 12 12 9 9 13 15 16 20 18 18 17 18 19 20
12 10 10 10 10 10 9 8 5 5 5 7 7 8 8 8 8 10 13 11 11 11 10 9 6 4 4 6 9 5 10 8 10 16 20 19 16 19 21 21 21 22 19
16 16 17 17 18 16 13 9 6 9 10 11 13 11 11 12 10 7 5 6 4 4 6 4 3 3 5 3 8 5 4 9 5 10 11 28 23 24 23 23 21 19 20
17 21 21 21 20 16 14 13 10 12 13 12 11 10 9 7 6 6 4 1 1 1 1 3 4 3 4 4 6 10 13 14 16 21 20 26 21 25 24 25 22 21 20
19 19 18 19 19 16 14 12 11 13 12 10 8 7 6 4 4 3 3 1 1 2 3 4 5 6 7 8 9 10 12 14 17 21 17 15 17 27 23 22 24 21 18
18 18 17 18 18 15 13 11 10 10 9 8 7 7 7 6 3 1 1 3 2 2 2 3 6 8 10 10 10 11 14 14 13 12 20 18 11 17 26 25 11 11 14
17 16 16 15 12 13 12 12 12 11 9 7 5 5 5 3 3 2 3 4 1 3 5 9 9 10 11 11 10 11 13 14 14 9 2 10 11 15 10 12 12 26 26

GFSMA_925_spd_039.txt.gz
Wind_Speed
20 22 18 16 13 14 13 12 11 10 12 12 13 11 10 10 10 13 13 14 14 13 11 10 9 10 10 11 12 10 10 9 9 10 10 10 10 10 11 11 11 11 11
21 25 21 19 17 16 15 15 16 14 15 14 14 13 12 12 13 14 14 14 14 15 12 12 12 12 11 11 11 11 10 9 9 9 9 9 9 9 10 10 10 10 10
25 27 26 24 23 20 19 19 18 18 17 17 17 16 15 15 15 14 15 15 15 16 15 14 14 14 12 11 11 11 11 10 9 8 8 8 8 7 7 7 8 7 8
26 23 27 28 25 25 25 26 21 22 20 21 20 18 17 17 17 17 17 16 16 17 17 17 17 16 15 13 12 11 11 11 9 8 7 7 6 6 5 5 4 5 4
26 28 26 26 26 27 29 27 26 25 25 24 22 19 20 20 20 21 20 19 19 17 19 20 21 18 17 15 13 13 13 12 10 9 7 6 5 5 3 3 2 2 2
27 31 33 33 29 28 31 33 31 29 27 27 23 21 21 22 22 23 23 23 22 20 19 23 25 23 22 16 15 14 14 12 10 10 9 8 6 5 3 2 2 1 2
29 31 34 35 34 33 34 36 35 30 29 26 19 18 19 23 24 26 25 25 25 24 24 24 25 26 25 19 17 15 13 12 12 11 10 8 7 6 4 4 4 4 5
27 25 30 35 34 35 35 36 36 32 33 28 15 4 2 10 26 29 28 29 30 29 28 28 26 26 26 25 21 18 15 13 13 12 11 9 7 6 5 5 5 7 8
26 29 32 30 33 36 37 38 36 36 30 34 33 15 2 6 2 18 35 31 32 32 33 31 29 27 25 25 22 21 19 14 13 12 10 9 7 6 6 7 7 8 9
24 22 23 25 32 29 34 37 35 38 33 26 32 38 28 5 4 2 11 32 31 33 35 34 33 30 28 26 24 21 18 17 14 12 10 9 7 7 8 9 9 10 11
25 24 23 24 24 20 29 29 31 35 38 31 30 24 32 19 10 3 4 6 30 33 34 35 36 33 30 27 25 22 19 16 12 11 9 8 7 8 10 10 11 11 12
17 25 24 23 20 20 20 24 26 29 34 37 31 33 28 18 19 9 3 5 8 17 33 33 36 36 32 30 27 23 19 16 11 9 8 7 7 9 12 12 14 14 13
11 11 14 15 16 20 18 20 22 24 28 33 34 35 37 32 22 23 12 3 3 5 5 21 27 31 30 27 25 23 19 15 12 8 7 9 9 11 13 14 16 16 15
11 7 9 16 16 19 17 19 20 22 23 26 31 31 32 31 35 30 21 13 1 0 1 3 11 17 23 21 18 16 14 16 17 16 13 12 13 13 15 17 17 17 17
6 5 6 7 10 11 13 15 15 16 18 20 25 28 32 33 30 33 30 27 19 5 5 9 7 18 22 20 23 20 24 23 21 17 18 19 21 19 17 17 17 17 18
5 1 3 6 7 9 10 13 12 13 13 13 17 20 24 25 20 20 23 20 20 14 4 17 17 21 24 25 26 25 25 20 20 18 17 19 19 17 17 18 18 20 20
6 4 5 6 4 6 7 8 10 10 12 11 12 14 15 16 16 18 18 15 14 15 8 12 19 19 26 29 26 22 19 20 20 19 19 19 15 17 17 18 18 19 19
6 6 5 2 3 3 4 6 8 8 6 6 8 11 11 10 9 10 9 10 12 15 10 7 15 17 18 20 19 18 17 18 20 16 13 14 15 14 15 16 18 19 18
7 6 5 5 5 5 4 4 7 5 4 4 5 6 5 4 6 7 7 9 9 12 8 4 4 11 15 13 15 16 16 15 13 11 9 10 12 13 16 17 16 16 16
7 8 9 8 8 7 5 3 1 1 2 3 2 4 4 3 4 5 6 7 6 5 4 6 4 8 7 7 11 10 9 9 10 8 8 13 13 16 15 14 14 16 16
12 11 11 13 12 10 9 6 5 6 7 8 9 9 8 5 3 1 4 6 6 5 4 4 2 2 2 4 7 4 8 8 9 9 14 13 11 16 15 12 13 15 15
14 16 18 17 16 15 12 9 8 11 11 13 14 12 11 11 9 5 2 2 1 1 1 1 1 2 4 5 5 7 5 3 3 4 8 23 17 17 13 13 13 13 14
17 19 19 18 18 16 14 12 11 13 13 12 10 8 7 6 5 8 6 4 3 1 2 5 3 4 3 3 3 5 6 7 10 13 13 17 16 19 13 15 12 13 14
17 18 18 18 18 16 14 12 11 11 10 9 7 7 7 5 4 4 4 2 0 2 4 4 5 5 5 7 9 10 10 11 14 17 11 7 9 19 15 19 18 14 9
15 16 15 14 15 15 12 12 9 8 8 9 9 8 6 5 4 2 2 2 2 1 2 2 3 5 7 8 8 9 11 12 11 4 11 9 6 17 25 15 1 3 7
13 13 14 14 12 13 9 9 10 9 8 6 6 5 5 4 4 3 4 3 1 3 6 10 11 8 8 8 6 9 11 11 9 6 4 6 7 10 10 8 6 15 19

GFSMA_925_spd_042.txt.gz
Wind_Speed
19 18 17 17 16 16 17 17 15 13 13 13 12 12 12 12 12 13 14 15 13 12 11 10 10 9 9 9 9 10 10 9 9 10 10 10 10 9 9 9 9 10 10
22 21 23 24 21 20 17 17 16 15 13 14 15 15 15 15 15 15 16 17 17 15 14 13 11 11 11 11 11 11 10 10 10 10 10 9 9 9 9 9 8 9 9
23 24 25 28 26 23 20 19 19 19 18 17 19 17 17 17 19 19 19 21 20 18 17 15 14 14 13 12 12 12 12 11 10 10 10 9 9 9 8 8 7 7 7
26 27 27 31 29 26 25 24 24 23 26 21 21 21 21 20 21 22 21 22 22 20 19 18 18 17 16 15 14 13 13 12 11 10 10 9 8 8 7 6 6 5 4
25 27 30 31 30 30 29 28 27 28 27 27 24 24 24 23 22 23 25 24 24 23 22 21 22 22 21 18 17 16 15 13 12 10 9 9 8 7 6 6 4 3 2
30 29 32 31 30 31 33 33 33 33 31 31 27 26 26 25 23 26 28 28 28 27 25 23 25 26 25 21 19 17 17 15 13 12 11 9 8 7 6 5 4 3 2
28 27 28 33 33 33 34 35 35 36 33 33 19 23 25 26 27 30 29 30 31 31 29 27 26 29 29 28 20 19 18 17 15 13 12 10 9 8 7 6 5 5 4
27 28 28 29 31 35 35 35 34 33 33 33 15 3 2 10 29 35 34 34 35 33 34 32 29 30 31 30 27 22 19 18 16 15 13 12 10 9 8 7 6 6 7
25 26 27 28 30 30 33 36 38 37 26 28 30 12 1 5 2 13 34 37 37 36 36 36 34 32 30 30 29 27 23 18 16 16 15 13 11 10 9 8 8 7 8
20 21 23 23 23 24 29 30 31 33 31 26 24 35 26 8 4 4 9 20 36 33 36 36 36 35 33 30 28 27 24 21 16 16 15 13 11 11 9 8 10 8 9
15 19 20 23 23 24 22 18 22 27 30 30 30 19 34 23 12 5 4 5 11 32 35 35 37 36 35 31 27 25 22 18 14 14 13 13 10 10 9 10 11 9 9
13 12 15 22 25 22 18 18 14 15 20 27 26 27 23 9 14 7 2 4 5 12 23 30 30 33 34 30 26 22 22 20 15 13 12 11 10 8 8 10 11 12 12
11 10 10 11 15 15 13 12 14 15 15 18 22 28 31 31 27 18 13 8 5 6 5 16 26 29 31 28 25 26 27 20 13 10 9 9 9 10 12 15 14 17 17
8 6 7 8 7 8 10 15 15 14 14 15 18 20 26 29 28 28 24 13 3 6 9 14 15 23 27 28 28 29 27 25 22 20 19 23 20 21 18 14 17 18 18
6 4 2 4 7 9 10 10 9 11 13 14 15 16 20 22 23 26 27 23 11 3 3 10 10 14 19 23 31 31 33 29 26 28 26 20 23 18 18 19 17 17 17
5 2 0 3 5 5 4 5 5 7 8 9 9 11 14 16 19 19 19 20 20 14 4 9 14 13 19 24 26 29 29 26 26 22 21 22 20 20 19 19 17 17 19
4 4 4 4 4 3 4 4 5 6 7 7 7 8 8 10 10 11 10 10 12 13 7 6 17 16 19 22 21 23 23 21 22 21 18 19 19 20 18 18 18 18 19
6 4 3 3 4 4 4 4 5 6 7 7 7 7 7 8 7 8 7 6 7 7 8 3 8 12 13 17 21 19 18 19 19 18 17 19 16 16 18 16 16 16 18
3 4 4 5 6 7 6 5 6 4 4 5 6 7 6 6 4 3 3 4 6 5 6 2 2 5 9 12 16 15 15 16 14 15 12 15 13 12 14 15 17 16 15
7 8 8 8 8 8 6 5 3 4 4 4 5 4 4 4 3 2 2 2 2 1 1 1 1 0 2 5 8 7 6 6 10 9 9 9 11 13 16 17 16 15 16
11 11 12 13 12 11 10 7 7 8 9 10 11 11 11 9 6 5 4 5 4 4 4 5 2 1 2 2 1 2 5 6 7 8 10 13 16 15 18 18 17 15 15
13 14 16 15 15 15 13 11 11 12 11 11 11 11 10 8 9 8 7 6 4 4 4 3 2 2 2 1 2 2 3 2 2 3 7 16 20 21 14 15 14 14 13
13 16 16 16 17 16 14 13 11 11 10 10 9 9 8 7 5 4 5 4 4 4 4 2 2 2 2 1 1 2 4 5 7 12 13 17 17 19 11 12 12 12 12
15 15 15 14 15 13 11 10 9 8 8 9 9 9 8 7 7 7 6 5 4 4 4 3 3 3 4 5 7 8 8 10 11 15 11 7 9 16 13 18 17 16 15
15 15 13 13 12 11 10 9 8 7 8 8 8 9 7 7 6 4 5 4 3 3 1 1 1 3 5 7 8 9 10 9 7 3 5 10 7 15 23 12 1 5 6
12 12 13 12 10 10 7 7 7 6 6 6 5 4 5 6 5 4 6 5 4 4 6 8 10 11 11 10 9 10 11 9 6 5 1 3 5 10 10 7 5 7 15

GFSMA_925_spd_045.txt.gz
Wind_Speed
14 15 15 15 15 14 15 15 15 15 15 15 15 14 14 14 13 13 14 14 13 14 11 9 9 8 8 8 8 8 7 6 7 7 6 6 6 7 7 8 9 9 9
15 18 18 18 18 17 16 16 17 18 17 15 15 16 16 17 16 14 15 16 17 16 15 12 11 11 10 10 10 9 9 8 7 7 6 6 5 6 7 7 8 8 8
20 20 21 22 22 22 21 21 20 20 20 19 20 18 18 18 19 19 18 18 19 19 19 15 14 13 13 12 12 12 11 10 9 8 7 6 5 5 5 6 6 7 7
22 24 25 27 25 26 27 26 25 25 25 25 25 23 22 19 20 21 21 20 21 22 22 21 18 17 16 15 15 14 13 12 11 10 9 8 7 6 5 4 4 4 4
25 27 28 29 28 27 29 30 30 28 29 30 28 28 26 25 23 23 24 23 24 25 26 24 22 21 20 18 16 16 15 14 12 11 10 9 9 7 6 5 4 3 2
27 28 29 29 31 30 30 31 33 33 32 33 32 31 30 29 27 28 28 26 27 28 28 28 25 24 25 23 20 18 17 16 14 13 11 10 10 9 7 6 5 4 3
25 25 26 28 30 32 32 32 32 33 34 33 27 25 29 28 28 30 30 30 32 32 32 31 29 27 26 27 24 21 19 18 17 15 13 11 10 9 9 8 6 5 5
27 26 26 28 27 28 29 31 32 29 30 27 11 5 3 9 24 33 34 35 36 34 34 34 32 30 28 30 30 27 21 20 19 17 15 14 12 11 10 8 7 6 6
23 24 24 25 24 23 25 27 28 29 23 18 20 11 2 4 3 9 18 24 33 35 33 32 33 32 31 31 31 31 27 21 19 18 17 16 14 12 10 9 8 7 7
17 18 20 21 22 22 22 22 22 24 24 19 18 24 27 13 3 4 5 9 12 21 29 32 30 30 34 34 33 31 30 27 22 17 17 17 15 13 11 10 8 7 7
17 19 17 21 22 23 22 22 18 17 18 20 18 15 15 19 13 3 8 4 10 10 13 22 28 29 30 38 36 31 29 23 14 17 16 16 14 13 11 11 9 6 4
10 12 15 15 18 21 22 19 16 13 13 12 16 16 18 9 7 10 6 9 10 18 23 25 28 30 31 33 36 35 32 30 24 18 17 18 15 12 9 5 6 7 7
10 11 10 10 9 11 13 12 12 11 11 12 15 18 18 19 20 18 14 9 4 5 8 15 18 23 28 30 33 33 35 30 27 25 22 21 19 14 13 13 13 15 16
9 8 5 3 2 2 4 6 8 6 8 9 10 13 16 15 15 19 15 7 3 5 5 13 15 19 24 27 27 33 33 30 26 21 17 16 22 22 21 19 19 18 17
5 5 4 3 3 4 4 4 3 3 3 3 5 8 9 11 12 12 15 18 9 3 2 6 7 12 18 21 25 25 31 28 26 26 25 25 19 21 22 18 18 17 16
2 1 1 2 3 4 4 3 2 2 2 4 5 5 4 6 7 7 7 8 9 7 3 2 7 14 12 14 16 22 26 27 22 20 21 19 19 18 19 17 19 19 16
3 2 2 3 3 3 3 3 3 4 5 6 7 6 7 7 7 7 7 6 6 8 5 6 7 9 10 10 16 17 21 24 21 19 16 15 14 15 17 17 16 16 16
4 3 2 2 3 3 4 3 4 4 4 4 3 5 6 6 7 6 5 4 5 6 4 3 5 4 6 9 15 14 17 17 17 17 19 18 18 17 17 15 15 16 15
3 4 4 6 6 6 6 6 5 4 5 4 3 3 3 3 3 3 3 3 2 3 3 2 2 3 3 6 9 11 13 14 14 13 12 13 14 13 12 12 12 14 16
7 8 9 9 9 9 8 7 6 7 8 8 8 8 7 6 4 2 3 4 3 3 4 4 3 2 2 1 4 6 7 7 8 7 6 9 9 12 10 12 14 16 17
10 11 12 13 13 13 12 9 9 11 12 13 12 13 13 12 9 7 6 6 5 5 5 5 4 3 3 2 1 1 2 3 4 6 8 10 12 15 18 19 20 20 17
11 13 16 16 18 17 14 13 12 14 12 11 10 9 7 6 9 10 9 9 7 5 5 3 2 1 0 0 1 1 2 1 3 3 6 13 15 20 20 17 15 15 15
14 15 16 17 17 15 13 13 12 12 11 10 9 8 7 7 5 4 4 3 3 4 5 2 1 1 1 1 0 1 3 4 6 11 12 16 14 16 10 9 10 12 15
13 13 13 12 12 12 10 9 9 10 10 9 9 8 8 7 8 7 6 5 5 5 5 3 3 3 3 3 5 6 6 8 9 12 10 6 9 15 13 11 17 20 19
12 11 10 8 10 11 9 9 9 9 8 7 7 7 8 7 7 7 8 6 5 3 1 2 2 3 3 4 5 7 7 9 8 4 5 8 7 15 20 11 3 1 3
11 10 9 9 9 9 7 8 8 7 5 5 4 3 4 7 6 7 11 10 9 7 8 9 9 9 9 8 7 8 8 8 6 5 2 3 4 8 8 5 4 5 9

GFSMA_925_spd_048.txt.gz
Wind_Speed
11 12 12 12 12 11 11 12 12 13 13 13 13 14 14 13 12 12 12 11 11 12 11 10 8 7 8 7 7 6 6 4 4 4 3 3 3 4 5 6 7 7 6
13 12 13 14 13 13 13 13 14 15 15 15 15 14 14 15 16 15 14 13 14 15 15 13 11 10 10 10 8 8 7 6 5 5 4 3 3 3 3 5 6 6 6
16 16 15 16 16 16 17 18 18 18 19 19 19 18 18 17 18 18 17 16 16 17 18 17 14 13 12 12 10 11 9 8 7 6 5 4 3 3 3 3 4 5 5
18 19 20 20 19 20 21 22 23 23 24 24 24 24 23 22 22 21 21 20 20 20 20 21 20 17 15 14 13 12 12 12 10 9 7 6 5 4 4 3 3 3 3
22 22 24 24 23 24 25 25 25 26 28 29 29 29 28 27 27 26 26 25 24 23 22 22 23 22 19 17 16 14 14 13 12 11 10 9 8 7 6 5 4 3 2
24 25 28 28 26 25 25 25 26 27 28 30 30 31 30 29 29 31 32 29 28 27 26 24 24 25 23 22 18 17 16 16 15 13 12 11 10 9 8 7 5 4 4
23 22 23 26 26 26 27 27 26 26 28 27 25 23 23 24 25 30 31 32 31 30 28 27 27 26 25 24 24 21 19 19 18 16 15 14 12 11 10 8 7 6 6
25 25 24 24 24 24 25 25 24 24 21 23 12 5 3 8 17 18 23 27 29 29 30 28 27 28 27 26 26 27 24 22 20 20 18 15 14 12 11 10 9 7 7
16 19 21 23 24 24 24 24 22 22 17 15 16 9 1 3 3 11 9 15 18 18 21 23 24 25 27 28 28 28 29 26 22 22 21 18 16 14 12 11 10 8 8
13 14 15 17 19 20 22 22 20 19 17 15 11 13 20 10 1 3 4 5 17 17 17 17 19 22 24 26 28 28 29 30 29 22 20 15 18 17 14 12 11 10 9
10 12 14 17 17 20 22 21 20 17 16 14 11 8 9 13 15 8 3 5 7 12 19 19 17 19 21 24 26 28 30 31 26 21 19 16 16 20 15 12 11 9 3
9 10 11 12 15 16 16 19 18 16 16 14 11 12 13 7 6 8 5 6 6 10 13 15 18 17 18 21 23 26 30 33 27 32 33 25 21 16 15 15 16 16 10
11 10 10 10 10 9 10 11 12 12 11 10 9 11 12 15 15 16 12 4 3 3 7 16 12 13 16 18 20 22 24 28 29 26 26 24 26 22 19 16 16 14 12
9 9 7 4 3 3 2 2 5 6 6 5 3 4 7 7 9 9 7 2 2 1 4 7 9 11 13 15 17 17 21 24 29 26 24 21 22 23 17 12 13 16 22
5 5 4 3 2 2 2 3 4 4 4 4 5 5 5 4 4 4 5 5 2 3 2 4 4 8 13 16 16 15 16 23 24 23 18 19 18 15 17 18 24 19 18
3 3 2 1 1 2 2 1 2 3 5 4 3 3 1 2 2 3 4 5 6 6 3 2 3 12 14 13 13 12 11 15 18 17 17 18 17 21 24 20 17 18 18
3 3 2 2 1 2 3 3 4 5 6 5 4 2 2 1 3 5 5 4 5 5 4 3 6 11 9 7 7 4 4 8 10 9 8 8 11 14 16 17 16 16 15
3 3 2 1 2 3 4 4 5 6 6 5 4 3 3 1 1 2 2 2 2 3 3 3 6 8 7 5 7 5 7 11 14 13 17 20 23 20 20 18 17 16 13
1 2 3 5 6 6 6 6 6 7 8 8 8 8 7 5 5 5 6 6 5 4 2 1 3 5 4 4 4 4 7 10 12 14 15 13 13 14 15 14 14 13 9
5 7 9 9 9 9 8 8 8 9 10 11 12 13 14 12 10 8 8 7 5 4 4 3 2 3 3 4 3 2 2 4 5 6 7 7 8 9 10 10 11 13 13
8 10 11 11 12 13 10 9 12 13 14 15 14 14 15 13 13 10 8 7 5 4 4 4 3 3 3 4 4 4 2 3 3 5 6 7 9 13 15 18 20 20 19
10 12 13 14 17 16 12 13 13 13 12 11 11 9 8 8 12 12 10 9 9 8 7 3 4 4 4 4 4 4 4 3 3 1 6 12 14 19 19 19 17 15 13
10 13 15 15 16 13 11 11 11 11 11 11 10 9 10 10 8 6 4 3 2 4 5 4 4 4 4 3 3 4 5 5 6 11 13 13 10 11 6 8 9 10 11
10 11 12 12 12 11 10 9 9 9 9 9 9 10 10 10 9 7 7 6 5 6 6 5 5 4 4 4 5 6 6 7 10 11 7 5 8 15 10 12 13 15 17
9 9 9 9 10 11 8 9 7 6 7 7 8 9 9 7 6 5 9 8 5 3 2 3 4 5 5 5 6 8 7 8 7 3 5 5 6 14 18 9 4 1 1
9 7 7 7 8 10 7 5 7 6 6 6 5 4 2 5 5 6 9 7 8 6 6 7 8 7 7 6 6 7 7 8 6 4 2 4 6 9 8 5 1 7 10

GFSMA_925_spd_051.txt.gz
Wind_Speed
7 8 8 9 10 10 10 9 9 8 9 10 10 11 11 11 11 11 11 10 10 10 11 10 9 7 7 8 5 5 4 3 3 3 2 1 2 3 4 5 5 5 5
9 8 9 11 11 11 11 11 10 11 11 12 12 13 13 13 13 14 13 13 13 13 14 14 12 12 10 9 9 7 6 6 4 4 3 3 2 3 3 4 4 5 5
13 13 12 12 12 12 13 14 14 15 15 16 17 16 16 16 18 18 17 16 16 16 16 17 15 14 13 11 10 9 10 8 7 6 6 5 5 5 4 4 4 5 5
15 16 16 16 14 15 16 17 17 18 20 21 21 21 21 21 21 22 23 22 20 19 19 18 18 17 15 14 12 12 11 11 11 9 8 7 6 5 5 5 5 4 4
17 18 20 20 19 19 20 20 20 20 21 20 22 24 25 25 25 26 27 28 26 24 23 22 20 20 20 18 15 14 13 15 13 12 10 9 8 7 7 6 6 5 5
19 21 23 23 23 23 23 22 21 21 21 21 21 23 24 25 24 23 26 29 29 28 26 25 22 22 23 23 19 17 16 15 16 16 14 13 11 10 9 9 8 7 6
20 22 23 22 22 22 23 22 20 20 19 20 15 15 17 16 22 15 17 20 21 24 25 25 23 23 23 24 24 21 20 19 18 20 19 17 15 13 12 11 10 9 8
23 23 24 24 23 23 23 22 20 15 14 16 7 3 2 7 11 10 10 14 16 15 18 20 21 22 23 24 25 25 23 21 20 21 24 21 19 17 15 14 12 11 9
15 17 19 21 22 22 23 23 22 20 14 12 10 7 1 3 3 11 10 9 12 12 10 12 13 13 16 20 22 24 24 25 23 21 20 21 23 20 17 15 13 11 10
11 12 13 14 15 17 18 20 19 19 18 14 11 15 16 8 2 2 3 5 11 13 12 12 15 14 10 12 15 19 22 24 27 25 25 26 16 17 17 16 15 14 11
7 7 8 10 13 16 17 19 20 20 19 15 16 10 12 12 9 7 2 4 7 13 15 13 13 11 11 12 12 16 19 25 28 26 26 24 20 18 9 16 20 19 16
8 8 9 10 11 12 14 15 16 17 19 19 13 14 11 4 4 5 3 6 6 8 9 11 13 10 9 11 12 14 15 17 19 23 25 25 24 29 19 21 18 17 18
10 10 10 9 9 9 8 10 11 14 15 15 13 11 11 12 10 9 5 3 3 3 6 7 8 9 10 10 12 13 13 13 16 20 25 29 26 23 23 25 16 17 13
9 9 8 6 5 4 3 3 4 7 9 9 8 9 8 8 9 8 6 4 2 4 5 4 6 8 11 17 18 16 14 13 14 17 21 22 23 23 22 22 16 11 10
6 6 5 4 4 3 2 3 4 4 5 4 3 4 6 7 6 5 5 6 4 2 3 2 2 5 14 15 15 15 15 13 12 13 16 13 10 9 12 15 15 11 12
3 3 3 2 2 1 1 1 2 3 3 3 4 3 4 5 5 5 6 5 6 3 2 1 3 10 12 11 11 11 12 7 10 5 6 14 9 8 5 8 9 15 18
3 2 2 1 1 0 1 2 4 5 6 5 5 4 5 4 3 5 4 3 2 1 1 2 4 7 7 7 8 8 7 3 3 8 5 2 7 14 13 11 11 12 14
3 2 1 1 1 2 4 4 5 7 7 7 5 5 3 2 1 0 1 2 2 1 1 2 3 6 4 6 6 6 5 5 7 7 7 7 7 10 13 17 17 15 16
3 1 3 4 5 5 6 7 8 8 8 8 8 6 6 4 5 5 5 5 4 2 2 1 1 4 3 7 6 5 6 6 5 9 13 15 13 10 9 10 11 12 13
5 6 8 9 8 8 8 9 10 10 11 10 11 10 10 8 7 6 6 5 3 3 3 2 1 2 3 4 5 5 6 7 7 6 5 6 6 6 9 10 9 10 10
8 7 9 11 10 8 10 11 12 13 13 12 12 13 13 11 8 6 5 5 4 3 3 2 1 1 2 3 4 4 3 4 5 6 7 7 7 9 11 13 15 16 17
11 10 12 13 13 12 13 12 12 12 11 10 9 9 8 7 9 8 8 8 6 5 3 1 1 1 2 2 3 3 4 4 3 3 8 11 13 14 15 16 17 18 18
12 13 14 14 13 12 12 12 11 11 12 10 9 8 8 6 3 3 2 2 1 4 3 1 1 1 1 2 2 4 4 3 4 8 10 9 7 7 6 9 9 10 10
12 13 13 12 13 11 10 9 8 8 9 8 8 7 7 6 5 4 3 2 3 4 4 3 3 2 2 3 4 5 5 6 8 6 4 4 6 8 9 11 12 11 11
13 12 12 11 11 11 7 8 6 6 5 6 5 5 5 6 3 2 4 3 2 1 1 2 4 5 5 6 6 7 5 4 5 2 4 3 4 11 8 3 1 2 4
12 11 11 9 9 10 8 6 5 4 3 3 2 3 3 2 1 2 5 3 3 1 2 3 5 4 4 3 4 4 5 3 3 3 2 4 5 7 7 4 3 13 11

GFSMA_925_spd_054.txt.gz
Wind_Speed
6 6 6 6 6 6 6 6 6 6 6 6 7 7 7 7 7 6 7 10 10 10 11 11 10 10 7 7 7 6 5 5 3 2 3 1 1 1 2 2 3 4 4
7 6 6 7 7 7 7 7 7 7 7 8 9 8 8 9 8 8 8 9 11 11 13 14 14 12 12 10 9 9 8 7 6 5 5 3 3 2 1 1 2 3 4
8 8 7 7 7 8 8 9 9 9 10 10 11 11 11 11 11 11 11 12 11 14 14 15 16 14 14 13 12 11 10 9 9 7 8 6 5 4 4 3 3 3 3
11 10 9 9 8 9 9 10 10 11 12 12 13 13 12 12 13 14 15 15 13 13 14 15 16 17 16 16 15 14 13 14 13 11 11 9 9 7 7 6 5 5 4
12 12 12 11 11 11 11 11 12 12 13 14 14 14 14 14 14 14 15 16 17 17 15 15 18 18 19 20 18 17 15 15 17 16 14 12 12 10 9 8 7 6 5
12 13 14 14 12 13 14 14 14 13 14 15 14 15 15 14 14 13 13 13 14 14 14 14 13 14 17 21 22 20 18 17 18 19 18 17 16 16 13 11 9 8 7
13 14 14 14 14 15 15 15 14 14 15 12 7 12 12 12 15 12 10 8 9 8 9 10 11 12 13 16 20 23 21 20 20 21 22 21 20 19 18 15 12 10 9
13 14 16 16 15 15 16 16 15 14 11 11 5 3 4 7 10 6 6 7 8 6 6 7 8 9 10 11 12 17 21 21 22 21 22 25 25 21 19 18 15 13 11
12 13 16 18 19 20 22 22 18 16 14 12 14 7 4 6 4 7 4 5 4 5 5 7 7 7 8 8 11 13 17 21 24 22 22 16 18 19 15 14 14 15 15
10 11 12 13 12 12 14 16 16 15 15 13 11 14 15 9 4 2 4 4 7 5 7 8 7 7 6 6 8 11 13 16 20 20 22 22 17 15 22 19 20 20 18
8 9 9 10 12 13 14 14 14 15 15 16 16 8 9 8 9 5 3 8 8 10 9 7 8 6 6 6 7 9 12 14 16 18 21 24 25 19 19 21 23 22 20
7 8 9 9 10 10 12 13 15 15 15 15 19 15 12 6 8 6 5 6 6 8 8 7 5 5 6 7 9 11 12 13 13 15 17 22 22 23 23 21 17 20 23
6 6 9 8 8 8 9 9 11 13 14 16 19 16 16 13 8 7 6 7 6 5 5 4 3 5 6 8 11 15 16 15 14 15 15 18 21 24 24 20 13 16 24
6 7 7 6 7 6 5 6 8 9 9 10 12 11 9 7 6 7 7 6 3 5 7 11 2 4 8 14 15 16 12 14 15 15 15 16 18 18 14 14 13 11 15
6 6 5 5 5 5 6 4 4 2 3 5 5 4 3 4 2 2 4 4 3 3 3 3 1 6 14 15 12 11 10 9 13 11 11 5 3 3 14 18 14 18 11
6 5 4 4 4 4 4 3 2 4 5 4 3 2 2 2 2 2 2 3 2 5 3 1 3 9 12 9 8 8 9 5 15 12 11 9 3 5 8 9 6 5 9
5 4 5 4 4 3 2 2 3 4 3 3 4 3 3 3 1 1 2 2 2 3 5 3 5 7 7 6 5 5 5 2 2 4 7 5 4 2 3 5 5 7 8
5 5 4 4 3 3 3 3 3 4 4 4 4 4 2 1 2 2 1 1 1 2 3 2 2 3 4 6 7 6 6 3 5 8 7 7 6 5 6 7 9 10 13
2 4 3 2 2 3 4 4 5 5 5 5 4 5 4 3 3 2 2 2 2 1 1 0 1 2 2 6 5 6 6 5 5 5 8 11 13 14 13 11 10 9 11
3 3 2 2 3 4 5 6 7 6 6 7 7 7 6 5 4 3 4 4 2 1 1 1 2 2 2 4 4 6 4 5 5 5 7 7 7 7 6 9 9 10 12
4 4 4 3 4 3 5 7 9 8 8 9 9 10 8 8 6 4 3 3 1 0 0 1 2 3 3 3 3 4 6 7 5 6 7 5 5 6 6 8 10 12 13
5 6 5 6 6 6 8 8 8 9 8 7 9 8 8 8 8 5 5 4 2 1 2 2 3 3 2 3 3 4 5 6 4 5 9 10 10 9 8 8 10 14 16
8 8 7 8 8 8 8 9 9 9 9 8 7 5 3 2 3 1 2 4 2 0 1 1 3 2 3 2 2 4 4 5 7 8 9 7 5 6 6 8 11 10 10
9 9 8 8 9 8 9 8 8 9 8 6 6 4 2 1 1 2 1 1 1 1 1 1 1 2 2 3 4 4 5 7 7 5 3 5 5 7 8 8 12 9 9
12 11 9 9 10 9 8 7 6 7 6 5 4 3 2 1 1 3 2 2 2 3 4 4 5 7 7 7 6 5 5 5 5 2 3 4 6 11 9 6 4 4 3
12 11 11 10 8 8 6 5 5 4 4 4 3 4 3 2 2 3 4 3 4 3 3 3 4 5 4 4 4 4 4 4 4 4 1 5 7 8 6 4 3 7 9

GFSMA_925_spd_057.txt.gz
Wind_Speed
6 6 7 7 7 6 6 6 6 6 6 6 6 7 6 7 7 7 7 11 9 8 9 11 10 10 10 8 6 6 7 7 6 3 3 3 2 2 2 3 3 4 4
7 6 6 7 7 7 7 7 7 6 7 7 8 8 8 8 9 9 10 10 13 11 10 11 13 12 12 12 10 9 9 8 8 6 5 4 4 3 1 0 1 2 3
8 7 6 6 7 7 8 8 8 8 8 9 10 10 10 10 11 12 12 12 12 14 14 13 14 14 13 13 13 13 12 10 9 9 7 6 5 4 3 2 2 2 2
10 8 8 7 7 8 8 9 9 10 10 11 11 11 12 13 12 14 15 15 14 13 13 15 14 15 15 14 15 16 14 14 13 11 11 12 10 8 7 6 5 5 3
11 11 9 9 9 10 10 11 12 12 12 13 12 13 13 14 15 15 16 16 16 16 14 14 16 17 17 18 17 16 16 15 17 16 14 14 12 12 11 9 7 6 5
10 11 11 11 12 12 13 14 15 14 14 13 13 13 14 15 16 15 15 14 12 10 10 11 11 13 13 14 15 18 18 18 17 18 18 17 16 15 13 12 10 8 6
11 12 13 13 13 14 15 15 15 15 15 14 12 13 14 13 16 16 13 10 8 8 7 7 8 9 9 10 11 12 17 18 18 18 20 21 21 20 18 15 13 10 9
12 14 15 15 15 17 17 16 16 16 16 13 5 4 3 8 12 8 6 6 8 5 4 4 5 5 6 6 7 12 13 13 16 19 19 17 21 23 23 18 17 16 14
10 11 14 17 18 18 21 22 21 20 16 14 15 9 3 4 3 6 4 4 4 4 5 5 6 6 6 6 6 5 8 11 15 16 16 17 16 15 17 20 20 19 17
8 9 11 12 12 11 13 15 14 14 15 15 14 18 19 12 3 3 5 5 5 6 6 7 6 6 6 5 7 9 10 11 12 13 15 17 18 17 17 22 23 21 21
7 9 10 10 11 12 13 14 13 13 14 15 17 16 15 12 9 3 2 5 5 9 9 6 6 4 4 4 4 9 11 11 12 13 13 14 17 20 21 23 26 24 22
6 7 9 9 11 11 11 12 12 14 14 14 16 16 15 6 7 7 4 6 3 9 8 6 2 4 5 5 8 12 15 15 14 14 13 13 15 17 17 19 28 27 22
6 6 9 8 9 9 10 11 12 13 14 15 17 16 16 17 8 8 6 4 6 7 4 2 2 2 5 7 11 15 14 18 17 16 14 12 15 17 17 16 13 12 13
6 6 7 8 8 8 8 9 10 12 10 11 13 13 13 11 8 7 4 5 3 7 5 4 3 1 5 10 15 12 11 13 20 14 11 10 8 10 13 11 11 11 7
6 7 7 7 7 6 6 5 7 7 5 3 4 6 6 5 4 3 5 8 8 2 2 3 3 3 8 10 12 10 11 9 14 17 13 8 4 5 5 11 17 13 15
6 6 6 6 6 5 4 4 3 4 6 4 3 1 2 3 4 4 3 3 4 4 2 1 1 6 10 8 9 7 7 5 4 10 11 10 10 8 4 5 7 10 12
6 6 6 6 5 4 3 3 3 3 3 2 3 3 3 3 3 3 4 3 3 4 5 2 5 7 5 7 7 8 7 6 6 6 5 5 6 5 3 1 1 2 5
6 5 6 6 5 5 3 3 4 3 3 3 3 4 3 4 4 3 2 2 2 3 3 2 2 4 4 7 7 8 8 5 5 8 8 9 8 7 6 6 6 7 8
5 4 4 5 5 4 2 2 3 3 4 4 4 3 3 4 4 4 4 3 1 1 1 1 1 4 3 7 8 8 9 10 8 8 7 5 8 10 9 8 5 6 9
4 3 2 2 2 2 3 3 4 5 5 6 6 6 6 6 4 3 3 2 0 1 1 1 2 2 2 5 6 7 7 7 7 6 7 10 8 8 7 5 6 7 7
4 4 3 3 2 1 2 5 6 6 6 6 7 8 7 7 4 4 3 3 1 1 1 2 3 3 5 4 4 5 8 9 7 8 8 5 9 8 6 9 7 7 9
4 4 3 3 3 2 4 6 6 7 7 7 9 9 9 10 7 3 3 3 1 3 3 4 4 5 3 4 5 5 7 8 4 7 12 12 8 8 7 7 10 12 13
5 6 5 5 4 4 5 6 8 7 8 6 6 6 5 4 3 3 1 1 1 2 1 1 5 4 5 3 5 6 5 7 9 11 11 7 7 8 7 7 10 12 10
7 8 8 6 5 5 6 6 5 7 8 6 6 5 4 4 3 3 2 2 1 3 1 2 1 2 2 3 5 6 7 9 10 5 7 4 8 9 9 9 10 11 6
11 10 8 8 8 6 6 6 4 4 5 5 4 3 3 3 2 0 1 1 2 3 3 4 5 6 8 8 8 6 6 7 7 1 3 4 7 15 10 8 7 9 3
10 9 8 8 7 6 5 5 6 4 4 3 2 2 3 3 2 1 1 1 2 3 3 3 3 6 5 5 5 4 5 4 5 6 2 5 8 9 7 3 4 8 11

GFSMA_925_spd_060.txt.gz
Wind_Speed
7 9 7 7 6 6 6 7 5 5 7 6 6 8 7 7 8 8 10 11 11 10 9 8 10 10 9 9 7 6 6 8 6 4 3 3 2 2 3 4 4 5 6
7 7 8 8 8 8 7 7 7 7 7 7 8 7 9 10 10 12 11 12 14 12 12 12 12 12 12 12 11 10 8 7 7 6 2 4 4 3 1 1 2 4 5
8 8 7 8 7 8 7 8 8 9 10 10 10 11 11 11 12 13 14 15 16 14 14 13 13 15 13 12 12 13 13 11 9 8 7 5 4 4 4 3 3 3 4
11 10 9 7 7 7 8 8 9 10 11 11 12 12 12 12 14 15 13 12 14 16 15 15 13 14 14 14 14 15 14 14 14 12 11 9 7 5 5 5 4 5 3
12 11 9 8 8 9 9 9 10 11 13 14 15 16 15 16 17 17 17 16 15 15 15 11 14 12 13 14 15 15 15 14 14 16 14 12 11 10 8 8 7 7 7
12 12 11 10 10 10 11 12 14 15 17 17 17 16 18 17 17 19 18 14 11 7 7 8 9 11 10 11 10 10 13 16 15 13 16 16 15 14 14 12 11 11 10
10 10 12 11 11 12 13 13 15 16 16 16 17 18 18 13 19 20 16 12 3 3 5 8 6 6 6 7 6 7 8 9 13 15 13 15 19 19 19 18 16 14 12
12 13 13 13 14 15 16 16 17 16 17 17 7 3 3 8 13 14 10 4 4 6 4 4 6 4 5 4 5 7 10 11 12 13 10 11 11 13 17 20 19 18 16
14 15 17 18 19 19 20 20 20 19 17 16 16 10 3 3 5 1 2 2 3 3 2 6 5 4 2 2 5 7 9 10 10 11 11 10 11 11 13 15 25 21 19
11 11 11 11 12 12 12 14 13 14 14 16 13 16 19 14 2 3 4 4 4 4 4 1 3 2 1 5 7 8 9 10 10 11 12 11 10 11 14 14 23 24 23
7 8 9 10 10 10 11 12 13 11 12 13 15 14 15 17 16 9 4 6 4 3 1 3 5 3 4 6 6 9 11 12 12 12 12 13 11 11 12 13 18 25 28
8 8 10 9 9 10 10 12 13 13 14 13 13 13 16 10 8 6 4 7 6 8 3 4 6 4 0 4 8 12 13 16 17 15 13 12 11 13 14 14 12 12 23
5 4 9 10 9 9 11 11 11 11 12 13 14 18 20 18 16 13 10 4 4 6 5 5 3 2 1 4 10 13 13 14 19 14 9 8 11 12 13 14 13 16 16
8 10 11 9 9 10 10 10 10 11 13 13 14 14 15 15 15 16 10 6 2 8 8 6 5 2 0 5 9 11 10 12 13 19 17 12 10 14 11 5 7 6 12
9 9 8 8 8 9 8 6 8 10 9 7 6 6 7 8 6 6 8 7 6 2 3 3 5 2 3 6 7 7 8 7 7 11 12 11 13 13 14 17 14 9 8
9 8 6 7 8 8 7 6 7 6 6 5 4 4 4 5 5 5 7 8 8 5 3 2 2 0 4 5 6 6 5 4 3 6 8 8 8 8 8 8 12 13 13
9 8 6 7 6 7 6 5 5 5 5 6 6 4 4 4 2 3 5 5 4 5 2 2 2 2 2 5 6 5 5 4 3 6 4 5 5 5 5 4 2 2 0
7 8 7 6 6 7 7 5 7 6 5 4 4 4 5 6 7 5 4 4 4 4 3 2 1 3 7 6 5 7 8 8 6 6 6 5 6 6 6 6 6 5 5
7 5 4 4 6 6 5 6 6 7 8 9 8 7 6 7 7 5 6 4 4 2 2 2 1 3 5 8 9 8 7 10 8 7 7 6 8 7 5 4 2 2 5
7 7 6 5 7 9 8 8 7 8 9 9 9 8 7 6 7 6 5 4 3 3 2 2 1 2 1 6 6 6 9 8 8 7 7 6 8 6 6 5 4 4 4
8 7 5 5 6 6 6 5 6 7 7 7 7 7 6 7 6 6 7 6 6 4 2 3 2 1 2 1 2 3 5 8 4 6 10 5 6 9 5 4 5 6 6
6 4 4 4 4 4 4 6 7 8 7 9 10 11 10 7 6 4 3 4 4 5 5 4 3 4 3 4 3 3 5 7 4 6 16 14 4 7 4 6 8 10 10
5 4 5 4 4 4 5 7 7 9 9 9 9 9 7 4 2 1 2 2 2 3 3 3 3 3 3 2 2 3 2 2 4 10 11 5 4 8 4 4 8 10 11
7 6 6 7 5 4 6 8 8 9 10 10 9 7 5 4 4 4 3 3 2 2 2 3 3 3 2 2 2 2 3 5 7 4 4 3 7 10 11 5 5 9 7
9 10 9 8 7 7 6 6 7 7 7 7 7 7 6 4 4 3 2 1 1 3 4 2 3 3 5 5 5 5 1 4 2 3 2 5 5 14 9 3 4 6 5
11 11 11 8 9 8 7 7 6 6 6 5 5 4 7 6 4 1 2 1 2 2 4 4 2 3 3 2 2 1 2 2 2 2 2 6 7 8 6 1 3 6 8

GFSMA_925_spd_063.txt.gz
Wind_Speed
10 9 8 8 5 4 5 5 4 4 6 7 7 6 8 8 7 9 10 11 11 10 10 10 9 10 9 9 8 7 6 5 5 6 3 2 1 1 2 3 3 4 6
10 12 10 9 7 8 6 7 7 7 8 7 8 8 8 10 11 11 14 14 13 13 11 10 11 11 12 12 12 12 11 9 7 6 5 5 2 1 1 2 3 4 4
11 8 11 10 10 10 9 9 8 8 9 10 10 9 11 14 13 15 16 17 14 16 15 13 11 10 11 11 13 15 14 14 12 10 7 6 4 2 2 3 4 4 4
13 11 10 9 9 9 9 9 10 9 9 11 12 12 13 13 12 15 13 11 9 12 14 13 11 9 11 10 12 15 16 14 14 14 12 9 8 6 4 5 6 6 5
14 14 12 10 9 9 9 9 8 9 11 13 15 16 17 16 16 16 18 17 16 12 11 6 7 9 7 9 9 10 13 14 12 13 16 14 12 10 9 9 7 8 8
14 15 13 11 10 11 10 10 12 13 15 16 16 17 18 20 22 25 24 17 13 7 3 3 6 5 4 7 6 6 8 10 10 11 12 15 16 16 13 12 12 11 12
12 13 13 12 10 12 13 11 11 13 15 14 16 18 19 21 19 19 21 16 8 5 1 4 4 3 5 5 4 5 6 9 10 9 8 8 11 15 20 20 17 15 14
14 12 13 13 14 15 14 15 15 15 18 19 12 5 3 7 11 11 6 10 6 2 3 4 2 2 4 5 6 7 8 9 9 10 9 9 9 9 9 15 19 19 17
16 15 14 14 15 16 17 19 20 19 20 20 18 11 2 3 3 2 3 3 2 1 4 4 3 2 4 5 6 8 9 7 8 10 9 9 10 9 10 11 13 23 22
15 16 16 15 15 15 16 15 14 15 14 17 13 15 18 12 2 3 3 4 4 6 11 8 6 3 4 7 8 8 9 10 11 10 9 9 10 10 9 11 12 20 26
11 11 10 10 10 10 10 11 12 13 12 14 14 15 14 15 15 11 4 6 5 5 11 9 7 3 2 5 5 8 11 13 14 13 11 9 9 9 10 11 11 9 24
8 7 7 7 8 9 9 10 11 12 13 13 13 14 18 10 6 8 3 6 7 3 10 8 5 3 1 2 5 10 12 11 15 11 8 7 8 10 13 15 14 13 11
8 8 8 8 8 9 10 11 13 12 12 13 14 16 17 19 20 17 12 6 6 8 6 7 6 3 2 2 5 9 10 10 9 15 13 11 10 13 14 11 10 10 15
10 9 8 9 9 10 11 11 11 11 11 11 14 15 17 17 16 19 16 12 3 7 5 6 6 3 1 1 5 8 6 7 7 9 11 11 12 13 16 7 2 2 4
8 9 10 9 9 10 11 10 11 9 10 11 11 11 11 10 11 12 12 13 6 3 3 6 5 4 2 2 5 5 3 3 3 6 8 9 7 8 17 20 18 10 8
9 7 8 7 9 10 10 10 9 9 9 9 7 6 5 6 5 5 5 6 5 6 2 3 3 5 2 3 5 4 2 2 2 4 5 6 7 8 8 9 11 11 12
6 8 7 7 9 10 9 10 11 11 9 9 7 7 7 7 7 6 6 7 7 7 4 3 6 4 2 4 3 4 2 1 1 5 2 3 5 5 6 7 6 5 4
7 8 6 8 8 10 10 11 12 12 11 12 11 10 9 10 9 8 6 6 6 6 5 6 6 5 3 7 2 4 4 5 4 5 5 2 3 3 3 4 4 3 2
7 8 6 6 8 10 11 10 9 13 12 12 12 11 10 9 9 7 5 6 6 5 6 7 6 6 2 3 3 4 4 4 3 2 4 3 5 4 2 2 2 3 2
7 7 7 8 8 10 10 10 7 10 11 11 10 10 10 9 9 7 7 6 6 5 5 6 5 4 2 2 0 1 1 1 0 1 3 2 1 2 3 2 2 2 3
8 7 7 7 9 9 10 11 11 10 9 8 7 6 7 7 7 7 6 5 3 3 4 5 4 3 3 3 2 1 2 3 2 2 4 6 4 3 1 1 3 5 5
8 7 6 7 7 7 7 7 9 10 10 9 9 8 9 9 8 6 7 6 6 5 7 6 5 6 4 5 3 2 2 2 2 3 9 2 3 3 3 2 3 5 5
7 7 7 7 7 5 5 6 8 10 10 10 10 12 11 9 8 6 5 5 5 4 5 6 7 5 6 4 3 3 2 2 3 4 6 1 2 3 1 2 4 5 7
9 9 9 10 8 6 7 8 8 9 10 11 12 10 8 7 6 6 7 6 5 4 3 3 3 4 3 2 3 3 2 3 4 0 3 1 4 5 6 1 1 4 3
12 12 12 11 8 7 8 9 10 10 11 10 9 9 9 7 6 6 7 6 6 6 2 2 3 4 4 4 6 6 5 3 1 1 2 3 4 9 4 4 2 1 2
15 14 14 12 10 9 10 9 9 10 11 10 9 8 7 9 8 5 5 6 6 5 5 4 4 4 3 2 3 3 5 4 3 2 0 4 3 7 3 2 2 6 7

GFSMA_925_spd_066.txt.gz
Wind_Speed
12 10 10 9 7 9 7 6 5 4 4 5 6 7 7 8 9 9 9 9 10 9 8 8 8 9 10 10 10 9 9 8 7 5 5 4 2 1 0 2 2 5 6
11 12 11 12 10 9 7 6 6 6 6 6 6 7 8 11 12 13 13 12 13 13 12 9 10 9 9 12 13 13 13 13 11 8 6 4 3 2 2 2 3 4 4
13 11 14 12 11 9 8 7 7 7 6 7 9 8 11 14 13 14 16 16 15 13 14 13 11 9 9 10 11 14 14 14 15 13 11 9 7 4 3 3 4 4 4
15 12 13 12 10 9 9 9 9 9 8 8 10 12 12 15 16 15 12 12 12 14 14 10 9 7 8 9 9 11 13 13 12 16 15 13 11 9 6 5 5 6 7
16 15 14 12 10 10 10 10 9 9 10 11 13 15 15 17 18 20 21 21 15 12 9 7 5 5 6 7 8 7 9 9 8 10 12 17 16 13 10 9 9 9 9
16 17 15 13 12 12 11 11 11 12 13 14 16 15 17 19 18 22 21 19 12 10 7 6 4 5 6 5 5 4 6 9 9 8 8 9 13 18 16 13 11 12 13
16 17 17 14 15 14 13 12 13 13 15 15 14 18 19 17 21 17 18 17 12 9 8 4 3 2 4 5 6 6 7 9 9 10 9 8 8 8 14 20 18 16 15
21 18 18 17 14 14 13 13 14 16 16 17 14 7 3 6 8 5 6 5 12 10 6 6 2 1 3 5 7 8 8 9 9 9 9 9 9 9 11 10 16 21 17
19 17 15 15 15 16 17 17 17 16 19 20 16 7 2 3 2 1 4 8 9 11 11 8 6 5 3 2 5 8 8 9 9 10 11 10 11 10 9 10 10 15 22
16 17 16 15 16 17 18 19 16 16 15 17 15 13 17 10 3 2 3 5 6 10 12 11 9 7 4 1 5 5 7 10 12 13 12 10 10 11 10 10 7 9 18
10 10 13 14 13 12 13 14 14 14 14 15 14 14 12 13 14 8 3 5 3 5 12 12 10 7 5 1 1 4 7 9 15 13 11 9 9 10 13 13 12 12 10
14 12 11 11 10 10 12 13 13 13 13 13 14 14 14 10 5 8 3 7 6 7 11 10 8 6 4 1 2 5 7 8 10 14 9 7 8 10 14 16 14 13 13
17 15 14 11 9 9 13 13 14 14 14 15 14 15 17 19 17 15 13 8 7 6 6 10 9 7 4 2 1 4 6 9 4 10 12 11 11 11 16 7 4 6 9
13 11 9 10 11 7 14 12 14 14 13 13 14 14 16 17 18 19 19 12 3 6 5 6 9 7 5 3 2 5 4 5 4 4 6 5 6 11 18 19 14 11 5
13 13 12 13 12 12 13 13 14 14 14 13 14 14 16 17 17 17 17 15 10 3 3 7 5 8 6 3 2 3 3 2 5 2 3 4 3 5 10 12 11 10 9
16 15 13 12 12 12 13 13 13 12 10 13 13 14 13 10 9 10 10 9 9 6 2 4 4 8 6 3 5 4 4 1 2 3 2 2 4 6 5 6 7 8 10
14 13 10 11 12 12 12 12 12 11 11 14 14 13 11 10 9 7 6 7 7 6 4 3 7 8 5 4 5 4 3 1 1 2 1 2 4 4 4 4 4 5 5
11 10 7 11 13 13 12 12 12 12 13 14 13 12 12 11 10 8 6 6 6 5 5 7 8 7 6 2 4 2 1 2 3 4 4 3 3 3 3 4 3 2 1
11 9 8 10 12 11 9 10 10 11 12 14 14 13 12 10 11 8 8 6 8 7 8 8 7 7 5 2 3 4 4 3 3 2 2 3 3 3 3 2 4 3 3
10 9 10 10 10 9 8 8 8 10 11 12 11 11 10 10 10 8 8 9 9 8 6 8 7 8 5 5 3 4 3 2 4 3 3 4 4 3 2 2 2 2 1
11 10 9 9 9 9 9 10 9 9 10 9 9 8 7 8 7 8 8 8 7 7 7 8 7 5 6 6 7 5 3 2 5 2 3 5 4 4 2 1 2 4 4
11 10 10 9 8 8 8 8 8 10 11 10 9 6 5 5 5 5 5 6 7 8 8 6 6 6 6 6 6 4 3 2 2 3 6 1 1 1 1 1 1 4 4
11 10 8 8 8 7 6 5 7 8 10 9 8 9 9 7 7 7 5 6 6 8 8 9 11 9 9 9 7 6 4 3 2 3 5 1 0 0 1 3 2 3 5
11 9 8 8 8 7 6 6 7 7 8 7 9 9 9 7 7 7 8 6 5 3 3 4 6 7 6 6 6 4 4 2 1 1 2 1 2 2 4 1 4 1 2
11 10 10 10 10 8 6 8 8 8 8 9 10 10 9 8 6 6 8 7 6 5 3 3 3 4 4 4 5 5 4 2 2 3 2 1 2 4 1 3 5 3 2
12 12 12 13 11 9 7 8 9 9 11 11 11 10 9 9 8 7 8 6 7 8 6 5 5 5 4 5 5 4 5 6 4 3 4 1 1 4 2 4 4 5 5

GFSMA_925_spd_069.txt.gz
Wind_Speed
13 11 10 8 8 9 8 8 6 5 5 5 5 6 5 6 7 8 9 8 8 9 9 9 7 7 8 10 10 10 12 11 11 9 7 7 5 4 3 2 2 3 4
13 12 11 11 9 8 8 7 6 7 6 6 6 5 7 9 11 13 13 14 14 14 14 11 10 10 9 8 11 13 13 13 13 10 9 8 5 4 3 2 1 1 1
16 13 13 12 11 10 9 9 8 7 6 5 7 7 9 10 10 12 12 13 13 12 9 11 12 11 10 8 9 10 12 11 12 15 13 9 10 7 5 3 3 4 2
17 15 13 13 10 11 11 10 9 7 8 8 8 10 12 13 14 16 18 14 13 15 11 12 11 11 8 10 9 7 8 8 8 9 11 14 12 11 8 7 5 6 5
19 18 14 12 11 12 11 10 10 9 10 9 11 13 15 17 16 19 16 19 17 14 13 7 7 8 7 8 7 4 5 7 8 6 7 8 15 15 13 10 8 7 7
20 19 17 14 13 12 13 13 12 12 11 13 15 16 16 17 19 19 22 20 16 10 9 8 7 5 5 4 5 6 6 7 8 8 7 6 5 8 18 15 12 9 10
21 19 18 15 14 14 13 12 10 11 12 14 13 16 16 20 23 24 19 16 13 10 11 9 7 2 3 3 4 6 7 6 7 8 8 8 6 8 6 10 18 16 13
24 21 18 17 17 15 12 10 9 11 16 15 10 9 3 8 10 4 5 4 5 11 11 7 6 5 4 2 4 6 7 6 7 7 8 8 8 8 8 8 9 16 20
24 22 18 17 16 13 12 13 14 14 15 17 15 7 2 3 4 2 1 4 9 11 10 9 8 6 4 1 4 7 6 7 9 9 9 8 8 8 9 9 8 8 16
20 22 19 17 15 14 13 16 17 17 17 16 12 11 16 11 3 3 1 3 6 9 10 11 9 8 4 2 3 5 7 8 12 11 9 9 8 9 9 9 9 7 6
19 15 15 9 10 15 15 19 15 13 13 14 12 11 8 11 14 8 3 4 4 6 12 12 11 9 7 4 2 3 6 7 10 13 8 6 6 8 10 11 15 12 12
19 14 14 17 17 16 16 15 14 13 12 12 12 13 12 7 4 7 3 7 4 6 10 12 13 10 8 5 3 2 4 6 7 9 10 10 10 11 16 12 11 12 12
17 18 16 14 14 12 12 13 13 14 13 14 13 16 16 18 17 15 13 8 7 6 7 12 11 11 9 7 4 2 5 6 3 5 7 10 10 11 19 11 7 3 8
19 18 16 15 14 14 13 13 14 14 13 12 13 14 15 15 15 16 18 13 4 5 8 6 14 12 10 8 5 4 4 2 2 3 6 5 5 9 15 13 7 10 10
19 16 17 17 15 13 11 11 12 13 13 13 13 13 13 15 14 17 19 18 11 3 4 9 8 14 12 8 6 3 5 3 2 1 1 2 3 3 8 12 13 14 11
16 16 15 13 10 10 10 12 13 13 13 12 11 12 12 13 13 13 11 12 13 7 2 6 8 13 12 9 5 3 6 4 2 1 2 3 4 4 7 7 7 9 7
14 14 10 9 10 11 12 14 13 12 13 14 14 14 13 13 11 9 8 7 5 5 3 3 7 11 12 9 4 4 5 5 3 2 2 3 3 4 3 4 4 5 3
11 10 9 10 12 12 12 13 12 11 13 15 16 13 12 11 10 10 8 6 5 4 4 5 8 12 9 7 4 3 4 3 4 3 2 3 3 4 5 2 2 3 1
12 10 9 10 11 11 12 11 10 10 12 13 15 14 13 11 10 8 7 6 4 5 4 5 7 9 6 7 4 5 6 5 5 3 3 2 1 2 3 3 3 3 2
11 10 10 10 10 10 10 9 10 10 10 11 12 12 11 11 10 8 6 5 6 8 6 9 8 6 5 6 6 7 7 5 5 4 5 4 3 2 1 1 2 3 2
10 9 9 10 10 10 10 10 11 10 10 10 8 8 7 8 8 7 6 7 7 6 7 8 5 5 6 6 8 7 7 6 5 5 4 5 5 3 2 2 1 2 3
11 11 10 10 10 10 9 9 9 10 10 9 8 7 6 5 5 4 5 6 6 7 8 8 6 5 6 5 6 7 5 3 2 5 2 3 1 2 3 2 1 3 3
13 12 11 10 10 9 8 8 7 7 9 9 9 8 7 6 6 5 5 5 5 7 8 9 10 10 9 8 8 7 6 5 3 3 1 4 3 3 2 2 1 1 4
14 12 11 10 9 8 7 5 7 6 7 8 8 8 8 7 6 6 7 6 5 4 5 6 7 7 6 6 7 5 6 5 3 3 2 3 3 2 2 3 5 1 3
13 11 12 11 11 10 7 7 7 7 7 9 9 9 9 8 7 7 8 7 6 5 2 2 4 5 4 4 5 6 6 6 3 4 3 2 2 1 2 5 7 4 4
13 10 14 12 13 12 9 9 8 10 11 11 10 10 10 9 7 7 6 7 6 6 6 4 5 5 5 5 5 6 7 7 3 3 5 2 2 1 2 5 6 5 5

GFSMA_925_spd_072.txt.gz
Wind_Speed
12 11 11 10 11 11 10 9 7 6 5 3 3 4 4 5 6 8 9 9 8 10 9 9 9 8 8 10 8 9 10 10 10 9 8 8 6 4 3 2 2 3 4
12 13 12 11 10 10 9 9 8 6 6 4 4 3 4 6 7 9 9 9 12 11 13 11 11 9 9 8 7 8 8 9 11 12 10 8 6 6 4 2 0 1 1
14 14 12 12 11 10 10 10 9 7 6 5 4 5 5 7 8 11 13 14 12 11 12 9 9 11 9 7 7 6 6 8 8 7 13 13 10 7 7 4 2 3 1
16 16 14 13 11 12 11 11 9 8 6 6 4 6 8 10 11 14 13 15 13 14 12 12 9 10 11 8 7 4 4 7 8 8 7 8 15 12 9 6 5 5 3
18 18 16 12 13 12 11 10 10 10 8 8 8 9 13 13 14 14 17 15 16 16 14 12 6 8 8 6 6 2 4 6 7 7 6 6 6 14 14 12 8 6 6
21 20 17 14 13 13 12 12 12 11 10 9 11 14 14 15 16 17 19 19 18 16 11 7 7 8 5 3 2 3 4 5 5 6 7 7 5 6 7 16 13 11 9
21 23 19 17 15 14 12 12 11 11 9 10 13 13 13 20 19 17 12 11 11 9 8 9 9 7 6 3 0 3 5 6 6 5 6 6 6 6 6 6 8 16 14
22 24 22 18 18 16 15 11 10 8 9 10 7 5 3 8 5 4 5 2 1 5 9 10 10 8 6 3 1 4 5 6 7 7 6 6 6 6 7 7 7 8 16
20 24 23 23 19 17 15 12 11 11 13 11 11 6 2 3 3 2 1 1 5 8 10 10 10 8 6 4 3 4 5 5 8 9 8 6 6 7 8 7 9 7 9
23 24 22 21 20 17 12 10 10 12 13 14 14 12 14 7 2 3 1 3 7 9 10 11 11 9 8 6 4 3 4 5 8 9 6 6 5 5 7 9 9 8 6
14 19 22 21 11 4 7 10 12 14 10 9 10 8 8 9 10 7 4 5 6 8 12 12 12 11 10 8 6 3 3 4 4 8 8 8 8 7 9 12 13 13 12
15 10 12 10 11 12 10 14 13 11 9 11 11 10 9 6 4 7 5 7 5 6 11 13 14 14 12 9 7 5 2 2 3 5 5 6 7 9 16 7 5 7 11
19 14 12 7 7 11 13 19 15 12 11 11 11 13 14 15 14 13 14 9 7 8 9 14 15 14 13 12 9 6 4 2 2 3 4 5 5 6 14 14 15 11 3
18 15 10 10 12 12 15 12 10 9 9 10 12 13 14 15 14 15 15 11 4 7 12 8 17 18 15 11 10 8 4 2 1 4 4 4 2 7 9 13 7 11 13
17 15 17 17 15 14 10 8 8 8 9 11 12 13 13 13 13 15 16 17 12 5 5 12 10 17 16 14 10 6 5 3 3 1 2 1 3 1 8 8 8 7 8
17 20 19 14 13 9 7 7 7 8 10 11 10 11 12 10 11 12 13 13 14 14 5 9 12 12 16 13 10 7 5 5 5 3 4 2 2 1 5 6 8 7 7
14 16 14 11 9 7 7 7 7 8 10 11 11 12 12 11 12 11 10 9 9 7 2 2 9 11 15 13 9 7 5 5 5 0 2 1 1 2 2 1 3 4 3
10 10 10 9 7 6 6 6 6 8 10 11 11 11 12 13 12 11 11 9 8 7 5 7 9 12 11 12 9 7 4 4 5 3 2 3 2 2 2 2 0 1 2
12 12 10 8 6 6 6 6 6 8 9 9 9 11 13 12 11 11 10 9 8 7 6 5 7 11 9 11 9 6 4 6 7 5 3 2 1 3 3 2 2 1 2
10 10 9 7 6 6 6 6 7 8 9 9 9 10 11 12 12 12 11 9 8 8 7 7 7 7 7 9 9 7 5 7 8 6 5 5 5 3 2 0 0 1 3
12 11 9 7 6 7 7 7 8 8 9 9 9 8 8 9 10 10 10 9 9 9 9 9 8 6 7 7 9 7 8 9 6 6 5 4 5 5 5 4 2 1 0
13 11 9 8 8 8 8 8 9 8 8 8 8 7 6 6 5 6 6 6 7 9 10 9 8 7 9 8 8 7 8 6 3 6 3 4 3 4 5 4 2 1 0
15 13 11 10 9 9 9 9 8 8 8 8 9 8 7 6 6 6 5 5 4 6 6 8 8 8 8 9 9 10 9 6 4 3 2 3 5 5 4 4 3 1 4
17 15 12 11 10 9 8 7 6 8 8 9 8 9 9 8 7 6 5 4 5 5 7 9 10 10 8 8 9 9 8 6 4 3 3 2 5 4 3 5 6 4 5
18 16 13 12 11 9 9 8 10 9 8 8 9 10 9 8 7 6 7 7 6 4 3 3 4 5 7 7 7 7 8 8 2 3 4 2 4 3 4 8 7 6 5
19 15 12 11 12 11 11 11 11 9 10 10 10 10 9 8 7 8 8 8 8 7 7 7 7 7 7 7 6 6 7 7 4 3 6 3 5 3 3 7 8 6 6

GFSMA_925_spd_075.txt.gz
Wind_Speed
13 12 12 11 10 10 10 8 8 7 7 5 5 4 3 3 3 4 6 6 7 7 8 9 9 8 7 6 6 6 6 7 10 9 9 6 5 5 4 2 1 2 4
13 13 12 12 11 12 11 10 9 7 6 5 4 4 3 4 4 5 5 8 8 9 10 9 10 10 7 7 4 3 5 7 7 9 12 10 8 4 4 3 1 1 1
15 13 14 12 12 11 12 11 10 9 8 7 5 5 4 5 7 7 8 9 8 10 10 10 8 9 9 7 5 5 6 8 7 5 6 12 12 9 5 4 3 3 1
18 16 15 14 13 13 12 13 11 10 9 8 6 6 5 7 9 10 13 11 12 11 11 9 10 9 9 7 4 1 3 6 8 6 6 5 9 14 12 8 5 5 4
20 19 17 15 13 14 15 14 13 11 10 8 8 8 8 10 11 12 13 16 14 14 13 11 8 7 8 5 2 1 3 5 6 6 5 4 4 5 14 13 11 8 7
26 23 20 17 15 16 15 15 14 13 12 7 7 9 11 12 12 15 18 19 17 14 10 7 8 9 9 6 3 1 2 4 5 5 6 6 5 3 5 6 16 13 10
26 26 25 21 19 18 18 17 16 14 11 10 7 8 10 16 14 9 9 9 9 8 6 7 10 11 10 8 5 2 2 4 4 4 5 6 6 6 5 5 4 15 15
32 28 27 25 24 21 19 20 17 13 10 10 3 4 3 5 3 1 4 4 3 4 6 9 10 10 9 8 4 1 3 4 5 6 6 6 6 6 6 6 6 6 8
27 28 29 28 25 25 24 22 19 17 11 7 7 4 2 2 3 4 2 3 3 5 7 10 10 10 9 6 3 3 3 3 5 8 7 6 5 6 8 7 7 6 9
16 20 24 27 25 25 23 18 11 11 11 6 7 9 15 9 3 3 2 3 5 7 8 9 10 11 10 7 6 5 3 2 5 7 6 5 6 5 8 11 12 11 8
18 16 20 20 20 16 11 9 7 3 7 10 10 8 7 6 6 7 5 4 6 10 11 11 11 12 11 8 7 4 3 1 1 4 6 6 7 8 11 11 10 14 14
19 14 14 14 14 14 12 10 11 8 10 12 13 11 8 3 4 7 7 11 9 7 12 13 14 14 13 10 9 8 5 3 2 2 4 5 7 7 13 10 5 4 9
21 19 16 15 12 11 9 10 10 11 11 12 11 10 9 9 8 9 10 12 9 6 7 14 16 16 16 14 12 10 8 6 3 2 2 3 4 3 9 10 11 13 6
24 20 20 15 10 8 10 10 9 10 11 10 9 9 10 10 11 11 10 8 5 8 7 7 15 18 17 16 15 12 9 7 5 2 2 4 1 3 4 6 5 6 10
18 20 20 16 16 15 17 13 12 9 9 9 8 9 10 10 11 11 14 15 11 6 5 9 10 16 18 15 14 12 10 7 5 5 3 2 4 4 3 3 5 5 9
14 21 21 20 18 14 14 12 10 9 8 8 9 9 9 10 10 10 12 14 15 13 5 8 12 11 16 16 14 11 11 8 7 6 5 5 4 4 0 2 4 3 2
14 17 16 15 14 14 13 11 10 9 8 9 9 10 11 10 11 12 12 13 13 11 5 5 9 11 13 15 13 11 8 7 6 3 3 1 1 1 4 3 1 1 2
11 13 15 15 14 12 12 10 10 9 8 9 8 9 11 10 11 11 13 13 12 10 6 5 7 9 11 14 12 9 8 6 6 5 4 4 2 1 2 0 2 1 1
11 13 14 14 13 12 11 10 8 8 8 6 6 8 10 11 12 12 14 12 11 9 7 7 8 10 10 14 13 10 8 7 8 8 6 5 4 3 2 1 0 2 3
12 13 14 15 14 12 10 9 8 7 6 6 7 8 9 10 13 13 14 13 11 9 8 7 7 7 9 10 12 11 10 10 9 9 8 6 5 4 3 2 1 1 1
15 15 15 14 12 12 11 10 9 7 7 6 6 7 9 9 10 11 12 11 10 9 8 9 7 6 7 7 11 9 8 8 8 9 8 7 6 6 6 5 3 2 3
16 16 15 13 13 11 11 11 9 6 6 7 8 7 7 6 5 5 7 8 9 10 11 9 9 7 9 9 11 11 8 5 5 10 8 7 5 5 6 6 3 2 2
20 19 19 18 16 14 12 10 9 8 7 6 5 6 6 5 6 6 5 5 6 7 8 9 8 9 8 10 11 10 10 9 4 6 7 4 6 6 6 5 4 1 4
21 20 19 16 14 12 11 10 8 7 7 6 7 9 9 8 8 8 6 5 5 5 7 8 10 9 10 11 12 11 11 9 6 6 7 3 7 6 5 6 6 5 5
21 21 18 16 14 11 10 9 11 10 10 9 9 9 10 10 9 9 8 7 7 6 4 3 6 10 11 11 10 11 12 9 3 5 7 5 7 6 6 9 9 8 6
23 19 18 15 13 13 12 13 14 12 11 10 10 11 12 12 11 9 9 9 9 9 8 7 7 8 8 8 9 9 10 11 5 3 9 7 8 6 3 8 10 8 9

GFSMA_925_spd_078.txt.gz
Wind_Speed
11 11 10 10 10 10 10 9 9 9 8 7 7 7 6 6 5 5 5 7 7 8 7 8 10 8 7 6 5 3 4 5 7 9 10 8 6 4 4 3 1 1 2
10 10 10 10 10 10 10 10 9 9 9 8 8 7 7 6 6 6 5 7 7 7 8 7 9 10 9 7 4 2 3 5 6 6 9 11 10 7 5 4 2 2 1
9 9 10 10 10 10 11 11 11 10 9 9 8 8 7 7 7 7 8 8 8 10 9 9 9 9 9 8 5 3 5 5 4 5 4 5 12 11 9 6 5 3 3
11 11 11 11 10 11 11 12 11 11 10 10 9 8 7 7 8 8 10 11 10 11 12 12 9 10 9 8 5 3 3 5 5 4 5 4 4 12 13 11 9 7 6
14 13 13 13 12 13 13 13 13 13 12 10 9 8 6 9 10 9 11 11 13 12 12 12 11 9 8 8 6 4 2 3 4 5 6 6 5 5 7 14 13 12 9
15 15 15 14 14 14 14 15 15 14 13 12 9 9 10 11 9 10 11 11 9 8 7 6 4 5 8 9 7 4 1 2 3 3 5 6 6 6 5 6 8 17 13
13 15 17 16 16 17 18 17 17 16 14 12 8 10 11 10 10 6 5 5 5 4 3 3 5 6 7 10 7 5 2 3 4 5 5 6 7 8 7 8 7 7 17
16 17 17 23 26 20 19 19 19 17 16 15 9 3 6 5 4 3 3 4 2 2 2 3 5 6 5 4 4 3 2 2 3 5 6 6 7 7 8 9 8 8 8
17 19 19 24 26 29 23 22 24 22 16 13 15 6 4 4 3 5 4 4 4 4 4 4 5 5 5 5 5 3 4 3 3 5 4 4 5 5 7 9 10 10 9
14 12 14 20 25 29 33 23 21 20 15 13 9 10 9 7 4 4 5 5 5 5 5 5 6 6 8 8 10 7 6 3 2 3 3 4 5 6 9 12 15 15 14
15 12 15 20 20 22 22 26 14 10 7 8 6 3 3 4 9 8 6 6 5 8 8 8 7 8 11 12 10 9 7 5 3 1 2 3 4 7 9 16 10 10 14
18 14 20 22 18 16 18 16 13 9 6 6 6 10 11 6 9 8 6 10 9 9 9 9 10 10 11 15 14 13 11 9 8 5 1 2 5 7 10 12 11 8 7
29 28 29 29 24 19 19 17 14 11 11 8 9 10 10 9 9 10 10 11 8 8 7 11 11 10 11 11 14 14 12 10 8 5 0 2 6 5 2 9 10 10 13
26 28 29 25 23 22 20 19 18 14 13 9 11 15 11 9 10 11 10 9 6 11 12 12 7 10 10 11 12 13 12 11 9 7 7 12 7 3 3 5 6 9 9
18 20 24 24 24 22 21 21 20 18 15 14 18 14 12 10 9 10 11 12 13 6 7 9 8 8 9 11 12 13 12 11 11 9 6 8 5 5 5 4 3 3 7
15 18 24 25 23 21 19 18 15 14 15 17 15 14 12 10 9 9 9 11 14 13 6 1 5 8 9 13 14 14 12 11 10 9 9 7 6 4 3 3 3 4 7
12 17 23 23 21 20 19 17 16 16 15 14 13 12 11 10 9 9 10 10 11 11 7 8 9 11 11 14 13 13 13 11 10 6 4 6 3 4 5 7 5 4 3
9 15 21 20 20 19 18 18 17 15 15 13 12 12 13 11 10 9 10 11 11 9 8 5 8 8 10 12 12 11 9 9 8 6 5 3 2 2 3 4 4 5 3
8 10 17 20 20 20 18 17 14 13 12 11 10 9 10 10 11 11 12 12 10 10 11 7 7 8 9 12 13 12 10 9 10 8 6 5 3 3 2 1 2 4 4
9 11 12 13 16 16 15 14 14 13 12 11 9 10 10 10 11 12 12 11 10 10 9 8 7 6 8 8 13 11 10 11 9 9 9 7 6 5 4 4 3 2 2
11 13 11 14 15 15 16 17 16 13 11 11 10 10 11 11 12 10 9 10 12 10 10 10 7 6 8 7 13 12 12 10 9 9 7 6 7 6 7 6 4 3 3
14 15 16 15 16 15 17 17 14 14 14 12 11 11 9 10 8 9 11 11 11 11 11 11 11 8 12 11 12 13 11 6 5 7 8 7 6 5 5 4 4 3 3
15 18 17 17 15 15 18 18 17 12 12 12 11 8 8 9 11 8 7 7 8 9 11 10 11 13 11 13 14 13 11 7 6 4 7 6 5 5 5 5 4 1 2
16 17 17 16 15 15 18 18 17 12 11 10 12 13 13 12 12 12 10 9 7 8 8 9 10 10 10 9 11 8 7 7 5 7 8 5 5 4 4 4 5 4 4
15 18 16 15 18 17 19 19 16 13 13 13 13 13 15 15 14 13 12 10 8 6 6 7 9 10 10 8 11 10 9 10 5 6 9 4 5 5 4 5 7 7 6
17 18 23 20 21 18 19 20 21 18 14 12 11 12 15 15 17 14 12 10 10 10 8 6 5 5 6 9 11 9 9 10 5 5 8 8 7 6 4 6 7 8 8

GFSMA_925_spd_081.txt.gz
Wind_Speed
15 14 12 12 12 11 11 10 10 10 10 9 9 8 7 7 6 6 5 5 6 7 8 8 9 10 9 8 8 6 4 5 6 6 9 10 8 6 4 3 3 2 2
14 13 12 11 10 10 11 11 11 10 10 10 9 9 8 7 7 6 6 5 7 8 7 8 8 10 10 8 7 4 3 4 5 6 6 8 11 9 7 5 3 3 3
12 12 11 11 11 11 11 11 11 11 11 11 10 10 9 9 8 8 8 7 8 9 10 9 10 8 8 9 6 4 3 5 6 6 6 7 7 12 11 9 6 5 4
12 12 11 12 12 11 11 12 12 12 12 12 11 12 9 9 9 8 8 7 8 9 9 11 9 10 9 8 6 5 4 4 5 5 6 7 7 7 11 13 11 8 7
13 11 12 11 11 11 11 12 13 14 13 13 13 11 9 7 8 9 8 8 9 9 10 10 10 11 8 9 6 6 3 3 4 6 7 7 6 6 7 6 12 12 11
13 12 11 11 11 13 13 14 14 15 15 15 14 12 6 7 14 8 9 8 6 5 5 6 6 3 8 8 9 5 2 2 4 5 5 7 7 7 7 7 8 8 15
11 12 12 12 9 12 14 16 17 17 16 15 11 9 13 15 14 7 6 6 5 3 3 2 4 3 8 10 9 7 4 2 3 6 7 8 8 8 8 8 8 8 9
6 9 11 10 14 15 16 15 19 19 19 20 11 10 4 11 8 7 7 5 4 3 3 4 6 7 6 7 10 8 5 2 2 4 5 5 5 7 8 9 10 9 9
7 9 14 14 14 16 18 22 24 23 19 22 23 9 4 4 6 10 7 5 5 6 5 5 6 8 8 8 7 7 7 4 2 3 3 2 4 6 8 11 12 13 11
10 8 9 15 16 15 16 21 23 32 27 19 19 21 12 2 1 2 7 7 5 7 7 7 7 8 9 9 11 10 7 5 2 1 1 3 4 7 10 12 17 13 15
13 12 12 15 16 12 11 17 12 17 16 17 10 6 5 4 3 3 4 5 6 9 9 6 8 9 9 10 10 10 9 7 5 3 2 4 6 8 9 13 11 10 8
15 14 10 15 28 18 12 11 9 16 15 9 7 3 1 3 2 5 4 8 6 8 9 9 10 9 8 8 11 12 9 8 7 6 2 2 4 8 8 11 9 12 12
23 20 20 29 27 21 14 17 21 19 18 17 12 10 9 10 12 10 9 5 5 7 8 11 11 10 10 10 8 11 11 9 8 7 3 5 8 10 7 5 9 11 11
23 25 27 31 28 24 22 25 27 23 20 18 19 19 19 20 17 17 11 6 3 8 8 9 11 10 9 8 10 9 10 8 8 8 9 12 9 8 5 3 5 7 9
24 26 27 27 28 27 27 29 26 23 21 20 19 19 18 13 16 14 12 10 8 2 2 8 7 9 8 11 13 11 12 9 10 10 10 11 8 8 7 5 5 6 5
13 15 19 22 27 26 28 27 24 20 19 19 19 21 19 16 14 13 14 13 14 12 3 1 1 6 8 9 11 12 11 11 11 9 9 9 8 6 6 4 4 6 5
8 13 16 22 25 28 26 21 19 18 18 18 19 18 16 15 15 14 13 13 15 15 9 7 8 7 8 11 11 11 11 10 11 9 6 5 4 3 4 3 5 7 5
8 11 14 20 24 23 19 19 20 20 20 18 18 17 15 14 15 14 13 12 14 13 12 10 7 8 8 9 9 9 9 9 9 7 4 4 4 4 4 4 5 6 5
7 8 11 16 20 19 20 19 20 19 19 18 17 16 16 15 13 13 15 14 13 11 12 9 7 7 8 9 9 10 10 10 10 9 7 4 3 2 3 4 4 4 6
8 7 8 11 15 16 15 15 17 16 15 15 13 12 13 13 15 15 15 14 12 12 10 8 7 7 8 8 12 12 10 11 10 11 10 8 6 7 5 6 4 4 4
10 10 10 10 12 15 16 17 17 16 15 14 13 13 15 14 14 14 12 12 13 12 10 10 9 7 8 7 11 10 11 10 11 11 7 7 7 8 8 7 6 5 4
12 11 12 13 14 16 18 19 15 14 14 13 12 12 11 15 15 14 14 12 11 14 15 13 10 8 12 11 11 12 11 7 5 10 10 10 10 8 8 5 6 5 3
12 13 14 14 15 16 18 18 20 16 15 15 15 12 11 9 10 10 9 10 12 15 13 12 10 12 13 15 14 12 13 10 6 8 10 8 9 7 8 6 5 3 1
15 15 15 16 17 17 19 18 20 19 13 13 14 13 12 10 10 10 12 11 10 11 12 11 12 10 10 7 13 12 12 11 7 6 11 5 7 6 6 5 5 4 4
16 16 17 17 17 19 20 19 19 18 16 15 13 11 12 12 12 15 15 14 13 12 10 12 10 10 9 11 11 12 15 12 4 5 11 6 6 7 5 4 6 6 6
16 17 19 23 20 20 19 19 22 20 18 16 11 12 15 16 17 18 16 16 13 13 10 6 6 6 9 11 11 9 11 14 5 4 8 10 9 7 3 8 7 8 7

GFSMA_925_spd_084.txt.gz
Wind_Speed
23 19 16 16 15 12 14 12 12 9 10 10 10 10 10 9 9 9 8 8 5 5 6 6 7 8 10 9 7 7 3 2 4 6 7 9 8 7 6 4 4 3 4
25 18 17 17 17 14 13 14 12 11 12 12 11 10 10 10 9 8 8 7 7 5 5 6 5 7 8 8 8 5 4 2 3 5 5 4 6 9 8 7 5 3 3
23 20 19 18 17 15 14 13 13 12 12 12 12 13 14 12 13 9 9 9 8 7 7 5 5 7 6 6 8 7 4 1 3 5 6 6 6 6 10 9 8 7 4
21 20 17 16 15 15 13 13 14 12 12 12 12 13 13 13 11 8 9 8 4 4 4 4 7 7 8 7 8 8 5 1 2 4 5 6 6 6 6 7 12 11 8
18 17 15 14 13 14 12 12 12 13 13 14 15 15 17 15 11 9 11 12 6 5 6 7 7 8 9 8 9 8 6 3 0 3 5 7 6 6 6 7 8 9 12
18 16 14 13 10 13 12 11 12 13 14 15 16 19 7 11 10 10 9 7 6 9 8 7 8 6 6 10 11 10 7 4 2 2 4 5 5 6 7 7 7 8 9
15 13 11 13 12 10 12 12 14 14 16 17 12 14 14 11 15 16 10 7 4 6 6 4 6 5 3 10 12 10 7 5 2 3 5 6 6 6 5 7 7 8 8
14 14 14 14 16 13 12 10 10 5 17 16 15 5 2 9 19 17 10 9 6 5 4 6 4 6 6 10 12 10 7 4 1 2 4 4 6 7 8 9 10 10 10
10 9 11 13 12 11 12 9 12 15 13 14 21 8 2 4 5 12 13 10 8 7 6 6 7 6 5 8 10 10 9 7 3 1 1 2 4 6 8 10 11 15 12
8 12 15 15 16 16 16 16 17 19 20 18 17 28 26 4 2 2 11 11 10 9 11 10 9 11 10 11 12 9 8 7 2 2 3 1 4 5 8 9 12 12 11
17 17 17 17 18 19 20 15 14 16 19 18 18 14 22 7 5 6 2 1 9 9 12 11 10 9 11 13 12 11 10 7 5 5 2 1 2 7 9 8 11 11 14
22 21 23 21 19 19 19 16 13 17 19 14 17 15 12 6 2 5 2 2 13 14 15 14 12 11 12 13 13 12 11 10 9 7 4 3 4 7 7 6 8 10 9
25 26 23 25 10 20 20 14 13 19 24 19 16 19 15 13 12 11 10 9 8 5 7 14 14 13 14 13 13 13 12 10 9 7 4 7 8 9 7 4 5 6 8
25 23 23 19 15 25 18 13 21 24 23 16 21 19 24 25 21 22 15 11 2 6 7 5 12 15 15 14 12 11 10 9 9 9 11 9 9 8 7 5 4 5 8
16 19 24 25 27 25 24 24 26 25 22 22 21 22 21 20 19 17 17 18 8 3 3 3 7 11 12 12 11 12 12 10 10 11 10 9 7 7 6 5 3 5 7
9 13 15 18 21 22 26 26 27 24 21 22 20 19 18 17 15 16 20 17 16 10 3 2 3 11 11 10 9 9 10 11 12 10 10 9 7 6 6 6 3 4 6
8 11 13 14 18 20 24 24 25 25 21 20 17 17 17 16 17 17 17 16 15 14 7 8 5 8 8 9 10 10 11 12 12 11 9 7 7 6 6 5 2 5 6
11 13 12 14 16 20 22 22 23 21 21 21 20 18 18 18 17 17 16 16 15 15 15 9 10 11 9 11 12 11 11 11 11 10 8 6 4 3 6 3 4 5 6
12 11 13 13 15 17 18 20 21 21 22 21 20 20 20 19 18 18 16 16 17 16 16 13 9 9 11 12 11 12 12 11 10 9 10 8 5 2 3 4 4 6 6
13 12 10 13 13 15 17 18 17 19 19 19 17 17 16 17 17 15 15 15 13 12 15 12 11 10 10 10 13 13 12 12 10 10 11 9 7 6 5 6 5 4 4
13 14 13 12 13 12 15 16 16 15 16 16 17 18 17 17 18 18 18 18 17 15 12 13 12 9 10 10 12 9 11 10 12 14 12 12 9 9 9 7 8 6 4
14 13 14 15 15 16 15 16 17 18 18 18 18 17 17 17 17 16 15 14 16 16 16 16 13 10 16 12 12 10 10 6 5 13 13 11 10 8 7 7 8 6 4
16 16 15 14 17 17 18 18 19 19 18 18 17 17 16 15 14 15 16 15 16 15 16 17 17 17 15 13 14 13 14 11 4 3 13 8 12 8 8 8 7 4 2
16 17 16 16 17 19 19 20 19 21 19 19 19 19 17 17 15 14 14 15 15 16 15 14 13 14 15 13 14 13 13 10 6 9 12 5 10 7 8 7 5 4 3
15 16 17 17 18 19 20 21 21 21 22 19 19 18 18 17 16 16 19 18 15 14 12 11 12 12 12 12 11 12 13 16 5 7 11 8 7 8 7 6 7 6 5
17 16 18 18 19 20 18 22 23 23 24 23 22 18 16 18 19 19 22 21 18 15 12 11 12 13 14 12 12 14 17 20 7 4 13 12 10 9 4 8 10 9 8

GFSMA_925_spd_087.txt.gz
Wind_Speed
30 30 27 25 24 22 19 16 14 13 13 11 10 11 10 9 9 10 10 6 6 7 6 7 7 8 8 10 8 8 5 3 2 3 5 6 7 6 4 5 4 4 4
31 28 26 26 24 22 19 16 14 13 13 12 12 12 12 13 12 12 10 10 8 8 6 7 6 6 8 8 8 7 8 4 1 2 4 5 4 7 7 6 6 5 3
31 27 24 26 24 20 19 17 15 15 14 15 14 13 13 13 12 13 11 10 11 9 9 7 6 6 7 6 8 8 8 5 1 2 3 5 5 6 5 8 9 8 6
33 26 24 24 23 20 20 18 17 15 15 15 14 15 16 17 15 14 14 12 13 10 10 9 8 9 8 7 9 9 8 5 2 1 4 6 6 6 4 5 7 10 10
32 28 25 24 23 21 19 18 16 16 13 13 13 13 14 16 15 13 12 11 12 10 9 8 8 8 10 9 11 11 9 6 3 1 4 5 5 6 6 6 7 7 7
29 27 23 22 21 21 20 18 16 14 14 14 14 15 15 13 16 12 11 11 10 8 7 8 9 9 7 8 12 12 9 7 4 1 3 5 5 4 5 5 6 7 8
29 26 24 21 18 22 21 18 15 15 13 13 10 10 16 15 15 15 18 14 12 10 8 9 8 8 6 9 13 12 9 7 5 3 1 4 5 5 4 5 6 7 8
29 26 25 22 18 19 20 18 17 14 14 14 11 3 2 7 14 20 14 16 15 11 8 9 9 9 9 8 14 14 10 7 5 3 2 1 1 2 5 6 7 8 10
22 23 21 23 22 20 21 19 14 13 10 9 14 8 3 4 3 10 18 17 15 11 9 10 11 11 11 11 12 13 13 11 7 5 4 3 1 2 5 6 8 10 9
10 6 9 14 17 18 19 18 19 18 17 21 15 16 12 6 2 3 5 15 14 11 10 13 12 12 12 11 11 10 12 11 8 6 7 5 4 3 4 5 7 10 12
7 10 12 16 19 18 18 22 23 26 31 28 24 14 18 18 14 3 1 3 8 7 6 13 15 14 14 13 13 12 12 11 10 8 6 5 4 3 4 4 4 5 8
17 14 17 17 15 17 20 21 20 19 21 24 24 24 21 12 12 8 3 6 4 8 14 14 19 15 16 15 13 13 13 12 11 9 7 6 6 7 6 6 5 7 10
18 18 19 19 20 22 21 21 21 21 19 21 23 23 28 29 18 18 19 7 6 9 9 17 16 17 17 15 13 12 12 12 12 11 9 9 12 8 8 5 3 4 4
25 22 21 21 22 24 23 18 25 23 19 22 24 24 24 21 21 24 12 13 4 7 5 3 14 15 16 15 12 10 9 10 10 9 12 15 10 10 9 8 7 4 4
20 19 19 24 26 24 23 25 26 19 20 24 24 24 23 25 25 24 21 18 11 4 5 7 6 12 15 14 12 11 9 9 11 14 16 15 12 11 10 9 7 7 5
3 6 6 7 9 13 17 19 22 21 26 25 27 27 28 24 22 20 18 17 16 9 3 7 5 12 13 11 11 11 9 10 11 13 13 12 11 11 9 8 7 8 6
9 9 10 11 12 12 16 17 21 25 25 23 27 25 25 21 20 18 17 17 18 16 7 4 6 10 12 12 10 10 9 11 13 14 12 12 10 10 9 8 7 4 5
12 12 11 12 12 12 15 19 20 22 24 25 25 23 22 20 19 17 18 18 16 15 13 8 10 11 12 13 12 12 11 14 14 14 12 12 9 8 7 7 7 6 7
12 12 12 13 13 13 14 16 19 22 24 25 23 23 21 21 21 20 21 19 18 17 17 14 11 10 12 12 12 13 12 13 13 13 11 10 9 8 7 7 6 5 8
15 14 13 13 13 14 14 14 16 18 19 20 19 21 20 23 22 22 21 20 18 18 18 15 12 11 12 11 12 12 13 15 13 11 14 13 11 9 7 8 6 6 7
15 15 14 13 13 13 12 13 14 16 15 16 14 18 18 19 19 20 22 21 20 19 18 17 11 9 10 10 12 12 15 14 15 15 16 16 13 10 9 11 9 9 8
18 16 14 14 15 13 13 13 14 15 16 17 18 17 17 16 17 17 17 17 19 23 21 18 14 11 18 18 17 15 13 10 5 16 18 16 13 12 9 9 10 9 6
20 20 19 18 16 16 15 15 14 15 17 19 19 20 21 20 20 19 18 18 18 19 21 21 18 18 18 19 17 15 16 13 8 6 18 7 11 11 9 8 9 7 5
19 19 20 18 18 18 17 16 18 18 19 19 20 20 22 20 23 19 22 22 20 20 20 18 17 17 17 15 16 19 18 15 8 7 12 4 10 10 9 9 7 6 4
18 19 19 21 19 19 17 18 17 20 20 21 20 21 22 22 20 20 20 19 18 21 18 17 17 16 17 16 15 16 15 18 5 8 16 7 8 9 10 9 7 6 5
18 18 20 19 21 22 20 17 17 20 22 21 23 23 23 22 22 23 21 23 22 23 20 19 18 17 16 16 17 18 19 21 8 5 13 10 11 9 5 8 11 11 9

GFSMA_925_spd_090.txt.gz
Wind_Speed
39 36 36 33 30 28 26 24 21 20 19 18 15 14 13 12 12 13 14 11 9 7 8 8 8 8 8 9 9 9 7 4 4 3 4 5 4 4 4 4 4 4 4
30 35 35 35 32 30 27 24 23 21 19 18 15 15 14 13 13 14 14 16 8 11 9 8 8 7 7 7 9 9 8 6 4 2 3 3 2 3 7 6 6 5 5
30 33 34 34 33 31 26 23 21 19 18 18 17 16 16 14 15 16 15 16 13 13 11 10 10 9 8 7 7 8 10 8 5 2 2 3 4 4 3 3 8 9 8
31 32 34 34 31 30 27 24 22 21 20 19 19 18 18 16 17 17 18 15 12 14 14 13 12 11 10 8 7 9 10 8 6 2 2 3 4 4 4 5 6 5 10
37 35 32 32 32 30 28 26 24 23 21 19 19 17 19 18 17 19 18 16 16 13 14 13 13 13 11 10 9 12 11 9 7 4 3 3 4 5 5 5 5 5 4
39 36 36 31 30 29 28 27 25 24 21 18 16 15 15 16 16 17 19 18 18 16 14 14 13 13 11 11 12 13 12 10 8 5 4 3 5 5 5 5 6 7 8
39 39 34 31 31 32 30 28 26 23 21 16 13 13 14 13 13 16 15 13 13 15 14 13 12 11 9 6 12 15 12 10 9 7 4 4 5 4 4 5 7 8 10
33 38 33 32 31 31 30 30 29 22 20 19 9 4 1 5 18 20 16 17 20 18 16 13 12 11 11 9 13 15 12 10 8 7 5 4 3 3 5 6 7 11 11
34 34 34 34 31 31 33 33 31 27 22 21 20 7 2 4 2 7 12 15 18 19 17 13 12 11 11 11 12 15 14 12 9 7 5 5 4 4 6 7 8 8 12
26 25 34 28 28 28 30 30 29 27 24 18 14 20 14 8 3 2 2 8 14 12 13 14 11 11 12 12 12 13 14 14 12 8 8 9 5 5 5 6 7 8 8
20 19 18 17 17 17 19 20 22 24 24 16 17 14 18 17 14 4 2 6 11 12 8 13 11 13 11 12 12 12 13 13 12 8 9 7 6 8 7 7 6 7 9
13 13 9 13 18 17 21 20 21 21 24 25 22 22 15 9 7 5 2 6 14 24 26 18 15 16 16 16 13 12 13 13 13 12 9 10 8 11 9 7 6 7 8
14 17 16 19 22 21 18 20 23 21 24 22 24 27 27 27 17 21 11 6 3 8 12 22 23 22 21 19 15 14 12 12 13 13 10 9 12 12 11 10 7 6 7
12 15 17 20 21 23 23 21 21 22 27 24 23 24 27 27 28 22 19 11 2 2 5 3 15 19 23 21 17 13 12 11 12 11 8 15 17 10 11 10 10 8 6
6 4 8 17 18 21 23 23 23 24 23 24 21 25 23 25 25 24 25 20 7 3 5 7 5 16 18 20 17 13 11 10 9 12 13 15 12 13 11 11 10 9 10
11 8 7 8 7 8 12 19 24 27 27 27 27 26 30 27 26 25 25 21 18 9 3 4 6 15 19 20 18 15 12 10 10 11 13 16 17 14 12 12 11 11 11
8 9 8 8 8 9 11 15 17 21 24 27 29 31 30 27 27 31 28 22 19 16 5 6 12 15 18 19 18 15 14 12 12 13 14 16 15 13 12 11 9 11 11
9 9 8 8 8 8 9 12 16 19 22 24 26 27 24 24 26 27 23 22 21 20 11 6 10 14 13 17 15 15 14 13 13 14 15 13 13 10 10 9 8 8 9
14 11 10 10 9 8 10 10 13 18 20 21 23 25 25 26 24 25 22 23 22 19 18 11 9 14 13 15 14 14 13 12 13 13 13 12 12 11 11 9 7 7 8
16 16 15 12 10 11 12 11 12 14 16 18 20 21 24 26 27 26 26 24 21 20 19 17 14 12 14 13 16 14 12 13 13 14 13 16 14 12 9 8 8 8 8
18 17 17 16 15 14 13 14 14 13 14 17 17 17 19 20 23 21 26 22 22 23 22 21 12 10 12 9 15 13 16 14 14 16 16 16 17 13 11 11 11 10 9
20 20 19 19 18 17 15 14 14 16 14 15 15 16 16 16 18 19 19 17 22 25 24 17 13 11 18 17 16 16 14 10 4 15 18 19 17 16 14 13 12 10 9
20 20 18 18 19 18 18 17 16 16 17 17 17 17 18 18 20 20 18 18 18 21 26 30 23 24 21 23 21 18 18 15 10 6 16 11 15 17 15 13 11 9 7
23 23 21 20 19 18 17 18 18 18 17 18 18 19 21 23 21 22 21 21 22 22 24 28 28 23 21 18 22 22 22 18 11 10 12 7 12 14 14 12 10 8 5
22 22 21 21 22 24 20 19 17 17 18 19 19 19 20 22 22 22 22 24 24 24 26 25 20 19 17 17 18 20 18 17 5 9 18 6 9 11 11 11 10 9 6
24 23 23 20 21 21 19 16 17 18 18 19 22 21 21 22 23 23 25 25 24 26 25 20 20 19 18 19 20 23 24 21 9 5 19 16 12 9 4 10 12 12 10

GFSMA_925_spd_093.txt.gz
Wind_Speed
29 31 34 34 34 32 30 30 27 25 23 21 19 19 19 17 16 16 15 13 11 10 8 8 8 7 8 8 9 9 9 6 5 4 4 4 3 5 6 6 6 6 6
29 25 33 38 36 33 34 32 30 27 24 22 20 18 19 17 16 16 17 17 17 15 12 10 9 8 8 8 8 10 10 9 6 3 3 3 2 3 5 7 8 8 8
33 36 25 33 31 34 36 33 30 25 24 22 22 20 19 19 17 17 18 18 20 19 14 13 12 11 9 8 7 9 9 10 8 4 2 2 3 4 2 4 5 8 11
32 38 37 29 32 29 37 33 30 27 26 25 24 22 20 20 18 19 20 20 20 22 17 18 14 14 12 10 7 10 11 11 9 6 3 2 4 5 5 5 6 7 7
36 38 34 30 29 35 36 35 32 31 27 25 23 22 21 21 20 20 21 21 21 19 18 18 16 16 14 12 10 10 11 11 9 7 3 3 4 5 6 6 7 7 7
38 37 37 29 36 38 37 39 35 30 28 26 21 21 21 21 21 22 21 21 23 23 19 19 18 17 16 13 11 12 13 10 9 7 5 3 4 5 5 5 6 7 8
34 38 37 35 32 34 40 39 33 30 29 23 17 17 18 18 18 20 19 20 23 22 20 19 18 16 15 11 9 13 14 11 9 8 5 3 3 3 4 5 7 8 10
29 37 35 38 40 37 36 37 34 26 28 24 12 4 2 7 19 20 17 18 19 21 21 21 18 16 14 11 8 11 15 12 10 9 7 5 3 1 3 5 7 8 10
27 29 33 36 36 38 37 36 35 33 25 26 22 7 2 4 2 11 21 20 21 23 23 21 19 16 14 13 11 13 14 14 11 10 8 7 6 3 4 5 6 8 8
23 24 30 29 31 35 35 35 36 35 24 22 25 21 8 3 3 1 5 17 22 26 26 25 22 19 16 14 13 13 15 16 14 11 9 9 7 5 4 4 5 6 6
22 16 22 26 24 27 29 35 32 31 26 18 22 17 25 18 11 3 3 4 16 28 31 29 26 23 22 18 16 16 15 15 14 12 11 12 10 9 8 6 6 6 8
19 17 16 12 9 7 8 18 21 21 23 25 18 17 14 8 11 6 3 3 7 16 27 27 26 25 23 20 20 17 15 13 12 12 11 11 10 11 11 8 5 6 8
12 11 12 7 11 16 16 16 17 17 19 18 22 24 26 27 21 19 14 5 5 12 18 28 27 25 24 23 20 20 17 12 13 14 11 10 10 14 14 10 7 6 6
4 6 7 11 16 19 18 21 21 21 22 24 24 25 27 27 27 28 19 16 4 5 10 6 26 26 23 23 23 20 17 14 13 15 13 11 14 14 13 11 9 8 7
11 6 8 12 18 21 22 23 26 30 27 28 28 30 29 28 26 24 25 25 13 4 5 8 7 22 23 22 23 22 15 14 12 13 13 14 13 13 12 12 11 9 9
10 6 3 2 5 9 13 20 25 28 27 28 29 27 28 27 27 24 25 24 19 13 3 9 11 16 19 22 23 21 15 14 12 12 11 12 12 14 14 14 11 10 10
11 9 7 6 7 10 11 11 10 12 18 22 22 23 26 26 27 28 26 25 25 23 5 6 8 12 20 23 23 19 16 14 13 12 12 11 12 14 14 14 12 11 10
14 12 11 8 7 8 8 10 12 15 17 20 21 23 26 26 27 27 25 25 26 27 11 7 10 13 14 20 19 18 16 14 13 13 12 12 13 13 12 12 11 11 11
18 16 13 11 11 11 12 11 11 14 17 20 20 22 24 24 25 25 27 26 26 28 21 14 10 14 12 20 18 17 17 16 16 16 15 14 13 12 10 11 10 9 9
18 19 18 16 13 10 8 9 12 14 15 17 19 20 21 24 25 25 26 26 25 23 23 17 13 13 15 18 21 20 17 18 16 15 14 14 14 13 11 11 10 10 8
17 16 16 16 16 17 16 15 13 14 15 17 18 18 18 20 22 23 25 26 25 23 22 18 10 7 11 11 20 17 20 17 15 15 14 14 15 16 14 12 13 10 11
19 20 21 19 17 17 16 17 18 16 14 15 17 17 17 17 17 17 18 19 24 26 22 17 14 11 16 20 21 23 18 9 4 14 17 18 18 19 17 15 15 12 12
22 21 21 20 20 21 19 19 18 20 20 17 16 16 17 16 16 16 16 16 17 20 25 27 21 22 20 25 23 22 22 15 10 10 16 15 18 21 18 17 14 11 10
21 22 23 22 22 21 22 21 21 20 20 21 21 19 19 18 16 15 16 18 21 21 23 23 27 26 22 18 26 24 22 21 13 13 15 8 13 17 18 17 14 11 10
25 24 24 23 23 22 22 22 19 19 19 21 21 20 20 20 18 16 19 20 20 22 20 22 24 21 18 17 20 21 19 16 5 8 16 7 9 11 13 15 13 11 9
24 25 26 25 23 22 21 20 18 18 19 18 19 21 20 20 20 19 20 23 24 25 22 20 20 18 17 20 22 21 24 20 9 4 16 16 11 10 4 9 14 13 11

GFSMA_925_spd_096.txt.gz
Wind_Speed
21 24 29 31 32 31 31 28 27 27 26 24 23 23 22 21 19 17 16 15 14 13 12 11 9 8 7 7 7 8 10 7 5 3 3 4 2 4 5 6 6 6 6
24 27 33 36 36 36 35 33 31 28 27 26 24 23 22 22 20 19 18 18 17 17 16 12 10 9 9 9 9 7 10 10 7 4 2 2 2 2 4 3 5 8 7
26 28 34 40 38 38 39 34 31 29 28 26 26 24 23 22 22 20 19 20 21 20 19 17 14 11 10 9 8 7 9 11 9 6 3 1 2 3 3 4 5 6 7
27 28 30 32 36 40 36 30 26 29 29 29 29 28 25 23 23 22 20 21 22 23 24 22 19 16 13 11 9 7 9 12 10 8 5 2 1 3 4 5 6 6 6
25 28 32 31 36 41 33 27 32 34 30 33 30 29 26 25 24 23 23 24 25 23 23 24 23 20 18 14 12 10 11 12 12 9 6 3 2 3 4 4 5 6 6
30 30 33 34 34 36 36 29 31 34 32 31 30 28 26 26 24 25 25 24 25 24 24 23 23 24 21 17 14 13 13 15 13 11 8 5 2 2 1 2 4 5 7
30 34 35 35 39 40 37 40 31 29 30 32 22 25 25 26 25 27 26 26 26 24 25 26 24 26 22 19 15 14 16 16 13 12 9 7 5 3 1 1 3 5 8
23 31 36 36 40 35 35 34 31 26 28 28 17 6 3 10 22 27 25 25 25 25 25 26 27 27 25 21 17 16 20 19 14 13 12 10 8 6 4 1 2 4 6
25 21 27 38 40 37 35 35 35 35 27 30 31 10 2 5 3 14 28 26 24 23 24 26 27 28 25 22 19 19 23 20 18 16 14 12 10 8 5 2 1 3 3
29 29 30 25 20 31 32 37 34 34 26 18 26 33 14 4 3 1 8 21 25 24 24 26 27 29 27 24 24 25 24 25 23 19 15 13 12 9 6 3 2 2 3
31 34 30 26 26 27 25 28 35 36 37 28 24 22 27 13 9 2 2 3 16 26 29 31 32 31 27 27 27 24 23 25 23 18 16 16 15 13 9 5 3 2 4
20 14 16 17 14 16 12 19 30 31 33 32 27 27 23 12 9 6 3 5 6 13 27 30 30 31 31 29 28 26 24 21 22 18 16 15 14 14 10 7 4 1 5
13 16 12 12 13 8 8 10 15 22 21 22 25 21 22 18 17 11 10 7 5 13 11 24 31 32 32 30 28 25 23 20 18 16 15 14 12 16 12 9 8 8 6
14 10 4 8 4 2 5 9 15 18 24 20 18 19 21 23 21 24 17 13 7 6 13 15 24 34 34 32 27 25 22 19 17 15 13 12 16 17 14 12 12 9 9
15 14 9 3 4 9 10 15 18 21 24 26 26 23 23 27 25 25 27 24 13 5 5 13 13 26 28 28 28 24 22 19 16 16 17 16 16 15 13 12 15 14 12
16 13 12 10 10 6 7 6 14 24 23 23 23 25 26 26 23 26 26 23 23 15 4 16 17 13 27 23 22 22 23 20 18 18 16 15 14 14 13 14 16 14 13
17 16 14 12 11 9 10 13 13 12 10 19 19 20 22 24 25 26 27 26 24 22 10 9 16 16 19 24 25 26 25 23 22 20 18 16 15 13 12 13 15 14 13
19 18 15 14 14 13 12 12 14 14 15 15 13 14 17 19 21 23 24 25 25 26 17 7 16 15 18 23 27 26 25 24 22 19 17 16 14 12 12 15 14 13 13
21 21 21 20 18 17 15 14 14 14 15 16 16 16 16 18 21 22 23 25 25 24 24 16 11 20 14 25 24 24 24 23 22 20 18 16 14 13 13 13 12 12 11
21 21 21 20 18 17 16 17 17 18 18 17 17 18 19 20 19 20 23 26 24 23 23 21 16 15 14 22 28 25 22 21 20 19 17 16 15 14 15 14 11 12 9
19 19 20 20 20 18 16 15 16 17 19 21 22 20 18 18 20 21 20 23 24 22 19 20 15 14 13 13 18 18 19 20 19 18 17 16 16 17 15 14 13 11 9
17 18 19 18 19 20 19 20 20 21 21 19 19 22 23 21 18 18 21 20 24 23 23 18 14 14 20 26 27 25 20 10 4 18 19 19 18 19 18 17 15 14 12
16 18 18 18 18 19 18 18 18 19 20 19 23 24 22 22 23 20 18 19 21 22 30 31 21 16 18 31 31 27 25 19 11 10 21 15 19 19 19 16 16 14 13
17 17 17 17 18 19 17 17 18 20 18 17 18 21 24 24 23 22 22 20 19 18 22 24 26 27 27 24 27 27 27 22 12 12 18 9 14 16 18 17 17 15 13
18 18 19 20 19 19 18 18 16 18 19 21 20 19 19 21 21 20 20 22 22 22 20 19 20 19 19 18 23 24 22 20 6 10 21 9 10 11 12 15 16 15 12
20 20 21 21 20 21 20 19 17 17 17 18 20 21 20 18 19 19 21 21 22 26 21 18 18 20 19 19 22 26 28 22 11 6 18 16 14 10 4 12 16 16 12

GFSMA_925_spd_099.txt.gz
Wind_Speed
16 20 25 28 33 33 30 30 28 26 25 24 23 23 23 22 20 19 18 17 16 15 15 15 12 11 10 9 9 10 11 10 7 4 2 1 0 1 3 4 4 4 4
20 21 25 29 30 36 37 34 33 32 32 27 25 24 23 24 24 23 21 19 19 18 17 16 15 13 11 10 10 10 9 13 10 7 4 2 1 1 1 0 2 3 6
23 24 24 29 34 33 31 37 36 32 29 26 26 25 24 24 25 26 24 23 22 21 21 20 17 15 13 12 11 11 10 12 13 9 7 5 3 1 1 2 3 4 4
19 19 21 24 29 35 32 36 35 35 31 29 29 26 26 25 26 26 26 25 24 25 25 24 22 20 17 15 13 11 11 13 15 12 9 7 5 3 2 1 2 3 4
22 20 22 27 24 27 30 33 32 33 37 30 25 24 26 23 27 27 29 29 26 26 26 25 27 26 23 20 17 14 12 14 17 14 12 11 7 4 3 2 1 2 4
23 22 24 25 27 29 31 31 30 36 30 29 26 30 30 30 32 31 32 29 30 29 28 27 26 28 29 25 21 17 14 17 18 17 15 13 10 7 5 3 1 2 4
28 24 28 28 30 33 35 32 33 30 26 29 21 19 26 32 34 34 33 33 31 31 29 28 28 26 29 30 26 23 18 21 21 19 17 15 12 9 7 5 2 1 2
27 27 30 32 34 35 35 35 34 26 28 29 16 11 8 18 24 35 35 35 34 31 31 30 29 29 29 30 30 26 22 23 26 23 21 19 16 12 10 8 5 3 1
28 28 30 32 34 39 36 38 36 36 27 23 32 12 3 6 4 20 33 35 34 32 31 32 31 30 31 31 31 28 25 27 29 25 22 20 18 16 12 9 7 5 3
30 28 31 31 27 32 35 37 38 37 31 25 20 27 24 6 3 3 11 27 33 33 32 30 31 32 30 31 33 31 28 28 31 24 21 21 18 17 14 12 9 7 5
27 30 29 28 31 25 14 18 21 24 24 18 21 15 22 25 23 5 2 4 17 29 31 27 26 26 28 32 33 32 28 30 32 26 23 21 19 18 16 13 10 9 7
14 26 28 26 26 22 19 24 29 30 29 25 20 25 21 14 21 13 5 4 5 7 16 25 29 30 30 32 33 32 29 31 30 27 23 22 20 20 18 14 10 8 9
25 19 13 15 13 12 13 14 28 26 26 27 30 28 30 31 25 17 17 15 6 8 11 19 22 26 31 34 35 33 32 33 31 28 22 21 20 19 20 15 12 11 8
21 20 16 8 3 6 9 7 8 14 24 26 25 27 29 33 31 25 23 9 5 6 11 16 19 24 32 37 37 36 35 34 31 26 20 19 18 20 22 17 14 13 12
20 18 19 17 14 12 11 2 5 11 16 21 30 31 30 29 29 28 25 22 13 7 7 15 16 22 28 33 35 35 37 37 31 27 23 22 23 23 21 19 16 15 13
20 19 19 17 16 14 12 10 9 10 6 23 29 28 29 29 30 30 28 26 28 22 11 18 18 19 16 21 27 31 37 33 29 26 24 24 24 22 21 19 18 16 17
21 21 19 17 17 15 14 11 10 11 13 15 14 10 19 26 27 28 28 27 24 23 9 9 16 17 18 19 23 25 31 30 30 27 25 26 23 21 19 18 16 14 17
21 21 20 19 18 16 15 15 14 14 12 12 14 13 13 12 14 16 17 18 21 22 19 9 18 20 20 21 25 26 30 32 30 28 25 23 23 20 17 16 14 15 16
19 19 20 21 20 18 16 16 16 16 15 13 13 13 15 14 15 14 15 17 21 24 24 17 15 19 20 21 25 28 29 28 27 25 24 23 21 20 18 17 14 15 15
18 19 18 17 15 14 15 16 16 16 16 16 16 15 15 14 15 17 16 17 19 21 22 21 16 15 16 20 26 27 26 27 26 26 23 22 20 19 18 16 15 15 14
15 15 16 17 18 17 15 15 16 15 16 17 16 15 15 16 16 16 18 20 17 19 18 18 10 10 11 12 24 24 20 28 24 24 25 24 21 20 18 17 17 16 14
16 16 17 17 17 17 17 16 16 18 17 14 14 16 17 18 18 19 20 20 19 20 19 19 16 13 22 24 26 30 24 12 4 25 24 23 23 24 24 20 19 17 15
18 18 17 18 18 17 14 14 14 16 18 17 15 16 17 16 20 19 21 22 23 23 25 24 21 26 20 30 29 28 25 23 16 18 27 17 25 25 24 21 20 19 17
16 17 17 17 19 20 19 17 16 16 17 18 17 17 16 17 17 19 20 22 23 25 26 24 28 27 33 39 41 36 29 24 17 18 24 9 21 19 22 22 22 20 18
18 18 18 19 20 22 21 21 20 20 20 19 19 18 18 18 18 19 22 22 22 23 25 25 24 27 29 35 37 35 29 23 4 11 27 12 13 14 18 22 22 20 18
20 19 20 20 21 22 21 19 17 17 18 18 19 19 18 18 19 19 22 21 23 21 23 21 25 23 19 27 30 39 38 26 10 6 25 18 16 12 5 14 20 20 18

GFSMA_925_spd_102.txt.gz
Wind_Speed
12 14 13 15 18 20 23 27 24 21 24 21 22 21 20 18 17 15 14 17 19 18 17 18 18 17 15 14 14 13 13 13 11 9 7 5 4 4 4 6 5 5 5
12 15 18 22 21 20 23 25 25 24 26 24 23 22 21 19 19 18 17 15 19 21 21 20 18 19 18 17 15 14 14 15 16 13 10 7 5 5 3 2 5 5 4
15 15 16 18 20 26 25 25 25 26 24 25 24 23 20 20 20 20 20 18 17 21 24 24 23 21 20 18 17 16 15 15 18 16 13 10 8 6 4 4 6 5 4
15 15 17 19 19 21 25 26 26 24 22 30 31 25 21 20 21 21 20 20 19 18 20 26 26 25 22 21 19 18 16 17 18 19 16 13 11 9 6 5 6 5 5
17 17 18 19 19 22 25 28 30 28 27 28 29 28 29 23 21 21 21 20 22 20 19 22 28 29 28 25 22 20 18 18 19 21 19 17 15 12 9 7 6 5 4
18 18 20 22 21 22 24 27 29 28 28 27 27 27 26 25 23 24 19 19 23 22 23 22 22 29 32 32 29 26 21 20 21 23 22 20 18 16 12 10 8 6 4
21 21 22 23 23 25 27 26 28 28 29 27 19 20 24 26 27 28 24 24 26 24 25 24 25 25 25 31 33 32 27 22 22 25 24 23 20 17 14 11 9 7 4
22 23 23 24 25 27 29 29 29 28 31 29 20 17 10 24 25 26 22 21 25 27 29 27 26 28 30 32 32 34 33 28 24 26 24 23 20 18 15 13 11 10 7
23 26 28 27 27 28 29 28 30 33 29 28 31 15 4 8 16 26 28 28 28 33 29 28 29 34 31 30 30 32 36 34 28 28 27 25 23 20 17 15 13 12 9
26 28 30 31 32 30 30 30 33 39 38 27 25 33 25 11 6 5 10 17 27 29 30 30 31 33 32 32 27 25 32 36 32 31 29 26 24 20 20 18 16 14 12
15 22 25 28 30 30 28 30 29 29 30 26 25 22 32 16 13 1 6 7 11 16 27 24 24 29 32 29 30 31 32 35 33 33 31 28 26 23 22 20 17 15 13
16 16 16 26 30 29 28 29 29 33 29 25 20 21 21 20 14 8 4 5 7 22 14 22 28 29 26 26 26 29 35 36 34 33 33 32 29 27 27 25 21 17 15
20 22 20 18 9 26 30 27 27 28 30 28 24 21 22 20 15 9 9 9 9 25 15 21 22 21 21 22 29 31 34 34 34 33 35 35 32 31 28 27 24 19 17
16 19 19 20 21 14 4 5 11 22 24 25 26 26 23 20 21 18 16 12 7 9 17 18 21 20 25 29 35 29 31 35 39 38 39 36 31 29 26 26 21 19 17
19 18 21 20 19 18 16 17 15 9 13 23 25 24 25 24 24 24 26 29 22 10 12 19 16 28 31 33 42 36 36 42 40 41 42 36 30 27 26 28 26 21 18
17 18 18 19 18 19 18 16 15 14 11 14 12 14 27 25 27 29 30 29 27 21 9 22 24 27 25 32 34 34 37 36 38 43 46 38 31 26 25 27 26 21 19
18 18 18 17 16 18 18 17 16 16 15 14 14 13 15 9 15 28 33 30 27 27 13 20 20 20 20 24 26 25 28 29 35 44 43 37 31 28 27 27 24 21 19
16 16 17 16 17 15 16 16 15 14 13 12 14 14 14 16 16 14 14 12 12 14 10 9 15 20 21 22 25 24 25 26 33 38 34 29 30 29 28 26 23 20 19
15 15 16 16 15 15 14 14 13 14 14 13 13 13 12 12 12 13 15 16 14 16 19 18 13 18 20 22 21 21 24 26 30 31 31 30 30 29 28 26 23 20 17
14 14 13 13 14 13 13 15 15 14 13 13 13 12 11 11 12 13 13 13 14 17 17 17 14 15 18 19 21 18 20 27 29 27 29 31 29 29 28 25 23 19 17
13 14 15 15 15 14 13 16 15 14 14 15 14 13 12 14 14 12 12 13 13 13 16 16 10 11 9 9 16 20 20 24 28 34 32 27 27 28 26 23 21 20 17
12 12 12 12 13 13 16 17 17 17 16 16 15 15 15 16 14 17 15 15 15 15 14 14 15 14 16 19 17 22 19 11 3 31 29 29 33 28 28 25 24 22 20
13 13 12 12 13 13 14 17 16 16 16 16 16 17 17 15 16 16 17 17 17 17 18 20 17 19 20 21 22 22 24 24 22 26 33 22 34 32 29 27 25 26 22
13 14 14 14 15 14 16 17 17 16 15 16 15 16 16 16 16 17 19 20 19 19 19 19 19 22 26 24 29 31 35 35 24 24 34 9 27 20 28 29 26 25 23
15 14 14 15 15 16 16 18 17 16 16 17 17 16 16 17 16 18 19 19 21 20 20 23 23 27 27 27 28 29 23 18 7 14 36 15 16 19 22 25 28 26 24
16 16 17 17 17 18 19 18 17 16 17 17 17 17 15 16 18 20 19 20 21 21 22 24 26 31 26 27 26 32 29 27 20 4 27 17 19 15 6 18 26 27 25

GFSMA_925_spd_105.txt.gz
Wind_Speed
13 14 15 15 11 17 19 22 23 23 23 24 23 22 21 20 18 17 15 16 17 19 19 17 18 17 17 16 15 15 15 14 13 11 9 7 7 7 6 7 7 6 6
9 8 11 14 18 14 18 20 22 22 24 26 26 24 23 21 21 19 18 15 17 20 22 21 20 19 19 19 18 17 17 17 16 15 13 11 9 8 7 6 7 7 7
13 13 14 14 16 16 21 19 21 21 25 24 23 24 25 25 23 22 20 19 17 19 23 24 24 23 21 22 20 19 19 18 16 18 17 14 12 11 10 9 8 7 7
15 14 16 16 16 17 19 22 23 23 26 23 25 24 22 24 25 24 23 22 21 19 18 22 27 27 24 21 21 20 21 20 18 18 19 17 16 14 12 10 9 7 7
18 17 17 18 16 18 19 20 22 22 22 22 22 23 26 25 26 26 26 24 23 23 21 19 20 26 28 26 23 21 21 21 20 20 21 20 19 17 14 12 10 8 6
17 17 17 18 19 19 20 20 24 24 24 23 23 27 27 29 29 25 25 25 24 26 25 23 18 20 27 30 29 27 24 22 22 21 22 22 21 19 16 14 12 9 7
16 18 19 20 21 22 24 24 25 26 26 25 20 24 26 29 29 32 25 26 24 26 26 26 24 22 21 23 30 32 32 29 24 22 23 23 22 20 18 16 13 11 8
14 17 20 22 24 24 25 28 28 27 26 24 18 19 7 15 26 32 34 34 33 29 30 26 19 25 24 25 28 31 32 34 29 25 24 24 23 22 19 17 14 12 10
17 20 23 27 28 27 28 28 30 30 26 27 27 15 4 7 9 26 35 35 34 31 29 29 29 29 25 28 32 35 34 33 36 32 26 26 26 24 22 19 18 16 13
13 17 23 25 30 32 32 32 32 30 27 25 24 32 36 9 4 3 24 33 34 31 29 29 27 27 19 31 33 33 33 33 33 37 34 29 28 26 24 22 21 19 17
11 12 15 20 30 32 35 34 31 28 27 26 28 21 28 35 25 1 4 7 18 28 28 28 22 20 23 32 34 33 33 36 26 27 32 29 29 30 27 25 24 22 20
13 16 17 19 18 19 29 30 30 30 29 30 28 27 21 12 11 9 4 3 4 7 12 14 16 18 29 30 33 33 25 27 27 30 32 32 31 32 31 29 28 26 23
16 17 19 21 24 25 21 14 26 29 28 29 30 28 26 23 23 23 17 6 5 6 8 16 10 15 21 18 22 21 23 28 27 28 31 34 35 37 35 33 31 30 26
16 19 19 20 24 25 28 27 27 19 12 19 16 17 20 22 17 14 7 6 3 4 9 10 23 27 23 22 23 24 25 27 27 27 29 38 39 41 38 39 35 32 29
14 18 20 21 22 25 24 26 27 26 23 24 18 10 18 20 22 23 22 20 11 6 7 12 19 29 32 33 31 29 31 34 38 41 41 43 42 41 41 38 35 29 27
17 17 19 20 22 24 24 23 24 26 27 23 21 19 17 18 15 23 24 24 24 18 9 16 21 30 30 29 29 33 34 40 39 37 41 41 42 43 43 39 37 33 28
14 15 18 19 20 20 21 22 23 22 22 21 21 20 19 18 18 17 14 13 22 23 12 23 24 25 28 30 30 31 34 34 35 36 37 35 37 41 45 36 30 31 29
13 14 14 14 14 16 16 17 17 17 16 17 16 15 13 15 14 16 17 18 18 18 17 7 13 24 19 22 21 23 28 27 29 31 30 29 33 43 42 34 29 31 28
13 13 14 14 15 14 13 14 14 14 15 14 16 16 17 17 17 18 16 16 17 18 17 13 7 9 13 19 20 22 25 27 27 28 26 28 35 36 36 31 30 30 27
14 14 14 14 14 14 12 16 16 15 15 15 15 15 14 14 15 16 15 15 14 14 13 12 12 10 10 14 15 18 21 25 28 25 25 30 30 29 29 31 32 30 27
13 14 14 14 14 14 11 14 15 15 16 15 15 14 14 16 15 11 13 13 14 14 14 11 9 6 6 9 10 15 18 21 25 24 25 29 31 30 30 31 30 30 28
17 17 18 18 19 16 18 19 19 19 18 18 16 15 14 14 12 16 13 13 13 13 13 13 13 11 12 14 19 17 16 6 2 21 26 26 35 36 37 36 36 33 30
15 15 15 15 15 15 15 17 17 17 18 18 18 19 18 14 15 14 14 15 16 14 13 16 15 16 17 16 18 18 19 19 17 17 30 21 32 31 37 38 38 35 32
16 16 16 16 16 16 15 16 17 16 16 17 16 16 16 17 16 16 17 18 18 17 16 15 16 19 22 22 22 23 21 27 27 24 24 11 25 20 31 35 40 37 33
17 17 17 18 19 19 18 19 17 17 16 17 17 16 16 16 15 13 15 18 19 19 18 18 18 19 21 26 26 22 20 18 6 12 25 15 14 18 22 29 34 35 33
17 18 19 19 19 19 18 17 16 16 17 17 17 17 16 16 14 15 16 16 17 17 19 22 24 22 20 20 21 25 21 19 16 4 21 21 17 20 4 19 32 34 33

GFSMA_925_spd_108.txt.gz
Wind_Speed
17 15 17 11 5 15 18 21 24 24 24 23 25 24 25 24 19 21 19 19 21 18 19 19 19 18 17 16 16 15 15 14 13 12 11 9 8 8 7 8 8 7 6
13 12 14 14 13 11 10 18 22 26 27 26 26 27 30 27 22 24 22 21 19 20 18 21 22 20 20 19 18 18 18 17 16 15 14 13 11 9 9 8 7 7 7
12 11 11 11 13 12 14 16 18 19 24 25 26 25 29 26 29 26 23 25 23 20 20 21 25 23 22 21 21 21 21 19 19 18 17 16 15 12 11 10 8 7 7
16 14 13 15 15 15 16 15 17 21 24 25 27 29 27 25 30 30 31 27 22 24 24 22 25 27 27 24 22 24 24 22 20 19 19 18 18 16 14 12 10 8 8
17 18 16 17 17 17 17 18 22 19 19 25 28 31 33 32 29 30 33 32 32 31 30 26 24 25 30 29 26 23 22 22 22 21 19 20 21 19 17 15 13 10 8
17 15 16 18 17 18 18 19 22 23 25 25 27 29 31 35 34 28 29 32 32 36 33 29 25 27 27 29 30 29 25 24 22 21 22 20 23 21 19 17 15 12 10
14 12 13 14 16 19 22 22 23 23 27 27 24 22 28 32 31 33 37 35 34 37 33 35 32 30 28 28 30 32 29 28 27 26 24 22 24 22 21 19 17 15 13
9 11 11 14 16 20 25 26 27 28 28 25 18 16 7 14 25 31 33 37 38 37 39 34 35 36 35 32 30 29 27 30 31 30 28 25 26 24 23 21 19 17 15
3 6 11 16 18 21 28 28 29 31 25 27 30 16 3 6 5 23 35 37 37 38 42 41 40 35 34 36 32 33 25 29 29 30 31 30 28 27 25 25 21 20 18
8 12 11 12 15 20 26 29 31 34 33 28 25 32 33 19 4 4 15 32 37 39 38 38 38 41 37 35 34 33 28 30 28 31 33 33 31 29 27 26 25 23 22
8 9 12 13 13 16 20 24 28 32 32 30 28 26 24 28 28 11 10 6 26 31 35 35 35 36 42 42 39 34 32 32 23 28 29 29 32 29 29 29 27 26 25
12 15 15 14 16 19 22 26 23 17 30 33 30 27 25 15 13 13 9 8 8 17 32 35 35 37 38 38 34 33 29 28 22 27 31 28 27 28 29 32 32 30 29
20 19 18 19 19 19 19 22 26 31 29 30 25 29 32 30 29 27 24 9 7 15 13 20 25 27 27 25 24 18 15 17 21 23 25 27 22 26 29 33 39 35 33
19 17 19 19 18 20 19 20 21 25 29 32 30 26 17 15 25 28 12 9 4 6 10 6 20 24 22 21 16 14 15 21 21 18 21 21 23 26 28 30 34 37 41
15 14 13 15 16 18 21 20 18 24 24 27 26 29 24 21 23 14 17 14 3 2 5 11 15 20 24 29 32 22 24 29 30 27 27 28 29 35 35 33 33 38 39
13 14 15 16 17 17 17 18 24 26 24 21 22 24 22 23 23 23 22 21 16 13 6 15 23 26 27 31 36 37 36 31 30 30 31 31 33 36 39 36 38 40 42
15 18 20 20 19 20 20 21 19 17 15 17 18 18 18 19 20 21 22 20 18 20 7 17 23 23 24 29 30 30 35 33 35 32 33 34 34 34 36 37 38 41 41
16 16 17 17 19 19 18 17 19 20 21 20 19 19 17 18 14 16 16 16 17 15 10 9 17 14 23 25 26 31 30 27 26 25 26 27 27 30 32 35 37 42 44
16 16 17 18 18 18 17 17 19 19 18 17 18 18 18 17 17 19 14 15 12 14 14 10 11 14 9 7 8 10 13 16 19 21 24 27 28 28 29 31 34 44 49
15 15 15 16 16 16 14 18 21 20 19 19 19 18 16 15 18 17 16 17 15 14 13 12 11 14 8 9 9 9 13 16 19 20 22 24 26 25 24 25 40 46 43
16 16 17 18 18 18 13 18 18 19 19 19 18 17 18 18 15 11 16 15 15 16 14 12 10 12 12 11 12 9 12 17 20 20 21 20 19 21 18 27 40 39 34
20 21 22 22 23 22 20 20 21 25 27 26 24 22 19 16 13 16 13 13 13 15 15 11 11 10 13 15 15 16 17 7 3 11 9 17 18 25 28 29 31 35 36
18 19 19 20 21 21 20 20 21 23 26 25 26 26 26 20 19 15 15 13 17 15 13 14 14 13 13 16 19 18 16 15 10 18 15 13 18 24 29 34 36 38 38
20 20 22 21 22 23 20 20 20 20 21 24 23 24 25 24 21 19 19 20 19 16 13 14 15 15 15 16 18 18 19 20 21 22 20 6 16 24 29 31 33 40 41
20 19 20 21 23 24 22 20 19 17 20 23 24 23 22 22 20 18 15 17 22 25 18 14 14 16 16 17 19 22 18 15 9 12 18 17 12 19 25 29 33 34 39
21 21 23 23 21 21 20 18 18 18 17 18 20 21 23 22 21 20 18 16 17 21 23 25 24 22 24 19 16 17 20 16 14 11 17 16 13 14 3 18 30 32 36

GFSMA_925_spd_111.txt.gz
Wind_Speed
22 20 19 15 9 14 21 20 22 23 24 25 24 24 26 25 27 25 25 23 28 25 24 21 22 21 20 20 19 18 18 17 16 15 14 12 10 9 9 9 8 7 7
22 20 18 17 17 13 10 16 22 22 22 25 26 26 26 27 29 29 24 26 25 29 26 24 24 24 24 22 21 21 21 20 20 19 17 16 14 12 11 10 9 9 9
18 16 15 14 14 11 9 11 13 17 21 25 28 28 28 30 27 29 32 29 29 27 26 27 25 27 27 26 25 24 23 22 21 21 19 18 17 16 14 12 11 9 9
23 17 16 15 13 13 13 13 14 15 18 20 22 24 26 28 30 30 27 27 34 33 32 30 29 29 31 30 28 27 26 25 25 23 22 22 20 19 17 15 14 12 10
22 22 21 19 16 15 15 14 16 19 21 23 24 25 29 32 34 34 34 39 36 33 33 33 32 31 31 34 31 29 27 29 29 27 25 23 23 21 20 18 16 14 13
26 26 22 18 12 12 13 14 16 18 22 25 26 29 32 35 34 34 35 35 37 38 38 35 34 35 35 34 37 36 31 30 29 29 27 26 23 24 23 21 20 18 16
31 19 13 6 6 6 9 13 16 19 22 23 24 23 27 32 34 33 34 37 39 41 42 42 42 42 40 38 36 37 38 33 32 30 28 27 25 23 25 23 22 21 19
8 6 6 4 5 9 12 14 17 20 24 23 18 17 10 19 25 31 33 33 38 38 39 44 41 41 41 38 40 38 35 37 37 35 34 30 27 25 27 26 24 23 22
10 9 7 8 10 12 13 14 15 18 21 24 24 16 4 7 3 17 28 32 33 35 37 40 46 48 45 47 47 42 38 38 37 38 37 35 32 30 29 29 27 26 25
15 14 13 8 10 11 13 14 15 17 20 24 25 27 34 28 10 12 18 28 34 36 36 36 39 43 46 48 45 47 43 39 36 36 33 37 35 33 32 31 29 29 28
15 16 15 13 9 10 12 13 16 16 15 20 22 28 28 28 29 12 14 13 23 29 36 36 37 36 38 44 44 47 46 41 37 37 31 33 30 31 31 32 31 32 32
16 14 12 13 12 12 13 12 14 14 16 22 25 23 20 19 17 15 12 15 17 26 29 36 36 39 41 40 45 47 46 41 40 38 35 32 28 31 30 32 34 38 37
25 20 18 17 16 15 15 15 14 16 18 17 19 23 23 24 24 27 26 13 12 19 22 33 40 39 38 38 43 48 48 45 39 32 35 30 27 28 25 29 31 34 36
14 14 14 16 16 15 17 17 18 19 17 17 18 21 20 24 29 20 18 13 8 9 15 15 29 38 37 39 40 42 39 35 32 28 29 27 25 26 23 25 26 28 24
17 17 16 16 16 16 16 16 18 20 22 20 16 18 18 23 24 24 27 22 12 3 3 8 10 18 26 26 28 29 31 30 26 26 24 23 23 23 25 23 26 30 32
13 15 15 15 16 17 17 17 18 17 18 18 16 19 20 19 20 20 25 23 20 13 4 8 9 19 23 28 30 28 28 25 26 29 28 32 29 32 28 28 28 38 34
14 15 16 16 17 18 18 18 19 18 18 19 20 21 19 19 21 26 22 18 17 16 7 8 17 22 17 25 30 31 34 36 36 40 36 32 31 35 35 34 36 37 35
17 17 18 18 18 18 18 17 20 21 20 21 20 21 20 19 19 22 19 17 15 14 15 10 16 16 18 18 14 15 27 33 32 34 34 32 31 28 28 29 31 32 33
16 16 16 17 17 17 18 16 20 21 22 21 21 21 20 19 19 21 15 18 15 15 15 15 14 16 14 14 19 16 15 11 11 16 17 20 21 22 25 26 27 29 30
15 15 15 16 16 17 14 17 21 22 23 23 23 22 21 22 23 22 17 19 15 17 17 15 15 16 15 16 13 15 15 16 17 15 11 14 14 17 22 24 25 28 31
15 16 18 18 18 19 15 19 20 20 23 27 28 24 21 22 19 16 19 18 18 20 17 14 10 13 12 16 13 13 13 18 18 16 15 13 13 15 16 17 19 24 28
18 19 20 22 23 22 21 20 20 23 22 25 26 28 26 22 19 21 16 14 14 18 17 14 14 11 12 14 15 16 14 9 3 7 16 21 19 18 16 17 18 16 19
20 21 22 22 23 23 20 21 20 21 22 21 26 27 27 25 26 23 18 19 14 18 16 18 16 16 16 16 17 18 16 13 12 17 21 16 17 19 18 18 20 18 18
19 20 21 21 21 21 20 21 21 21 17 20 25 24 25 27 27 24 24 21 17 20 18 16 18 16 16 18 18 19 20 22 22 25 20 9 16 17 19 19 18 23 28
19 20 20 21 21 21 19 18 18 17 17 19 22 21 21 25 24 23 24 22 24 24 23 19 18 19 20 21 22 21 20 15 10 15 17 14 16 15 19 21 21 22 25
17 18 19 18 17 18 18 17 17 18 20 20 17 15 17 19 22 23 24 23 18 23 26 27 27 24 19 21 20 16 18 12 13 8 3 6 17 10 5 11 21 23 25

GFSMA_925_spd_114.txt.gz
Wind_Speed
22 24 23 20 20 18 20 25 24 23 25 25 26 26 26 26 25 24 24 24 26 26 28 28 24 22 22 21 22 21 21 20 19 18 17 15 14 12 12 11 11 11 10
25 25 26 24 22 19 17 19 22 23 23 24 24 27 27 27 28 26 26 26 26 31 28 33 31 26 24 23 24 24 25 24 22 21 20 19 18 16 14 14 13 13 13
26 26 25 25 25 22 19 17 15 12 16 19 22 23 24 27 29 28 29 30 29 31 32 33 34 31 28 28 27 27 28 28 27 25 23 22 21 20 18 16 16 14 14
27 27 27 23 21 19 18 16 14 14 15 17 19 21 22 23 24 26 30 31 31 34 35 35 34 34 33 31 30 30 31 30 29 28 26 24 23 22 21 20 19 18 16
28 29 25 28 23 21 18 16 14 15 16 17 19 20 22 24 25 28 31 31 32 34 35 37 37 41 38 35 34 35 33 33 33 31 31 29 27 27 25 23 22 21 20
27 27 26 19 19 18 18 15 13 13 14 17 19 21 25 27 30 32 33 33 34 35 42 44 41 41 42 41 38 36 37 36 36 35 34 33 31 29 28 26 24 24 22
16 15 18 14 10 12 6 2 3 5 10 12 15 20 22 24 28 30 31 33 34 36 39 43 46 47 44 44 43 41 39 40 37 37 37 35 36 33 31 29 27 26 25
9 5 4 4 3 2 2 3 4 7 8 12 6 14 6 8 17 23 27 33 37 37 37 42 45 45 47 47 47 46 46 42 41 39 41 38 35 35 33 32 31 29 28
11 10 10 6 3 12 13 13 12 10 7 13 12 9 4 4 3 11 19 26 31 34 37 37 40 44 45 45 45 51 48 48 42 45 42 41 39 36 35 34 33 31 31
12 13 11 12 14 13 13 13 17 11 8 8 12 8 20 25 9 14 22 23 29 35 37 36 37 40 43 41 43 48 48 50 45 50 45 43 40 40 40 37 36 34 33
12 12 15 15 15 15 11 12 11 10 12 8 10 8 12 17 24 12 15 13 24 29 38 38 38 40 41 42 45 46 49 53 54 53 48 44 41 42 40 38 39 38 38
20 18 17 18 18 17 16 12 10 11 11 12 12 11 9 4 8 8 7 12 15 27 33 38 39 41 42 42 44 46 47 50 51 52 51 43 40 39 40 38 41 41 41
20 21 20 20 19 17 16 14 14 16 16 13 12 13 13 10 11 9 12 10 8 24 26 31 37 39 39 40 43 45 46 46 45 47 48 47 42 39 38 38 43 41 42
16 16 16 16 15 15 14 14 13 13 14 15 16 16 13 13 17 13 13 13 9 11 23 28 19 33 37 38 42 43 45 46 44 44 46 43 41 40 36 34 38 38 39
14 14 15 15 15 16 16 17 16 16 15 15 14 16 15 14 13 13 16 11 9 7 11 13 10 23 28 23 38 39 40 40 40 40 41 40 40 37 34 30 30 32 35
14 14 15 15 15 16 15 15 17 18 17 17 16 17 18 16 12 13 11 10 11 16 6 20 22 28 30 28 22 23 31 35 40 39 39 34 29 26 24 29 35 32 32
13 14 14 15 15 15 15 14 16 18 19 19 18 19 19 19 19 21 20 14 13 11 9 24 25 27 27 29 29 25 18 26 31 29 26 29 31 29 24 29 30 29 29
14 14 14 14 15 15 15 11 17 18 19 20 21 21 20 19 20 21 19 13 14 14 16 14 23 25 27 23 26 24 23 17 10 12 27 33 34 37 34 33 33 34 36
15 14 14 15 16 16 15 13 18 17 18 19 20 20 18 18 20 21 18 17 16 13 14 16 18 20 22 22 25 20 17 19 17 14 9 11 12 22 31 34 34 35 34
10 11 11 11 13 13 11 14 15 15 17 18 20 20 18 19 19 20 17 19 13 17 18 15 16 18 18 22 20 18 20 22 23 17 13 12 9 10 13 16 23 26 29
10 11 12 13 14 14 13 14 15 15 14 18 18 22 21 17 16 18 19 19 15 16 16 15 14 15 15 19 16 18 17 21 21 9 14 11 14 13 13 11 16 19 23
11 12 13 14 15 15 12 13 14 16 16 15 17 22 22 19 20 20 18 17 15 13 14 12 9 12 15 15 17 18 16 15 5 8 27 22 22 19 17 16 17 18 19
14 14 15 15 16 17 15 15 15 16 15 12 17 21 21 20 22 21 20 21 19 12 14 15 15 16 15 19 19 18 18 16 15 24 25 22 21 26 20 20 21 19 19
13 13 14 15 15 15 14 16 16 17 16 17 18 20 20 20 22 19 21 22 22 20 20 18 18 19 20 21 18 20 21 22 22 23 17 9 15 19 22 24 22 20 17
13 13 14 13 14 13 13 14 14 15 17 18 19 15 17 21 21 21 21 22 23 25 27 20 20 22 22 19 18 19 19 14 9 16 22 17 17 20 24 26 24 19 16
11 13 12 12 10 11 13 12 14 16 16 17 14 17 18 18 20 20 21 23 18 23 27 26 24 23 21 21 16 15 15 12 11 9 1 14 16 12 7 7 11 12 16

GFSMA_925_spd_117.txt.gz
Wind_Speed
22 22 23 23 24 23 23 23 24 26 26 24 25 26 25 26 26 26 26 24 24 25 26 25 26 25 23 21 22 22 22 21 20 19 18 17 16 15 14 13 13 13 13
22 23 25 26 26 27 27 24 24 26 25 24 23 26 27 28 27 26 27 25 25 25 26 29 29 30 27 24 23 24 25 25 23 22 22 21 20 19 17 16 15 15 15
23 24 24 28 28 28 27 27 25 21 21 21 20 22 22 23 24 24 26 25 24 25 27 28 31 31 33 30 27 26 27 29 28 26 26 25 24 23 21 20 18 18 17
22 25 25 26 28 26 25 26 24 20 18 18 16 16 18 19 21 21 21 23 26 27 28 27 32 36 34 36 33 31 31 32 33 31 30 29 27 26 25 23 22 21 20
19 19 22 24 24 24 22 18 18 17 17 17 16 16 18 19 19 21 23 25 26 28 31 33 32 35 38 37 40 38 35 35 35 36 33 31 31 29 29 26 25 24 23
12 14 14 15 17 19 20 19 17 17 16 15 14 15 19 21 23 26 28 29 31 32 32 33 35 36 38 42 43 43 41 37 38 38 38 37 35 34 32 31 30 26 25
15 14 12 9 4 7 5 6 8 11 9 6 7 10 16 20 26 28 30 29 29 30 32 33 35 38 41 44 48 45 47 42 41 40 40 40 39 39 37 35 33 31 29
15 13 9 10 8 5 7 13 6 8 4 4 3 6 3 5 12 16 20 25 28 29 32 33 34 36 39 43 44 46 47 50 46 43 41 43 43 41 40 40 37 34 33
15 14 14 12 9 10 11 12 11 11 8 13 12 4 2 3 8 15 15 20 24 30 34 34 35 36 37 39 42 45 48 48 51 48 44 43 45 44 44 40 39 37 36
17 18 18 15 13 13 12 10 10 11 10 8 9 9 12 10 4 7 8 19 22 28 33 37 36 38 39 40 40 42 44 46 49 51 49 48 45 44 43 44 41 40 38
20 18 19 19 19 18 14 14 14 14 13 8 9 9 10 13 4 4 6 7 21 23 24 25 33 38 40 42 42 45 45 46 45 46 46 48 48 46 45 43 43 42 40
19 19 18 17 16 16 16 16 16 14 13 7 10 9 7 5 8 5 5 11 8 13 32 25 32 35 39 43 47 49 49 48 46 46 43 43 46 46 45 45 44 45 44
18 18 17 16 15 13 13 13 11 13 15 13 11 10 8 7 10 10 11 9 5 12 9 19 22 15 24 26 25 40 50 48 49 46 41 43 46 46 46 45 43 44 45
14 14 15 14 14 14 12 11 10 9 7 7 7 11 12 9 10 5 8 10 8 5 13 6 20 20 34 39 35 33 25 41 42 44 42 44 43 40 41 46 45 44 44
12 14 15 16 15 15 14 14 13 13 11 10 9 8 9 7 6 10 11 11 9 5 7 9 12 23 34 31 34 34 29 29 35 41 40 43 44 45 41 45 42 46 43
8 10 11 12 13 13 13 11 12 14 14 13 13 12 11 11 11 12 12 9 11 12 6 16 25 26 31 32 29 35 34 34 22 24 39 39 38 40 37 40 42 41 39
10 11 11 11 11 11 11 8 11 12 13 13 14 13 11 10 11 13 14 11 13 13 7 22 25 27 25 27 29 30 28 26 29 27 16 23 25 37 34 38 38 37 38
10 9 10 10 11 11 10 8 12 12 13 14 16 16 15 14 14 14 14 13 16 14 15 15 24 25 27 27 28 26 23 24 27 29 26 22 12 20 24 25 27 27 28
10 9 10 11 12 13 11 10 12 12 11 12 14 15 15 15 15 16 18 15 19 13 15 16 20 23 23 25 29 24 27 26 28 27 21 19 17 13 6 13 20 28 29
8 8 9 9 11 11 10 10 12 12 11 12 11 14 15 14 14 17 17 18 19 15 17 17 16 19 20 23 20 22 26 27 30 17 17 19 18 17 15 12 7 13 20
7 8 8 9 10 10 9 11 11 11 11 11 10 13 16 13 12 14 16 18 19 19 17 16 14 15 14 19 18 20 20 23 26 12 24 30 31 27 20 18 15 11 8
7 8 8 8 9 9 7 10 10 12 11 11 10 13 14 14 15 16 14 14 14 17 17 12 14 13 15 18 18 18 18 18 7 11 29 27 25 23 26 22 19 19 16
8 9 8 10 9 9 8 10 11 10 9 10 12 15 16 15 16 18 17 17 18 16 15 18 20 20 20 21 23 20 18 16 16 28 24 21 22 22 20 20 21 20 19
9 10 9 10 11 10 9 10 11 11 12 13 15 15 14 17 19 18 21 20 21 22 22 20 21 23 25 26 25 23 17 23 20 21 19 9 23 26 23 22 20 19 20
9 9 10 10 11 11 11 12 13 15 16 15 15 14 15 19 19 19 21 22 25 25 25 21 20 21 22 22 22 22 21 14 10 18 21 8 10 18 22 17 12 10 11
10 10 10 10 11 12 11 11 12 13 15 17 18 17 20 18 19 20 20 22 19 23 27 27 25 25 24 25 22 20 19 15 11 7 3 15 19 14 8 12 17 25 24